[[{"header":{"parameterUnit":"m.s-1","parameterCategory":1,"la1":31.0,"la2":29.5877,"lo1":-88.7671,"lo2":-86.6584,"dy":0.0162,"dx":0.0185,"nx":115,"ny":88,"refTime":"2024-03-16T18:00:00:Z","depth":0,"parameterNumber":2,"parameterNumberName":"U-component_of_WINDS"},"data":[0.0,0.0,0.0,0.0,0.0,0.0,0.0,0.0,0.0,0.0,0.0,0.0,0.0,0.0,0.0,0.0,0.0,0.0,0.0,0.0,0.0,0.0,0.0,0.0,0.0,0.0,0.0,0.0,0.0,0.0,0.0,0.0,0.0,0.0,0.0,0.0,0.0,0.0,0.0,0.0,0.0,0.0,0.0,0.0,0.0,0.0,0.0,0.0,0.0,0.0,0.0,0.0,0.0,0.0,0.0,0.0,0.0,0.0,0.0,0.0,0.0,0.0,0.0,0.0,0.0,0.0,0.0,0.0,0.0,0.0,0.0,0.0,0.0,0.0,0.0,0.0,0.0,0.0,0.0,0.0,0.0,0.0,0.0,0.0,0.0,0.0,0.0,0.0,0.0,0.0,0.0,0.0,0.0,0.0,0.0,0.0,0.0,0.0,0.0,0.0,0.0,0.0,0.0,0.0,0.0,0.0,0.0,0.0,0.0,0.0,0.0,0.0,0.0,0.0,0.0,0.0,0.0,0.0,0.0,0.0,0.0,0.0,0.0,0.0,0.0,0.0,0.0,0.0,0.0,0.0,0.0,0.0,0.0,0.0,0.0,0.0,0.0,0.0,0.0,0.0,0.0,0.0,0.0,0.0,0.0,0.0,0.0,0.0,0.0,0.0,0.0,0.0,0.0,0.0,0.0,0.0,0.0,0.0,0.0,0.0,0.0,0.0,0.0,0.0,0.0,0.0,0.0,0.0,0.0,0.0,0.0,0.0,0.0,0.0,0.0,0.0,0.0,0.0,0.0,0.0,0.0,0.0,0.0,0.0,0.0,0.0,0.0,0.0,0.0,0.0,0.0,0.0,0.0,0.0,0.0,0.0,0.0,0.0,0.0,0.0,0.0,0.0,0.0,0.0,0.0,0.0,0.0,0.0,0.0,0.0,0.0,0.0,0.0,0.0,0.0,0.0,0.0,0.0,0.0,0.0,0.0,0.0,0.0,0.0,0.0,0.0,0.0,0.0,0.0,0.0,0.0,0.0,0.0,0.0,0.0,0.0,0.0,0.0,0.0,0.0,0.0,0.0,0.0,0.0,0.0,0.0,0.0,0.0,0.0,0.0,0.0,0.0,0.0,0.0,0.0,0.0,0.0,0.0,0.0,0.0,0.0,0.0,0.0,0.0,0.0,0.0,0.0,0.0,0.0,0.0,0.0,0.0,0.0,0.0,0.0,0.0,0.0,0.0,0.0,0.0,0.0,0.0,0.0,0.0,0.0,0.0,0.0,0.0,0.0,0.0,0.0,0.0,0.0,0.0,0.0,0.0,0.0,0.0,0.0,0.0,0.0,0.0,0.0,0.0,0.0,0.0,0.0,0.0,0.0,0.0,0.0,0.0,0.0,0.0,0.0,0.0,0.0,0.0,0.0,0.0,0.0,0.0,0.0,0.0,0.0,0.0,0.0,0.0,0.0,0.0,0.0,0.0,0.0,0.0,0.0,0.0,0.0,0.0,0.0,0.0,0.0,0.0,0.0,0.0,0.0,0.0,0.0,0.0,0.0,0.0,0.0,0.0,0.0,0.0,0.0,0.0,0.0,0.0,0.0,0.0,0.0,0.0,0.0,0.0,0.0,0.0,0.0,0.0,0.0,0.0,0.0,0.0,0.0,0.0,0.0,0.0,0.0,0.0,0.0,0.0,0.0,0.0,0.0,0.0,0.0,0.0,0.0,0.0,0.0,0.0,0.0,0.0,0.0,0.0,0.0,0.0,0.0,0.0,0.0,0.0,0.0,0.0,0.0,0.0,0.0,0.0,0.0,0.0,0.0,0.0,0.0,0.0,0.0,0.0,0.0,0.0,0.0,0.0,0.0,0.0,0.0,0.0,0.0,0.0,0.0,0.0,0.0,0.0,0.0,0.0,0.0,0.0,0.0,0.0,0.0,0.0,0.0,0.0,0.0,0.0,0.0,0.0,0.0,0.0,0.0,0.0,0.0,0.0,0.0,0.0,0.0,0.0,0.0,0.0,0.0,0.0,0.0,0.0,0.0,0.0,0.0,0.0,0.0,0.0,0.0,0.0,0.0,0.0,0.0,0.0,0.0,0.0,0.0,0.0,0.0,0.0,0.0,0.0,0.0,0.0,0.0,0.0,0.0,0.0,0.0,0.0,0.0,0.0,0.0,0.0,0.0,0.0,0.0,0.0,0.0,0.0,0.0,0.0,0.0,0.0,0.0,0.0,0.0,0.0,0.0,0.0,0.0,0.0,0.0,0.0,0.0,0.0,0.0,0.0,0.0,0.0,0.0,0.0,0.0,0.0,0.0,0.0,0.0,0.0,0.0,0.0,0.0,0.0,0.0,0.0,0.0,0.0,0.0,0.0,0.0,0.0,0.0,0.0,0.0,0.0,0.0,0.0,0.0,0.0,0.0,0.0,0.0,0.0,0.0,0.0,0.0,0.0,0.0,0.0,0.0,0.0,0.0,0.0,0.0,0.0,0.0,0.0,0.0,0.0,0.0,0.0,0.0,0.0,0.0,0.0,0.0,0.0,0.0,0.0,0.0,0.0,0.0,0.0,0.0,0.0,0.0,0.0,0.0,0.0,0.0,0.0,0.0,0.0,0.0,0.0,0.0,0.0,0.0,0.0,0.0,0.0,0.0,0.0,0.0,0.0,0.0,0.0,0.0,0.0,0.0,0.0,0.0,0.0,0.0,0.0,0.0,0.0,0.0,0.0,0.0,0.0,0.0,0.0,0.0,0.0,0.0,0.0,0.0,0.0,0.0,0.0,0.0,0.0,0.0,0.0,0.0,0.0,0.0,0.0,0.0,0.0,0.0,0.0,0.0,0.0,0.0,0.0,0.0,0.0,0.0,0.0,0.0,0.0,0.0,0.0,0.0,0.0,0.0,0.0,0.0,0.0,0.0,0.0,0.0,0.0,0.0,0.0,0.0,0.0,0.0,0.0,0.0,0.0,0.0,0.0,0.0,0.0,0.0,0.0,0.0,0.0,0.0,0.0,0.0,0.0,0.0,0.0,0.0,0.0,0.0,0.0,0.0,0.0,0.0,0.0,0.0,0.0,0.0,0.0,0.0,0.0,0.0,0.0,0.0,0.0,0.0,0.0,0.0,0.0,0.0,0.0,0.0,0.0,0.0,0.0,0.0,0.0,0.0,0.0,0.0,0.0,0.0,0.0,0.0,0.0,0.0,0.0,0.0,0.0,0.0,0.0,0.0,0.0,0.0,0.0,0.0,0.0,0.0,0.0,0.0,0.0,0.0,0.0,0.0,0.0,0.0,0.0,0.0,0.0,0.0,0.0,0.0,0.0,0.0,0.0,0.0,0.0,0.0,0.0,0.0,0.0,0.0,0.0,0.0,0.0,0.0,0.0,0.0,0.0,0.0,0.0,0.0,0.0,0.0,0.0,0.0,0.0,0.0,0.0,0.0,0.0,0.0,0.0,0.0,0.0,0.0,0.0,0.0,0.0,0.0,0.0,0.0,0.0,0.0,0.0,0.0,0.0,0.0,0.0,0.0,0.0,0.0,0.0,0.0,0.0,0.0,0.0,0.0,0.0,0.0,0.0,0.0,0.0,0.0,0.0,0.0,0.0,0.0,0.0,0.0,0.0,0.0,0.0,0.0,0.0,0.0,0.0,0.0,0.0,0.0,0.0,0.0,0.0,0.0,0.0,0.0,0.0,0.0,0.0,0.0,0.0,0.0,0.0,0.0,0.0,0.0,0.0,0.0,0.0,0.0,0.0,0.0,0.0,0.0,0.0,0.0,0.0,0.0,0.0,0.0,0.0,0.0,0.0,0.0,0.0,0.0,0.0,0.0,0.0,0.0,0.0,0.0,0.0,0.0,0.0,0.0,0.0,0.0,0.0,0.0,0.0,0.0,0.0,0.0,0.0,0.0,0.0,0.0,0.0,0.0,0.0,0.0,0.0,0.0,0.0,0.0,0.0,0.0,0.0,0.0,0.0,0.0,0.0,0.0,0.0,0.0,0.0,0.0,0.0,0.0,0.0,0.0,0.0,0.0,0.0,0.0,0.0,0.0,0.0,0.0,0.0,0.0,0.0,0.0,0.0,0.0,0.0,0.0,0.0,0.0,0.0,0.0,0.0,0.0,0.0,0.0,0.0,0.0,0.0,0.0,0.0,0.0,0.0,0.0,0.0,0.0,0.0,0.0,0.0,0.0,0.0,0.0,0.0,0.0,0.0,0.0,0.0,0.0,0.0,0.0,0.0,0.0,0.0,0.0,0.0,0.0,0.0,0.0,0.0,0.0,0.0,0.0472,0.0,0.0,0.0,0.0,0.0,0.0,0.0,0.0,0.0,0.0,0.0,0.0,0.0,0.0,0.0,0.0,0.0,0.0,0.0,0.0,0.0,0.0,0.0,0.0,0.0,0.0,0.0,0.0,0.0,0.0,0.0,0.0,0.0,0.0,0.0,0.0,0.0,0.0,0.0,0.0,0.0,0.0,0.0,0.0,0.0,0.0,0.0,0.0,0.0,0.0,0.0,0.0,0.0,0.0,0.0,0.0,0.0,0.0,0.0,0.0,0.0,0.0,0.0,0.0,0.0,0.0,0.0,0.0,0.0,0.0,0.0,0.0,0.0,0.0,0.0,0.0,0.0,0.0,0.0,0.0,0.0,0.0,0.0,0.0,0.0,0.0,0.0,0.0,0.0,0.0,0.0,0.0,0.0,0.0,0.0,0.0,0.0,0.0,0.0,0.0,0.0,0.0,0.0,0.0,0.0,0.0,0.0,0.0,0.0,0.0,0.0786,0.0578,0.0568,0.0406,0.0048,0.0,0.0,0.0,0.0,0.0,0.0,0.0,0.0,0.0,0.0,0.0,0.0,0.0,0.0,0.0,0.0,0.0,0.0,0.0,0.0,0.0,0.0,0.0,0.0,0.0,0.0,0.0,0.0,0.0,0.0,0.0,0.0,0.0,0.0,0.0,0.0,0.0,0.0,0.0,0.0,0.0,0.0,0.0,0.0,0.0,0.0,0.0,0.0,0.0,0.0,0.0,0.0,0.0,0.0,0.0,0.0,0.0,0.0,0.0,0.0,0.0,0.0,0.0,0.0,0.0,0.0,0.0,0.0,0.0,0.0,0.0,0.0,0.0,0.0,0.0,0.0,0.0,0.0,0.0,0.0,0.0,0.0,0.0,0.0,0.0,0.0,0.0,0.0,0.0,0.0,0.0,0.0,0.0,0.0,0.0,0.0,0.0,0.0,0.0,0.0,0.0,0.0,0.0,0.0,0.0,0.0,0.0,0.0,0.0,0.0,0.0,0.0,0.0174,-0.0025,-0.0408,0.0,0.0,0.0,0.0,0.0,0.0,0.0,0.0,0.0,0.0,0.0,0.0,0.0,0.0,0.0,0.0,0.0,0.0,0.0,0.0,0.0,0.0,0.0,0.0,0.0,0.0,0.0,0.0,0.0,0.0,0.0,0.0,0.0,0.0,0.0,0.0,0.0,0.0,0.0,0.0,0.0,0.0,0.0,0.0,0.0,0.0,0.0,0.0,0.0,0.0,0.0,0.0,0.0,0.0,0.0,0.0,0.0,0.0,0.0,0.0,0.0,0.0,0.0,0.0,0.0,0.0,0.0,0.0,0.0,0.0,0.0,0.0,0.0,0.0,0.0,0.0,0.0,0.0,0.0,0.0,0.0,0.0,0.0,0.0,0.0,0.0,0.0,0.0,0.0,0.0,0.0,0.0,0.0,0.0,0.0,0.0,0.0,0.0,0.0,0.0,0.0,0.0,0.0,0.0,0.0,0.0,0.0,0.0,0.0,0.0,0.0048,0.0025,-0.0151,0.0,-0.0845,0.0,0.0,0.0,0.0,0.0,0.0,0.0,0.0,0.0,0.0,0.0,0.0,0.0,0.0,0.0,0.0,0.0,0.0,0.0,0.0,0.0,0.0,0.0,0.0,0.0,0.0,0.0,0.0,0.0,0.0,0.0,0.0,0.0,0.0,0.0,0.0,0.0,0.0,0.0,0.0,0.0,0.0,0.0,0.0,0.0,0.0,0.0,0.0,0.0,0.0,0.0,0.0,0.0,0.0,0.0,0.0,0.0,0.0,0.0,0.0,0.0,0.0,0.0,0.0,0.0,0.0,0.0,0.0,0.0,0.0,0.0,0.0,0.0,0.0,0.0,0.0,0.0,0.0,0.0,0.0,0.0,0.0,0.0,0.0,0.0,0.0,0.0,0.0,0.0,0.0,0.0,0.0,0.0,0.0,0.0,0.0,0.0,0.0,0.0,0.0,0.0,0.0,0.0,0.0,0.0,0.0,0.0,0.0,0.0,0.0,-0.0301,-0.0417,-0.0638,-0.0867,0.0,0.0,0.0,0.0,0.0,0.0,0.0,0.0,0.0,0.0,0.0,0.0,0.0,0.0,0.0,0.0,0.0,0.0,0.0,0.0,0.0,0.0,0.0,0.0,0.0,0.0,0.0,0.0,0.0,0.0,0.0,0.0,0.0,0.0,0.0,0.0,0.0,0.0,0.0,0.0,0.0,0.0,0.0,0.0,0.0,0.0,0.0,0.0,0.0,0.0,0.0,0.0,0.0,0.0,0.0,0.0,0.0,0.0,0.0,0.0,0.0,0.0,0.0,0.0,0.0,0.0,0.0,0.0,0.0,0.0,0.0,0.0,0.0,0.0,0.0,0.0,0.0,0.0,0.0,0.0,0.0,0.0,0.0,0.0,0.0,0.0,0.0,0.0,0.0,0.0,0.0,0.0,0.0,0.0,0.0,0.0,0.0,0.0,0.0,0.0,0.0,0.0,0.0,0.0,0.0,0.0,0.0,0.0,0.0,0.0,-0.0547,-0.0644,-0.0809,-0.1025,-0.1229,-0.1356,0.0,0.0,0.0,0.0,0.0,0.0,0.0,0.0,0.0,0.0,0.0,0.0,0.0,0.0,0.0,0.0,0.0,0.0,0.0,0.0,0.0,0.0,0.0,0.0,0.0,0.0,0.0,0.0,0.0,0.0,0.0,0.0,0.0,0.0,0.0,0.0,0.0,0.0,0.0,0.0,0.0,0.0,0.0,0.0,0.0,0.0,0.0,0.0,0.0,0.0,0.0,0.0,0.0,0.0,0.0,0.0,0.0,0.0,0.0,0.0,0.0,0.0,0.0,0.0,0.0,0.0,0.0,0.0,0.0,0.0,0.0,0.0,0.0,0.0,0.0,0.0,0.0,0.0,0.0,0.0,0.0,0.0,0.0,0.0,0.0,0.0,0.0,0.0,0.0,0.0,0.0,0.0,0.0,0.0,0.0,0.0,0.0,0.0,0.0,0.0,0.0,0.0,0.0,0.0,0.0,0.0,0.0,0.0,-0.0977,-0.0983,-0.1018,-0.1088,-0.1233,-0.1354,0.0,0.0,0.0,0.0,0.0,0.0,0.0,0.0,0.0,0.0,0.0,0.0,0.0,0.0,0.0,0.0,0.0,0.0,0.0,0.0,0.0,0.0,0.0,0.0,0.0,0.0,0.0,0.0,0.0,0.0,0.0,0.0,0.0,0.0,0.0,0.0,0.0,0.0,0.0,0.0,0.0,0.0,0.0,0.0,0.0,0.0,0.0,0.0,0.0,0.0,0.0,0.0,0.0,0.0,0.0,0.0,0.0,0.0,0.0,0.0,0.0,0.0,0.0,0.0,0.0,0.0,0.0,0.0,0.0,0.0,0.0,0.0,0.0,0.0,0.0,0.0,0.0,0.0,0.0,0.0,0.0,0.0,0.0,0.0,0.0,0.0,0.0,0.0,0.0,0.0,0.0,0.0,0.0,0.0,0.0,0.0,0.0,0.0,0.0,0.0,0.0,0.0,0.0,0.0,0.0,0.0,0.0,0.0,0.0,-0.1133,-0.1162,-0.1258,-0.1429,-0.1428,-0.1485,0.0,0.0,0.0,0.0,0.0,0.0,0.0,0.0,0.0,0.0,0.0,0.0,0.0,0.0,0.0,0.0,0.0,0.0,0.0,0.0,0.0,0.0,0.0,0.0,0.0,0.0,0.0,0.0,0.0,0.0,0.0,0.0,0.0,0.0,0.0,0.0,0.0,0.0,0.0,0.0,0.0,0.0,0.0,0.0,0.0,0.0,0.0,0.0,0.0,0.0,0.0,0.0,0.0,0.0,0.0,0.0,0.0,0.0,0.0,0.0,0.0,0.0,0.0,0.0,0.0,0.0,0.0,0.0,0.0,0.0,0.0,0.0,0.0,0.0,0.0,0.0,0.0,0.0,0.0,0.0,0.0,0.0,0.0,0.0,0.0,0.0,0.0,0.0,0.0,0.0,0.0,0.0,0.0,0.0,0.0,0.0,0.0,0.0,0.0,0.0,0.0,0.0,0.0,0.0,0.0,0.0,0.0,0.0,0.0,-0.1308,0.0,-0.1515,-0.16,-0.162,-0.161,0.0,0.0,0.0,0.0,0.0,0.0,0.0,0.0,0.0,0.0,0.0,0.0,0.0,0.0,0.0,0.0,0.0,0.0,0.0,0.0,0.0,0.0,0.0,0.0,0.0,0.0,0.0,0.0,0.0,0.0,0.0,0.0,0.0,0.0,0.0,0.0,0.0,0.0,0.0,0.0,0.0,0.0,0.0,0.0,0.0,0.0,0.0,0.0,0.0,0.0,0.0,0.0,0.0,0.0,0.0,0.0,0.0,0.0,0.0,0.0,0.0,0.0,0.0,0.0,0.0,0.0,0.0,0.0,0.0,0.0,0.0,0.0,0.0,0.0,0.0,0.0,0.0,0.0,0.0,0.0,0.0,0.0,0.0,0.0,0.0,0.0,0.0,0.0,0.0,0.0,0.0,0.0,0.0,0.0,0.0,0.0,0.0,0.0,0.0,0.0,0.0,0.0,0.0,0.0,0.0,0.0,0.0,0.0,-0.1489,-0.1517,-0.1688,-0.1753,-0.1633,-0.1745,-0.1741,0.0,0.0,0.0,0.0,0.0,0.0,0.0,0.0,0.0,0.0,0.0,0.0,0.0,0.0,0.0,0.0,0.0,0.0,0.0,0.0,0.0,0.0,0.0,0.0,0.0,0.0,0.0,0.0,0.0,0.0,0.0,0.0,0.0,0.0,0.0,0.0,0.0,0.0,0.0,0.0,0.0,0.0,0.0,0.0,0.0,0.0,0.0,0.0,0.0,0.0,0.0,0.0,0.0,0.0,0.0,0.0,0.0,0.0,0.0,0.0,0.0,0.0,0.0,0.0,0.0,0.0,0.0,0.0,0.0,0.0,0.0,0.0,0.0,0.0,0.0,0.0,0.0,0.0,0.0,0.0,0.0,0.0,0.0,0.0,0.0,0.0,0.0,0.0,0.0,0.0,0.0,0.0,0.0,0.0,0.0,0.0,0.0,0.0,0.0,0.0,0.0,0.0,0.0,0.0,0.0,0.0,0.0,0.0,0.0,-0.1771,-0.1929,-0.1981,-0.1947,-0.1899,-0.182,0.0,0.0,0.0,0.0,0.0,0.0,0.0,0.0,0.0,0.0,0.0,0.0,0.0,0.0,0.0,0.0,0.0,0.0,0.0,0.0,0.0,0.0,0.0,0.0,0.0,0.0,0.0,0.0,0.0,0.0,0.0,0.0,0.0,0.0,0.0,0.0,0.0,0.0,0.0,0.0,0.0,0.0,0.0,0.0,0.0,0.0,0.0,0.0,0.0,0.0,0.0,0.0,0.0,0.0,0.0,0.0,0.0,0.0,0.0,0.0,0.0,0.0,0.0,0.0,0.0,0.0,0.0,0.0,0.0,0.0,0.0,0.0,0.0,0.0,0.0,0.0,0.0,0.0,0.0,0.0,0.0,0.0,0.0,0.0,0.0,0.0,0.0,0.0,0.0,0.0,0.0,0.0,0.0,0.0,0.0,0.0,0.0,0.0,0.0,0.0,0.0,0.0,0.0,0.0,0.0,0.0,0.0,0.0,0.0,-0.2112,-0.2125,-0.2131,-0.2131,-0.2067,-0.1965,-0.186,0.0,0.0,0.0,0.0,0.0,0.0,0.0,0.0,0.0,0.0,0.0,0.0,0.0,0.0,0.0,0.0,0.0,0.0,0.0,0.0,0.0,0.0,0.0,0.0,0.0,0.0,0.0,0.0,0.0,0.0,0.0,0.0,0.0,0.0,0.0,0.0,0.0,0.0,0.0,0.0,0.0,0.0,0.0,0.0,0.0,0.0,0.0,0.0,0.0,0.0,0.0,0.0,0.0,0.0,0.0,0.0,0.0,0.0,0.0,0.0,0.0,0.0,0.0,0.0,0.0,0.0,0.0,0.0,0.0,0.0,0.0,0.0,0.0,0.0,0.0,0.0,0.0,0.0,0.0,0.0,0.0,0.0,0.0,0.0,0.0,0.0,0.0,0.0,0.0,0.0,0.0,0.0,0.0,0.0,0.0,0.0,0.0,0.0,0.0,0.0,0.0,0.0,0.0,0.0,0.0,0.0,0.0,0.0,-0.2515,-0.2371,-0.225,-0.2237,-0.2279,-0.2155,0.0,0.0,0.0,0.0,0.0,0.0,0.0,0.0,0.0,0.0,0.0,0.0,0.0,0.0,0.0,0.0,0.0,0.0,0.0,0.0,0.0,0.0,0.0,0.0,0.0,0.0,0.0,0.0,0.0,0.0,0.0,0.0,0.0,0.0,0.0,0.0,0.0,0.0,0.0,0.0,0.0,0.0,0.0,0.0,0.0,0.0,0.0,0.0,0.0,0.0,0.0,0.0,0.0,0.0,0.0,0.0,0.0,0.0,0.0,0.0,0.0,0.0,0.0,0.0,0.0,0.0,0.0,0.0,0.0,0.0,0.0,0.0,0.0,0.0,0.0,0.0,0.0,0.0,0.0,0.0,0.0,0.0,0.0,0.0,0.0,0.0,0.0,0.0,0.0,0.0,0.0,0.0,0.0,0.0,0.0,0.0,0.0,0.0,0.0,0.0,0.0,0.0,0.0,0.0,0.0,0.0,0.0,0.0,0.0,-0.2929,-0.3074,-0.3056,-0.2825,-0.2899,-0.2845,0.0,0.0,0.0,0.0,0.0,0.0,0.0,0.0,0.0,0.0,0.0,0.0,0.0,0.0,0.0,0.0,0.0,0.0,0.0,0.0,0.0,0.0,0.0,0.0,0.0,0.0,0.0,0.0,0.0,0.0,0.0,0.0,0.0,0.0,0.0,0.0,0.0,0.0,0.0,0.0,0.0,0.0,0.0,0.0,0.0,0.0,0.0,0.0,0.0,0.0,0.0,0.0,0.0,0.0,0.0,0.0,0.0,0.0,0.0,0.0,0.0,0.0,0.0,0.0,0.0,0.0,0.0,0.0,0.0,0.0,0.0,0.0,0.0,0.0,0.0,0.0,0.0,0.0,0.0,0.0,0.0,0.0,0.0,0.0,0.0,0.0,0.0,0.0,0.0,0.0,0.0,0.0,0.0,0.0,0.0,0.0,0.0,0.0,0.0,0.0,0.0,0.0,0.0,0.0,0.0,0.0,0.0,0.0,-0.2704,-0.3282,-0.3597,-0.368,-0.3607,-0.3485,-0.3273,0.0,0.0,0.0,0.0,0.0,0.0,0.0,0.0,0.0,0.0,0.0,0.0,0.0,0.0,0.0,0.0,0.0,0.0,0.0,0.0,0.0,0.0,0.0,0.0,0.0,0.0,0.0,0.0,0.0,0.0,0.0,0.0,0.0,0.0,0.0,0.0,0.0,0.0,0.0,0.0,0.0,0.0,0.0,0.0,0.0,0.0,0.0,0.0,0.0,0.0,0.0,0.0,0.0,0.0,0.0,0.0,0.0,0.0,0.0,0.0,0.0,0.0,0.0,0.0,0.0,0.0,0.0,0.0,0.0,0.0,0.0,0.0,0.0,0.0,0.0,0.0,0.0,0.0,0.0,0.0,0.0,0.0,0.0,0.0,0.0,0.0,0.0,0.0,0.0,0.0,0.0,0.0,0.0,0.0,0.0,0.0,0.0,0.0,0.0,0.0,0.0,0.0,0.0,0.0,0.0,0.0,0.0,0.0,-0.2883,-0.3528,-0.3884,-0.4217,-0.4405,-0.4004,-0.3606,0.0,0.0,0.0,0.0,0.0,0.0,0.0,0.0,0.0,0.0,0.0,0.0,0.0,0.0,0.0,0.0,0.0,0.0,0.0,0.0,0.0,0.0,0.0,0.0,0.0,0.0,0.0,0.0,0.0,0.0,0.0,0.0,0.0,0.0,0.0,0.0,0.0,0.0,0.0,0.0,0.0,0.0,0.0,0.0,0.0,0.0,0.0,0.0,0.0,0.0,0.0,0.0,0.0,0.0,0.0,0.0,0.0,0.0,0.0,0.0,0.0,0.0,0.0,0.0,0.0,0.0,0.0,0.0,0.0,0.0,0.0,0.0,0.0,0.0,0.0,0.0,0.0,0.0,0.0,0.0,0.0,0.0,0.0,0.0,0.0,0.0,0.0,0.0,0.0,0.0,0.0,0.0,0.0,0.0,0.0,0.0,0.0,0.0,0.0,0.0,0.0,0.0,0.0,0.0,0.0,0.0,0.0,0.0,-0.3171,-0.3895,-0.3901,-0.4163,-0.4628,-0.4508,-0.4214,0.0,0.0,0.0,0.0,0.0,0.0,0.0,0.0,0.0,0.0,0.0,0.0,0.0,0.0,0.0,0.0,0.0,0.0,0.0,0.0,0.0,0.0,0.0,0.0,0.0,0.0,0.0,0.0,0.0,0.0,0.0,0.0,0.0,0.0,0.0,0.0,0.0,0.0,0.0,0.0,0.0,0.0,0.0,0.0,0.0,0.0,0.0,0.0,-0.6041,0.0,0.0,0.0,0.0,0.0,0.0,0.0,0.0,0.0,0.0,0.0,0.0,0.0,0.0,0.0,0.0,0.0,0.0,0.0,0.0,0.0,0.0,0.0,0.0,0.0,0.0,0.0,0.0,0.0,0.0,0.0,0.0,0.0,0.0,0.0,0.0,0.0,0.0,0.0,0.0,0.0,0.0,0.0,0.0,0.0,0.0,0.0,0.0,0.0,0.0,0.0,0.0,0.0,0.0,0.0,0.0,0.0,0.0,0.0,-0.3296,-0.4071,-0.3987,-0.4188,-0.4732,-0.4497,-0.4218,0.0,0.0,0.0,0.0,0.0,0.0,0.0,0.0,0.0,0.0,0.0,0.0,0.0,0.0,0.0,0.0,0.0,0.0,0.0,0.0,0.0,0.0,0.0,0.0,0.0,0.0,0.0,0.0,0.0,0.0,0.0,0.0,0.0,0.0,0.0,0.0,0.0,0.0,0.0,0.0,0.0,0.0,0.0,0.0,0.0,0.0,0.0,0.0,0.0,0.0,0.0,0.0,0.0,0.0,0.0,0.0,0.0,0.0,0.0,0.0,0.0,0.0,0.0,0.0,0.0,0.0,0.0,0.0,0.0,0.0,0.0,0.0,0.0,0.0,0.0,0.0,0.0,0.0,0.0,0.0,0.0,0.0,0.0,0.0,0.0,0.0,0.0,0.0,0.0,0.0,0.0,0.0,0.0,0.0,0.0,0.0,0.0,0.0,0.0,0.0,0.0,0.0,0.0,0.0,0.0,0.0,0.0,-0.2892,-0.3409,-0.4135,-0.3965,-0.414,-0.4676,-0.4249,-0.3947,-0.3814,0.0,0.0,0.0,0.0,0.0,0.0,0.0,0.0,0.0,0.0,0.0,0.0,0.0,0.0,0.0,0.0,0.0,0.0,0.0,0.0,0.0,0.0,0.0,0.0,0.0,0.0,0.0,0.0,0.0,0.0,0.0,0.0,0.0,0.0,0.0,0.0,0.0,0.0,-0.5734,-0.6384,0.0,0.0,0.0,0.0,0.0,0.0,0.0,0.0,-0.7269,0.0,0.0,0.0,0.0,0.0,0.0,0.0,0.0,0.0,0.0,0.0,0.0,0.0,0.0,0.0,0.0,0.0,0.0,0.0,0.0,0.0,0.0,0.0,0.0,0.0,0.0,0.0,0.0,0.0,0.0,0.0,0.0,0.0,0.0,0.0,0.0,0.0,0.0,0.0,0.0,0.0,0.0,0.0,0.0,0.0,0.0,0.0,0.0,0.0,0.0,0.0,0.0,0.0,0.0,0.0,0.0,-0.2736,-0.3033,-0.3457,-0.4036,-0.3891,-0.3931,-0.4218,-0.3757,-0.3534,-0.3449,0.0,0.0,0.0,0.0,0.0,0.0,0.0,0.0,0.0,0.0,0.0,0.0,0.0,0.0,0.0,0.0,0.0,0.0,0.0,0.0,0.0,0.0,0.0,0.0,0.0,0.0,0.0,0.0,0.0,0.0,0.0,0.0,0.0,0.0,0.0,0.0,0.0,0.0,0.0,-0.7126,-0.7399,0.0,0.0,0.0,0.0,0.0,0.0,0.0,0.0,-0.7862,0.0,0.0,0.0,0.0,0.0,0.0,0.0,0.0,0.0,0.0,0.0,0.0,0.0,0.0,0.0,0.0,0.0,0.0,0.0,0.0,0.0,0.0,0.0,0.0,0.0,0.0,0.0,0.0,0.0,0.0,0.0,0.0,0.0,0.0,0.0,0.0,0.0,0.0,0.0,0.0,0.0,0.0,0.0,0.0,0.0,0.0,0.0,0.0,0.0,0.0,0.0,0.0,0.0,0.0,0.0,-0.2828,-0.3158,-0.3518,-0.3977,-0.3882,-0.3916,-0.408,-0.3616,-0.3335,0.0,0.0,0.0,0.0,0.0,0.0,0.0,0.0,0.0,0.0,0.0,0.0,0.0,0.0,0.0,0.0,0.0,0.0,0.0,0.0,0.0,0.0,0.0,0.0,0.0,0.0,0.0,0.0,0.0,0.0,0.0,0.0,0.0,0.0,0.0,0.0,0.0,0.0,0.0,0.0,-0.7739,-0.8122,-0.8204,0.0,0.0,0.0,0.0,0.0,0.0,-0.8568,-0.8381,0.0,0.0,0.0,0.0,0.0,0.0,0.0,0.0,0.0,0.0,0.0,0.0,0.0,0.0,0.0,0.0,0.0,0.0,0.0,0.0,0.0,0.0,0.0,0.0,0.0,0.0,0.0,0.0,0.0,0.0,0.0,0.0,0.0,0.0,0.0,0.0,0.0,0.0,0.0,0.0,0.0,0.0,0.0,0.0,0.0,0.0,0.0,0.0,0.0,0.0,0.0,0.0,0.0,0.0,0.0,-0.2953,-0.3264,-0.3622,-0.3924,-0.3866,-0.3889,-0.4044,-0.3622,-0.327,0.0,0.0,0.0,0.0,0.0,0.0,0.0,0.0,0.0,0.0,0.0,0.0,0.0,0.0,0.0,0.0,0.0,0.0,0.0,0.0,0.0,0.0,0.0,0.0,0.0,0.0,0.0,0.0,0.0,0.0,0.0,0.0,0.0,0.0,0.0,0.0,0.0,0.0,0.0,0.0,0.0,-0.8702,-0.8816,-0.8824,0.0,0.0,0.0,0.0,-0.9259,-0.9129,0.0,0.0,0.0,0.0,0.0,0.0,0.0,0.0,0.0,0.0,0.0,0.0,0.0,0.0,0.0,0.0,0.0,0.0,0.0,0.0,0.0,0.0,0.0,0.0,0.0,0.0,0.0,0.0,0.0,0.0,0.0,0.0,0.0,0.0,0.0,0.0,0.0,0.0,0.0,0.0,0.0,0.0,0.0,0.0,0.0,0.0,0.0,0.0,0.0,0.0,0.0,0.0,0.0,0.0,0.0,0.0,-0.3075,-0.3384,-0.3708,-0.388,-0.3894,-0.3875,-0.3819,-0.3534,-0.327,0.0,0.0,0.0,0.0,0.0,0.0,0.0,0.0,0.0,0.0,0.0,0.0,0.0,0.0,0.0,0.0,0.0,0.0,0.0,0.0,0.0,0.0,0.0,0.0,0.0,0.0,0.0,0.0,0.0,0.0,0.0,0.0,0.0,0.0,0.0,0.0,0.0,0.0,0.0,0.0,0.0,-0.8966,-0.9389,-0.9502,-0.9502,0.0,0.0,-0.9632,-1.0033,-0.9754,0.0,0.0,0.0,0.0,0.0,0.0,0.0,0.0,0.0,0.0,0.0,0.0,0.0,0.0,0.0,0.0,0.0,0.0,0.0,0.0,0.0,0.0,0.0,0.0,0.0,0.0,0.0,0.0,0.0,0.0,0.0,0.0,0.0,0.0,0.0,0.0,0.0,0.0,0.0,0.0,0.0,0.0,0.0,0.0,0.0,0.0,0.0,0.0,0.0,0.0,0.0,0.0,0.0,0.0,0.0,-0.2758,-0.3147,-0.3474,-0.3711,-0.3916,-0.3921,-0.3846,-0.3823,-0.3586,-0.3319,0.0,0.0,0.0,0.0,0.0,0.0,0.0,0.0,0.0,0.0,0.0,0.0,0.0,0.0,0.0,0.0,0.0,0.0,0.0,0.0,0.0,0.0,0.0,0.0,0.0,0.0,0.0,0.0,0.0,0.0,0.0,0.0,0.0,0.0,0.0,0.0,0.0,0.0,0.0,0.0,0.0,0.0,-0.9851,-1.0103,0.0,0.0,0.0,-1.0355,-1.0712,0.0,0.0,0.0,0.0,0.0,0.0,0.0,0.0,0.0,0.0,0.0,0.0,0.0,0.0,0.0,0.0,0.0,0.0,0.0,0.0,0.0,0.0,0.0,0.0,0.0,0.0,0.0,0.0,0.0,0.0,0.0,0.0,0.0,0.0,0.0,0.0,0.0,0.0,0.0,0.0,0.0,0.0,0.0,0.0,0.0,0.0,0.0,0.0,0.0,0.0,0.0,0.0,0.0,0.0,0.0,0.0,0.0,-0.3219,-0.3572,-0.3849,-0.3921,-0.3973,-0.3965,-0.3902,-0.367,0.0,0.0,0.0,0.0,0.0,0.0,0.0,0.0,0.0,0.0,0.0,0.0,0.0,0.0,0.0,0.0,0.0,0.0,0.0,0.0,0.0,0.0,0.0,0.0,0.0,0.0,0.0,-0.2761,0.0,0.0,0.0,0.0,0.0,0.0,0.0,0.0,0.0,0.0,0.0,0.0,0.0,0.0,-0.9698,-1.0335,-1.0623,-1.0842,0.0,0.0,-1.0932,-1.124,-1.0842,-1.0396,0.0,0.0,0.0,0.0,0.0,0.0,0.0,0.0,0.0,0.0,0.0,0.0,0.0,0.0,0.0,0.0,0.0,0.0,0.0,0.0,0.0,0.0,0.0,0.0,0.0,0.0,0.0,0.0,0.0,0.0,0.0,0.0,0.0,0.0,0.0,0.0,0.0,0.0,0.0,0.0,0.0,0.0,0.0,0.0,0.0,0.0,0.0,0.0,0.0,0.0,0.0,0.0,0.0,0.0,-0.2921,-0.339,-0.3695,-0.3929,-0.4101,-0.4112,-0.4085,-0.4022,-0.379,-0.3416,0.0,0.0,0.0,0.0,0.0,0.0,0.0,0.0,0.0,0.0,0.0,0.0,0.0,0.0,0.0,0.0,0.0,0.0,0.0,0.0,0.0,0.0,0.0,0.0,0.0,0.0,0.0,0.0,0.0,0.0,0.0,0.0,0.0,0.0,0.0,0.0,0.0,0.0,0.0,0.0,0.0,-0.9925,-1.0794,-1.107,-1.1248,0.0,0.0,-1.1256,-1.1451,-1.1029,-1.0615,-1.0428,0.0,0.0,0.0,0.0,0.0,0.0,0.0,0.0,0.0,0.0,0.0,0.0,0.0,0.0,0.0,0.0,0.0,0.0,0.0,0.0,0.0,0.0,0.0,0.0,0.0,0.0,0.0,0.0,0.0,0.0,0.0,0.0,0.0,0.0,0.0,0.0,0.0,0.0,0.0,0.0,0.0,0.0,0.0,0.0,0.0,0.0,0.0,0.0,0.0,0.0,0.0,0.0,0.0,-0.2624,-0.3137,-0.3258,-0.3451,-0.3794,-0.3801,-0.3858,-0.4029,-0.3712,-0.3337,0.0,0.0,0.0,0.0,0.0,0.0,0.0,0.0,0.0,0.0,0.0,0.0,0.0,0.0,0.0,0.0,0.0,0.0,0.0,0.0,0.0,0.0,0.0,0.0,0.0,0.0,0.0,0.0,-0.4397,-0.4883,-0.5556,0.0,0.0,0.0,0.0,0.0,0.0,0.0,0.0,0.0,0.0,-1.0241,-1.1013,-1.137,0.0,0.0,-1.1606,-1.1622,-1.1801,-1.137,-1.0956,-1.0794,-0.9908,0.0,0.0,0.0,0.0,0.0,0.0,0.0,0.0,0.0,0.0,0.0,0.0,0.0,0.0,0.0,0.0,0.0,0.0,0.0,0.0,0.0,0.0,0.0,0.0,0.0,0.0,0.0,0.0,0.0,0.0,0.0,0.0,0.0,0.0,0.0,0.0,0.0,0.0,0.0,0.0,0.0,0.0,0.0,0.0,0.0,0.0,0.0,0.0,0.0,0.0,0.0,0.0,-0.2628,-0.3026,-0.3072,-0.3186,-0.3456,-0.346,-0.3591,-0.3849,-0.352,-0.3192,0.0,0.0,0.0,0.0,0.0,0.0,0.0,0.0,0.0,0.0,0.0,0.0,0.0,0.0,0.0,0.0,0.0,0.0,0.0,0.0,0.0,0.0,0.0,0.0,0.0,0.0,0.0,0.0,-0.4823,-0.5114,-0.546,0.0,0.0,0.0,0.0,0.0,0.0,0.0,0.0,0.0,0.0,-1.0582,-1.1289,-1.1614,-1.1792,-1.1841,-1.1809,-1.1801,-1.1857,-1.1508,-1.1151,-1.0923,0.0,0.0,0.0,0.0,0.0,0.0,0.0,0.0,0.0,0.0,0.0,0.0,0.0,0.0,0.0,0.0,0.0,0.0,0.0,0.0,0.0,0.0,0.0,0.0,0.0,0.0,0.0,0.0,0.0,0.0,-0.1327,0.0,0.0,0.0,0.0,0.0,0.0,0.0,0.0,0.0,0.0,0.0,0.0,0.0,0.0,0.0,0.0,0.0,0.0,0.0,0.0,0.0,0.0,-0.3101,-0.3131,-0.3333,-0.341,-0.3218,-0.3224,-0.3222,-0.322,-0.3138,-0.2902,-0.2524,0.0,0.0,0.0,0.0,0.0,0.0,0.0,0.0,0.0,0.0,0.0,0.0,0.0,0.0,0.0,0.0,0.0,0.0,0.0,0.0,0.0,0.0,0.0,0.0,0.0,0.0,-0.4945,-0.5277,-0.5296,0.0,0.0,0.0,0.0,0.0,0.0,0.0,0.0,0.0,0.0,-1.0233,-1.094,-1.1654,-1.1768,-1.1833,-1.1987,-1.1882,-1.1719,-1.1557,-1.1354,-1.1102,0.0,0.0,0.0,0.0,0.0,0.0,0.0,0.0,0.0,0.0,0.0,0.0,0.0,0.0,0.0,0.0,0.0,0.0,0.0,0.0,0.0,0.0,0.0,0.0,0.0,0.0,0.0,-0.1796,-0.1905,0.0,0.0,0.0,0.0,0.0,0.0,0.0,0.0,0.0,0.0,0.0,-0.6096,-0.6144,0.0,0.0,0.0,0.0,0.0,0.0,0.0,0.0,0.0,0.0,0.0,0.0,-0.3369,-0.3349,-0.3476,-0.3544,-0.3627,-0.3631,-0.3698,-0.3902,-0.3633,-0.316,-0.246,0.0,0.0,0.0,0.0,0.0,0.0,0.0,0.0,0.0,0.0,0.0,0.0,0.0,0.0,0.0,0.0,0.0,0.0,0.0,0.0,0.0,0.0,0.0,0.0,0.0,-0.5227,0.0,0.0,0.0,0.0,0.0,0.0,0.0,0.0,0.0,0.0,0.0,-0.9044,-0.9902,-1.0579,-1.1224,-1.1711,-1.1837,-1.1801,0.0,0.0,0.0,0.0,0.0,0.0,0.0,0.0,0.0,0.0,0.0,0.0,0.0,0.0,-0.9551,-0.889,-0.8824,-0.8849,-0.8784,0.0,0.0,0.0,0.0,0.0,0.0,0.0,0.0,0.0,0.0,0.0,0.0,0.0,0.0,-0.2795,0.0,-0.295,0.0,0.0,0.0,0.0,0.0,0.0,0.0,0.0,-0.7121,-0.7392,-0.7636,-0.7642,-0.76,0.0,-0.7391,-0.6752,0.0,0.0,0.0,0.0,0.0,0.0,0.0,0.0,-0.4121,-0.4065,-0.4177,-0.4271,-0.4361,-0.437,-0.4437,-0.4638,-0.4312,-0.371,-0.2883,-0.2786,-0.2563,0.0,0.0,0.0,0.0,0.0,0.0,0.0,0.0,0.0,0.0,0.0,0.0,0.0,0.0,0.0,0.0,0.0,0.0,0.0,0.0,0.0,0.0,0.0,-0.593,0.0,0.0,0.0,0.0,0.0,0.0,0.0,0.0,0.0,-0.7804,-0.871,-0.9602,-1.0279,-1.0906,-1.1427,-1.1736,0.0,0.0,0.0,0.0,0.0,0.0,0.0,-1.1638,-1.1516,-1.1451,-1.1338,-1.111,-1.0875,-1.0761,-1.0883,0.0,0.0,-1.0071,-1.0016,-1.0006,-1.0057,-1.0006,-1.0006,-1.0006,-1.0095,-1.0217,0.0,0.0,0.0,0.0,0.0,0.0,0.0,0.0,-0.3912,-0.4145,0.0,-0.4496,0.0,0.0,0.0,0.0,0.0,-0.6653,0.0,0.0,-0.8264,-0.8594,-0.8838,-0.8844,-0.885,-0.8838,-0.857,-0.8432,-0.8351,-0.681,0.0,0.0,0.0,0.0,0.0,0.0,-0.5383,-0.5115,-0.5459,-0.5613,-0.5499,-0.5506,-0.5439,-0.5439,-0.5106,-0.4577,-0.3863,-0.3897,-0.3605,-0.2837,-0.288,0.0,0.0,0.0,0.0,0.0,0.0,0.0,0.0,0.0,0.0,0.0,0.0,0.0,0.0,0.0,0.0,0.0,0.0,0.0,0.0,-0.6796,0.0,0.0,0.0,0.0,0.0,0.0,0.0,0.0,0.0,0.0,-0.8474,-0.9352,-1.0147,-1.0666,0.0,0.0,0.0,0.0,-1.2036,-1.1974,-1.219,-1.2182,-1.1849,-1.1931,-1.1922,-1.1589,0.0,0.0,-1.1801,-1.1792,-1.1776,-1.1792,-1.1914,-1.1833,-1.1159,-1.1135,-1.1224,-1.1174,-1.1224,-1.1191,-1.1248,-1.1208,-1.1232,-0.5456,0.0,0.0,0.0,0.0,-0.4734,-0.501,-0.5149,-0.5524,-0.5927,-0.6315,-0.6228,0.0,0.0,0.0,0.0,0.0,0.0,-0.8497,-0.9267,-0.962,-0.9873,-0.9982,-1.0046,-1.0046,-0.9976,-0.9859,-0.9652,-0.9533,-0.8966,-0.8072,-0.6836,0.0,0.0,0.0,0.0,-0.684,-0.6736,-0.7058,-0.7117,-0.6911,-0.6911,-0.6911,-0.6911,-0.6556,-0.6167,-0.562,-0.5411,-0.4943,-0.4246,-0.4067,0.0,0.0,0.0,0.0,0.0,0.0,0.0,0.0,0.0,0.0,0.0,0.0,0.0,0.0,0.0,0.0,0.0,0.0,0.0,-0.7571,-0.7785,-0.7641,0.0,0.0,0.0,0.0,0.0,0.0,0.0,0.0,0.0,-0.9189,-0.9652,-1.0213,0.0,0.0,-1.164,-1.2063,-1.2199,-1.2223,-1.2223,-1.2272,0.0,-1.2174,-1.2199,-1.219,-1.2093,-1.2117,-1.219,-1.2384,-1.2239,-1.219,-1.2312,-1.2377,-1.2377,-1.232,-1.2125,-1.2004,-1.1996,-1.1996,-1.1996,-1.1996,-1.1996,-1.1996,-0.7611,-0.6574,-0.6349,-0.6144,-0.6093,-0.6373,-0.6652,-0.6759,-0.7175,-0.7491,-0.7729,-0.7754,-0.777,-0.7689,-0.7753,0.0,0.0,0.0,-0.9426,-1.0012,-1.0249,-1.0446,-1.0575,-1.0582,-1.0582,-1.0575,-1.0493,-1.0405,-1.0247,-1.0161,-0.9573,-0.854,0.0,0.0,-0.7549,-0.7889,-0.8048,-0.8044,-0.8353,-0.847,-0.8384,-0.8384,-0.8318,-0.8112,-0.7917,-0.7616,-0.7087,-0.6927,-0.6556,-0.5803,-0.5565,-0.5164,0.0,0.0,0.0,0.0,0.0,0.0,0.0,0.0,0.0,0.0,0.0,-0.3504,-0.4213,0.0,0.0,0.0,-0.6891,-0.7729,-0.8348,-0.8428,0.0,0.0,0.0,0.0,0.0,0.0,0.0,-0.8292,-0.8757,-0.9205,-0.9713,-0.9935,-1.0322,-1.1106,-1.1455,-1.1807,-1.2225,0.0,-1.241,-1.241,-1.2467,-1.2491,-1.2418,-1.2467,-1.2515,-1.2523,-1.2515,-1.2548,-1.2645,-1.258,-1.2556,-1.2645,-1.267,-1.271,-1.275,-1.2661,-1.2515,-1.2515,-1.2515,-1.2515,-1.2515,-1.2515,-1.2515,-0.941,-0.9367,-0.8443,-0.8005,-0.8042,-0.8111,-0.8161,-0.8346,-0.8718,-0.8834,-0.8785,-0.9087,-0.9118,-0.8935,-0.9045,0.0,-0.9686,-0.9815,-1.0032,-1.0317,-1.0446,-1.0582,-1.0717,-1.0717,-1.0717,-1.0717,-1.0717,-1.0717,-1.0704,-1.0575,-1.0439,-1.0276,-0.9476,-0.8807,-0.8449,-0.8825,-0.8985,-0.9007,-0.9391,-0.9658,-0.9794,-0.9794,-0.9588,-0.925,-0.9172,-0.8834,-0.8225,-0.8383,-0.8205,-0.7434,-0.711,-0.6704,-0.6115,0.0,0.0,0.0,0.0,0.0,0.0,0.0,0.0,0.0,0.0,0.0,0.0,0.0,0.0,0.0,-0.8273,0.0,-0.8939,-0.8859,0.0,0.0,0.0,-0.7868,-0.7753,-0.8357,-0.8845,-0.8952,0.0,0.0,-1.0017,-1.0229,-1.0579,-1.1239,-1.1606,-1.1909,-1.2306,-1.2532,-1.2694,-1.2718,-1.2775,-1.2816,-1.2694,-1.2783,-1.2815,-1.2881,-1.2815,-1.2815,-1.2889,-1.2889,-1.2815,-1.2889,-1.2815,-1.2889,-1.2881,-1.2889,-1.2881,-1.2881,-1.2848,-1.2758,-1.2742,-1.2742,-1.2734,-1.0346,-1.034,-1.0136,-0.9589,-0.8998,-0.906,-0.9331,-0.9561,-0.9764,-1.0005,-1.0221,-1.0174,-1.0099,-0.9933,-0.9955,-1.0085,-1.0283,-1.0317,-1.0432,-1.0616,-1.0649,-1.0683,-1.0717,-1.0717,-1.0717,-1.0717,-1.0717,-1.0717,-1.0717,-1.0683,-1.0588,-1.0439,-1.0229,-0.9876,-0.9459,-0.966,-0.9799,-0.9986,-1.0192,-1.0306,-1.0452,-1.0459,-1.0386,-1.0319,-0.9946,-0.9692,-0.9561,-0.9174,-0.8788,-0.8278,-0.8077,-0.7668,-0.6942,-0.6454,0.0,0.0,0.0,0.0,0.0,0.0,0.0,0.0,0.0,-0.5219,-0.5953,0.0,-0.7285,0.0,-0.8756,-0.932,-0.9435,-0.9313,0.0,0.0,-0.8886,-0.8866,-0.8954,-0.9218,-0.9496,-0.9694,-0.9849,-1.0141,-1.0449,-1.0595,-1.0829,-1.1514,-1.1755,-1.1972,-1.2492,-1.2925,-1.3249,-1.3165,-1.3197,-1.323,-1.3241,-1.3214,-1.3238,-1.3246,-1.3238,-1.3246,-1.3246,-1.3246,-1.3246,-1.3246,-1.3246,-1.3246,-1.323,-1.3246,-1.3238,-1.3222,-1.3027,-1.2766,-1.2766,-1.2774,-1.2774,-1.0717,-1.0717,-1.0717,-1.0359,-0.9954,-0.9973,-1.0136,-1.034,-1.0419,-1.0518,-1.0711,-1.0629,-1.0548,-1.048,-1.048,-1.0521,-1.0595,-1.0595,-1.0636,-1.0717,-1.0717,-1.0717,-1.0717,-1.0717,-1.0717,-1.0717,-1.0717,-1.0717,-1.0717,-1.0717,-1.0677,-1.0595,-1.0595,-1.0432,-1.0134,-1.0141,-1.0195,-1.0283,-1.0487,-1.0636,-1.0717,-1.0717,-1.069,-1.0616,-1.0285,-1.0108,-0.9978,-0.9645,-0.9343,-0.9082,-0.883,-0.8449,-0.7927,-0.7404,-0.6798,0.0,0.0,0.0,0.0,0.0,0.0,0.0,0.0,0.0,0.0,0.0,-0.8053,-0.8719,-0.9289,-0.9639,-0.9788,-0.9727,-0.9618,-0.9469,-0.951,-0.9585,-0.9673,-0.993,-1.0168,-1.0267,-1.046,-1.0636,-1.088,-1.0921,-1.1043,-1.142,-1.1693,-1.1976,-1.2399,-1.2825,-1.3093,-1.3162,-1.3299,-1.3368,-1.3368,-1.3368,-1.3368,-1.3368,-1.3368,-1.3368,-1.3368,-1.3368,-1.3368,-1.3368,-1.3368,-1.3368,-1.3368,-1.3368,-1.3368,-1.3344,-1.3222,-1.3092,-1.3076,-1.3076,-1.3076,-1.0717,-1.0717,-1.0717,-1.0717,-1.0717,-1.0717,-1.0717,-1.0717,-1.0717,-1.0717,-1.0717,-1.0717,-1.0717,-1.0717,-1.0717,-1.0717,-1.0717,-1.0717,-1.0717,-1.0717,-1.0717,-1.0717,-1.0717,-1.0717,-1.0717,-1.0717,-1.0717,-1.0717,-1.0717,-1.0717,-1.0717,-1.0717,-1.0717,-1.0643,-1.0493,-1.0365,-1.031,-1.031,-1.0582,-1.0717,-1.0717,-1.0717,-1.0643,-1.05,-1.0358,-1.0202,-0.9963,-0.9815,-0.9795,-0.9727,-0.9367,-0.9065,-0.8882,-0.8266,-0.759,0.0,-0.6713,0.0,0.0,0.0,0.0,0.0,0.0,0.0,0.0,-0.8164,-0.869,-0.9639,-0.9808,-0.993,-1.0066,-1.0017,-0.9977,-0.9951,-0.999,-1.0085,-1.0139,-1.0541,-1.0778,-1.0778,-1.1002,-1.1165,-1.1248,-1.1192,-1.1192,-1.1316,-1.1783,-1.21,-1.2256,-1.2635,-1.2974,-1.295,-1.3226,-1.3482,-1.3474,-1.3457,-1.3457,-1.3449,-1.3465,-1.3441,-1.3457,-1.3457,-1.3449,-1.3449,-1.3465,-1.3457,-1.3441,-1.3449,-1.3449,-1.3465,-1.3449,-1.3417,-1.336,-1.3336,-1.3368,-1.0717,-1.0717,-1.0717,-1.0717,-1.0717,-1.0982,-1.0982,-1.0717,-1.0717,-1.0717,-1.0717,-1.0717,-1.0717,-1.0717,-1.0717,-1.0717,-1.0717,-1.0717,-1.0717,-1.0717,-1.0717,-1.0717,-1.0717,-1.0717,-1.0717,-1.0717,-1.0717,-1.0717,-1.0717,-1.0717,-1.0717,-1.0717,-1.0717,-1.0643,-1.05,0.0,0.0,0.0,-1.0629,-1.0717,-1.0717,-1.0717,-1.0649,-1.05,-1.0358,0.0,-0.9876,-0.9727,-0.9652,-0.9646,-0.9566,0.0,0.0,0.0,0.0,0.0,0.0,0.0,0.0,0.0,0.0,0.0,-0.873,-0.879,-0.8682,-0.9258,-0.9802,-1.0127,-1.0181,-1.0209,-1.0236,-1.0236,-1.0324,-1.0521,-1.0575,-1.0683,-1.0921,-1.1029,-1.1077,-1.1084,-1.12,-1.1212,-1.1335,-1.1348,-1.1402,-1.1596,-1.2021,-1.2388,-1.2431,-1.2881,-1.331,-1.3586,-1.3728,-1.3798,-1.3798,-1.3798,-1.3782,-1.3798,-1.3798,-1.379,-1.3782,-1.3782,-1.379,-1.379,-1.3798,-1.379,-1.379,-1.3798,-1.3774,-1.3798,-1.379,-1.3709,-1.3433,-1.3376,-1.3368,-1.0717,0.0,-1.085,-1.0916,0.0,-1.1392,-1.1495,-1.1354,-1.1283,-1.1247,-1.1247,-1.1254,-1.1247,-1.1254,-1.1247,-1.1231,-1.1101,-1.1101,-1.1001,-1.0934,-1.0941,-1.0941,-1.0941,-1.0934,-1.0941,-1.0941,-1.0941,-1.0941,-1.0941,-1.0934,-1.0941,-1.0934,-1.0941,-1.09,-1.0826,-1.0826,-1.0717,-1.0493,-1.0643,-1.0717,-1.0717,-1.0717,-1.0649,-1.0493,-1.0351,0.0,0.0,0.0,0.0,0.0,0.0,0.0,0.0,-0.9564,0.0,-0.9055,-0.8899,-0.879,-0.892,-0.8988,-0.9225,-0.9673,-0.9985,-0.9964,-0.9465,-0.9903,-1.0222,-1.0371,-1.0453,-1.0527,-1.0602,-1.067,-1.0772,-1.0914,-1.0934,-1.1002,-1.1207,-1.1233,-1.1274,-1.1294,-1.1402,-1.1525,-1.1599,-1.1681,-1.1821,-1.2115,-1.2412,-1.2757,-1.3118,-1.3417,-1.3728,-1.4091,-1.4164,-1.4164,-1.4156,-1.4083,-1.4034,-1.4034,-1.3961,-1.3912,-1.3904,-1.3904,-1.3904,-1.3904,-1.3904,-1.3904,-1.3904,-1.3904,-1.3904,-1.3904,-1.3904,-1.3855,-1.366,-1.3636,-1.3628,-1.0999,-1.0999,-1.1266,-1.1399,-1.1407,-1.1933,-1.2195,-1.2255,0.0,0.0,0.0,-1.1866,-1.1866,-1.1866,-1.1866,-1.1739,-1.1532,-1.1532,-1.1391,-1.1227,-1.1234,-1.1234,-1.1234,-1.1234,-1.1234,-1.1234,-1.1234,-1.1234,-1.1234,-1.1234,-1.1234,-1.1234,-1.1234,-1.1234,-1.1234,-1.1234,-1.0982,-1.0636,-1.0738,-1.0799,-1.0799,-1.0799,-1.0731,-1.0575,-1.046,-1.0317,-1.0134,-0.9923,-0.9903,-0.9897,-0.9876,-0.9883,-0.9937,-0.9937,-0.9897,-0.9815,-0.9802,-0.9869,-1.0012,-1.0019,-1.0188,-1.0582,-1.0839,-1.0698,-1.0179,-1.0351,-1.0487,-1.0602,-1.0724,-1.0853,-1.0975,-1.109,-1.1241,-1.1199,-1.1206,-1.1289,-1.128,-1.1389,-1.1484,-1.1525,-1.1721,-1.187,-1.187,-1.1965,-1.221,-1.2582,-1.2746,-1.3162,-1.3842,-1.4011,-1.4096,-1.4326,-1.4383,-1.4416,-1.4408,-1.4318,-1.4221,-1.4164,-1.4042,-1.3945,-1.3912,-1.3904,-1.3904,-1.3904,-1.3904,-1.3904,-1.3904,-1.3904,-1.3904,-1.3904,-1.3904,-1.3904,-1.3904,-1.3896,-1.3888,-1.2057,-1.2057,-1.2125,-1.2125,-1.2201,-1.2566,-1.2917,-1.3122,-1.2483,-1.2201,-1.227,-1.2201,-1.2201,-1.2201,-1.2194,-1.2003,-1.1682,-1.1682,-1.1489,-1.1234,-1.1234,-1.1234,-1.1234,-1.1234,-1.1234,-1.1234,-1.1234,-1.1234,-1.1234,-1.1165,-1.1234,-1.1234,-1.1234,-1.1234,-1.1234,-1.1234,-1.12,-1.1139,-1.109,-1.1166,-1.1173,-1.1104,-1.1029,-1.0894,-1.0793,-1.0717,-1.0439,-1.0297,-1.0215,-1.0215,-1.0086,-1.0065,-1.0378,-1.0399,-1.0446,-1.0555,-1.0568,-1.0629,-1.0712,-1.0718,-1.0873,-1.1043,-1.1104,-1.1043,-1.0779,-1.0955,-1.1118,-1.107,-1.1077,-1.1104,-1.12,-1.1165,-1.124,-1.1341,-1.1362,-1.1457,-1.1687,-1.1742,-1.1803,-1.1918,-1.1999,-1.2026,-1.2033,-1.206,-1.2237,-1.2685,-1.3161,-1.3725,-1.4478,-1.4552,-1.4382,-1.4358,-1.4432,-1.4432,-1.4464,-1.4424,-1.4351,-1.4196,-1.4164,-1.4091,-1.3969,-1.3945,-1.3945,-1.3912,-1.3937,-1.3928,-1.392,-1.3904,-1.3912,-1.3912,-1.3904,-1.3904,-1.3904,-1.3904,-1.3904,-1.2268,-1.2337,-1.2475,-1.2544,-1.262,-1.3058,-1.3432,-1.366,-1.331,-1.306,-1.2895,-1.2887,-1.2887,-1.2887,-1.2887,-1.2735,-1.2472,-1.2263,-1.1958,-1.1762,-1.155,-1.1409,-1.1409,-1.1409,-1.1409,-1.1409,-1.1409,-1.1409,-1.1409,-1.1409,-1.1409,-1.1409,-1.1409,-1.1409,-1.1409,-1.1409,-1.1409,-1.1409,-1.1246,-1.1234,-1.1234,-1.1234,-1.1131,-1.1063,-1.1063,-1.1002,-1.086,-1.0792,-1.0758,-1.0758,-1.069,-1.0717,-1.0846,-1.0853,-1.0887,-1.0955,-1.0962,-1.1029,-1.1179,-1.1267,-1.1341,-1.1409,-1.1409,-1.1389,-1.1321,-1.1219,-1.1234,-1.1234,-1.1233,-1.1287,-1.1294,-1.143,-1.1558,-1.1619,-1.1701,-1.1809,-1.1925,-1.1952,-1.1986,-1.2128,-1.2135,-1.2182,-1.2182,-1.225,-1.245,-1.292,-1.3511,-1.4275,-1.4875,-1.4838,-1.4716,-1.4716,-1.4724,-1.4724,-1.4708,-1.4635,-1.4554,-1.4473,-1.4375,-1.4294,-1.4196,-1.4188,-1.418,-1.4188,-1.4188,-1.4148,-1.4075,-1.405,-1.401,-1.3912,-1.3904,-1.3904,-1.3904,-1.3904,-1.3904,-1.265,-1.2658,-1.2936,-1.3074,-1.3082,-1.3504,-1.3782,-1.3904,-1.3937,-1.3807,-1.3571,-1.3514,-1.349,-1.349,-1.349,-1.3354,-1.313,-1.2894,-1.2629,-1.2381,-1.2135,-1.1918,-1.1811,-1.1811,-1.1725,-1.1619,-1.1619,-1.1619,-1.1619,-1.1619,-1.1619,-1.1619,-1.1619,-1.1619,-1.1619,-1.1619,-1.1619,-1.1606,-1.1382,-1.1267,-1.1267,-1.1267,-1.1267,-1.1267,-1.1267,-1.1267,-1.126,-1.1233,-1.1212,-1.1282,-1.1185,-1.1179,-1.1212,-1.1282,-1.1233,-1.126,-1.1267,-1.1314,-1.1436,-1.1552,-1.1633,-1.1667,-1.1667,-1.1681,-1.1694,-1.1504,-1.1348,-1.1335,-1.1436,-1.1511,-1.1565,-1.1735,-1.1884,-1.1891,-1.1986,-1.206,-1.2101,-1.2115,-1.2128,-1.2162,-1.2264,-1.2338,-1.2359,-1.2433,-1.2635,-1.3098,-1.3821,-1.4515,-1.4814,-1.4891,-1.5045,-1.5045,-1.5045,-1.5028,-1.496,-1.4854,-1.4757,-1.4724,-1.4586,-1.4481,-1.4432,-1.4416,-1.4424,-1.4408,-1.4416,-1.4359,-1.4261,-1.4237,-1.418,-1.4083,-1.4058,-1.4042,-1.405,-1.405,-1.401,-1.3776,-1.3784,-1.3776,-1.3784,-1.3784,-1.3872,-1.3896,-1.3937,-1.4075,-1.414,-1.4075,-1.3928,-1.3855,-1.3855,-1.3847,-1.365,-1.3325,-1.3401,-1.326,-1.2999,-1.3067,-1.2912,-1.2408,-1.2401,-1.2112,-1.1647,-1.1633,-1.1647,-1.1647,-1.1626,-1.1619,-1.1619,-1.1619,-1.1619,-1.1619,-1.1619,-1.1619,-1.1619,-1.1592,-1.1579,-1.1579,-1.1579,-1.1579,-1.1579,-1.1572,-1.1579,-1.1552,-1.1443,-1.1369,-1.1362,-1.124,-1.1233,-1.1348,-1.1369,-1.143,-1.1558,-1.1572,-1.1586,-1.1599,-1.1613,-1.1681,-1.1723,-1.1809,-1.1864,-1.1993,-1.1979,-1.1911,-1.1803,-1.1775,-1.183,-1.1979,-1.2026,-1.204,-1.204,-1.2067,-1.2115,-1.2244,-1.2271,-1.2318,-1.2454,-1.2461,-1.2481,-1.2488,-1.2522,-1.2677,-1.3092,-1.3781,-1.4315,-1.4538,-1.4745,-1.4968,-1.4968,-1.5045,-1.5045,-1.496,-1.5037,-1.4871,-1.4749,-1.47,-1.4627,-1.4546,-1.4481,-1.444,-1.4538,-1.4481,-1.4464,-1.4432,-1.4408,-1.4399,-1.4326,-1.4318,-1.4359,-1.4375,-1.4351,-1.4294,-1.4685,-1.4779,-1.4779,-1.4847,-1.4933,-1.4731,-1.4585,-1.4594,-1.4449,-1.4326,-1.4318,-1.4245,-1.4213,-1.4213,-1.4213,-1.4067,-1.3929,-1.3853,-1.3738,-1.3517,-1.3378,-1.3148,-1.3015,-1.2712,-1.2448,-1.2251,-1.2031,-1.1884,-1.1864,-1.1789,-1.1742,-1.1735,-1.166,-1.1619,-1.1619,-1.1619,-1.1619,-1.1619,-1.1619,-1.1619,-1.1619,-1.1619,-1.1619,-1.1619,-1.1619,-1.1619,-1.1613,-1.1558,-1.1525,-1.1525,-1.1463,-1.1463,-1.1525,-1.1525,-1.1552,-1.1619,-1.1694,-1.1742,-1.1748,-1.183,-1.1904,-1.1965,-1.1965,-1.1999,-1.2054,-1.206,-1.2067,-1.2094,-1.202,-1.1999,-1.2142,-1.2142,-1.2196,-1.221,-1.2271,-1.2345,-1.2406,-1.242,-1.244,-1.2501,-1.2583,-1.2637,-1.2651,-1.2718,-1.3003,-1.3304,-1.3647,-1.3893,-1.4423,-1.4578,-1.4745,-1.4968,-1.5045,-1.5045,-1.5045,-1.5045,-1.4927,-1.4887,-1.4862,-1.4814,-1.4765,-1.4749,-1.4749,-1.4741,-1.4724,-1.4676,-1.4611,-1.4586,-1.4578,-1.4513,-1.444,-1.4432,-1.4432,-1.4432,-1.4424,-1.593,-1.6122,-1.6058,-1.6068,-1.6122,-1.5615,-1.5402,-1.5337,-1.4852,-1.4654,-1.4662,-1.4554,-1.4578,-1.457,-1.4481,-1.4432,-1.4366,-1.4183,-1.4133,-1.4141,-1.3889,-1.3664,-1.3476,-1.3245,-1.2924,-1.2664,-1.2426,-1.221,-1.2121,-1.1959,-1.1891,-1.1877,-1.1789,-1.1742,-1.1742,-1.1742,-1.1742,-1.1742,-1.1742,-1.1742,-1.1748,-1.1742,-1.1701,-1.1633,-1.1619,-1.1619,-1.1619,-1.1619,-1.1619,-1.1619,-1.1653,-1.1674,-1.1681,-1.1714,-1.1742,-1.1748,-1.1837,-1.1898,-1.1898,-1.1999,-1.2081,-1.2121,-1.2121,-1.2142,-1.2176,-1.2182,-1.223,-1.2318,-1.225,-1.2189,-1.2196,-1.2284,-1.2359,-1.2406,-1.2508,-1.2576,-1.2623,-1.263,-1.2637,-1.2637,-1.2739,-1.2793,-1.2807,-1.2881,-1.3095,-1.3314,-1.3403,-1.3576,-1.4342,-1.447,-1.4593,-1.4964,-1.5009,-1.5045,-1.5045,-1.5045,-1.5045,-1.5045,-1.5028,-1.5028,-1.5045,-1.4968,-1.496,-1.4862,-1.502,-1.5012,-1.4814,-1.4765,-1.4749,-1.4635,-1.4578,-1.4578,-1.4627,-1.4586,-1.4635,-1.7945,-1.7945,-1.757,-1.7453,-1.737,-1.6664,-1.6296,-1.6268,-1.5584,-1.5286,-1.5236,-1.5083,-1.5012,-1.4971,-1.4677,-1.444,-1.4464,-1.4544,-1.4625,-1.4633,-1.477,-1.4618,-1.4096,-1.4013,-1.3559,-1.2863,-1.2707,-1.2468,-1.2155,-1.206,-1.2054,-1.2121,-1.2026,-1.2026,-1.202,-1.2013,-1.2033,-1.2006,-1.2006,-1.2026,-1.2026,-1.2033,-1.1891,-1.1674,-1.1626,-1.164,-1.1633,-1.1626,-1.1626,-1.1626,-1.1755,-1.1823,-1.183,-1.1959,-1.202,-1.2026,-1.2115,-1.2054,-1.2054,-1.2074,-1.2142,-1.225,-1.2277,-1.2332,-1.2427,-1.244,-1.2454,-1.2488,-1.2474,-1.2467,-1.2481,-1.2488,-1.2556,-1.2678,-1.2712,-1.2779,-1.2908,-1.2888,-1.2935,-1.2922,-1.2929,-1.2963,-1.2956,-1.2956,-1.3077,-1.315,-1.3356,-1.3735,-1.4191,-1.4474,-1.4688,-1.5023,-1.509,-1.5045,-1.5045,-1.5045,-1.5045,-1.5045,-1.5045,-1.5045,-1.5045,-1.5045,-1.5045,-1.5045,-1.5045,-1.5045,-1.496,-1.4944,-1.4927,-1.4879,-1.4862,-1.4862,-1.4806,-1.4979,-1.4996,-1.9646,-1.9801,-1.9722,-1.9564,-1.9276,-1.853,-1.8006,-1.7641,-1.666,-1.6241,-1.6174,-1.5939,-1.5744,-1.5735,-1.5371,-1.5,-1.4781,-1.4846,-1.4871,-1.4879,-1.4935,-1.4859,-1.4649,-1.442,-1.4167,-1.3733,-1.3261,-1.2727,-1.2408,-1.2257,-1.221,-1.2189,-1.2183,-1.206,-1.206,-1.206,-1.206,-1.206,-1.206,-1.206,-1.2142,-1.206,-1.2006,-1.1918,-1.1904,-1.1904,-1.1904,-1.1904,-1.1904,-1.1904,-1.1952,-1.1979,-1.1986,-1.2026,-1.206,-1.2067,-1.2155,-1.221,-1.2216,-1.2298,-1.2359,-1.2413,-1.2427,-1.2447,-1.2488,-1.2501,-1.2535,-1.2617,-1.2651,-1.2684,-1.2752,-1.2712,-1.2712,-1.284,-1.2881,-1.2901,-1.3022,-1.3043,-1.3043,-1.2976,-1.3037,-1.3132,-1.3207,-1.3241,-1.3241,-1.3234,-1.3322,-1.3665,-1.4202,-1.4411,-1.4584,-1.5033,-1.5187,-1.5098,-1.5045,-1.5045,-1.5045,-1.5045,-1.5045,-1.5045,-1.5045,-1.5045,-1.5045,-1.5045,-1.5045,-1.5045,-1.5037,-1.5037,-1.5045,-1.5045,-1.5045,-1.5045,-1.5045,-1.5045,-1.5045,-2.1434,-2.1526,-2.1554,-2.1412,-2.1112,-2.0349,-1.9747,-1.9294,-1.8234,-1.7711,-1.7483,-1.7035,-1.6815,-1.6662,-1.6195,-1.5965,-1.5727,-1.542,-1.5275,-1.5352,-1.5352,-1.5429,-1.5352,-1.513,-1.4907,-1.4669,-1.3744,-1.312,-1.2726,-1.2483,-1.2359,-1.2352,-1.225,-1.2278,-1.2354,-1.2429,-1.2505,-1.258,-1.2505,-1.2436,-1.2429,-1.2278,-1.2203,-1.2203,-1.2203,-1.2155,-1.2067,-1.206,-1.206,-1.2067,-1.2108,-1.2155,-1.2196,-1.2203,-1.2203,-1.2216,-1.2298,-1.2359,-1.2366,-1.2447,-1.2501,-1.2508,-1.2549,-1.2576,-1.2576,-1.2617,-1.2705,-1.2779,-1.2807,-1.2868,-1.2969,-1.2935,-1.2915,-1.301,-1.303,-1.3051,-1.3098,-1.3105,-1.3112,-1.3132,-1.3193,-1.3295,-1.3376,-1.339,-1.339,-1.3397,-1.3391,-1.3828,-1.4371,-1.4577,-1.4681,-1.5272,-1.5366,-1.5252,-1.5139,-1.509,-1.5017,-1.5,-1.5045,-1.5045,-1.5045,-1.5045,-1.5045,-1.5045,-1.5045,-1.5045,-1.5045,-1.5045,-1.5045,-1.5045,-1.5045,-1.5045,-1.5045,-1.5045,-1.5045,-2.3351,-2.3277,-2.2992,-2.2769,-2.262,-2.1861,-2.14,-2.0876,-2.0113,-1.952,-1.9143,-1.8395,-1.8101,-1.7864,-1.734,-1.7102,-1.7178,-1.6415,-1.6118,-1.628,-1.628,-1.628,-1.628,-1.628,-1.605,-1.5582,-1.4353,-1.3583,-1.3197,-1.2874,-1.2713,-1.2565,-1.2706,-1.2909,-1.3105,-1.3223,-1.3322,-1.3546,-1.33,-1.3084,-1.3042,-1.2699,-1.2461,-1.2467,-1.2467,-1.2352,-1.2094,-1.2088,-1.2101,-1.2108,-1.2216,-1.2352,-1.2447,-1.2467,-1.2481,-1.2461,-1.2488,-1.2494,-1.2494,-1.2508,-1.2528,-1.2549,-1.2644,-1.2732,-1.2745,-1.284,-1.2929,-1.2956,-1.2963,-1.3024,-1.3139,-1.3159,-1.3159,-1.3173,-1.3173,-1.3227,-1.3329,-1.3383,-1.339,-1.337,-1.337,-1.339,-1.3397,-1.3397,-1.3397,-1.348,-1.3714,-1.4113,-1.4586,-1.4891,-1.5221,-1.5554,-1.5601,-1.5447,-1.5333,-1.515,-1.5122,-1.5033,-1.4992,-1.5045,-1.5045,-1.5045,-1.5045,-1.5045,-1.5045,-1.5045,-1.5045,-1.5045,-1.5045,-1.5045,-1.5045,-1.5045,-1.5045,-1.5045,-1.5045,-2.4267,-2.4193,-2.4119,-2.3883,-2.3587,-2.3067,-2.262,-2.216,-2.14,-2.0951,-2.08,-2.0274,-1.9908,-1.9606,-1.9067,-1.8916,-1.9002,-1.8613,-1.8158,-1.7578,-1.7502,-1.7645,-1.7797,-1.7873,-1.7483,-1.6797,-1.588,-1.5037,-1.443,-1.396,-1.3806,-1.3806,-1.3806,-1.4037,-1.4353,-1.443,-1.4507,-1.4507,-1.4191,-1.3891,-1.3505,-1.312,-1.2811,-1.2579,-1.2501,-1.2454,-1.2372,-1.2366,-1.2366,-1.2359,-1.2406,-1.2454,-1.2494,-1.2501,-1.2501,-1.2501,-1.2501,-1.2501,-1.2515,-1.2603,-1.2657,-1.2684,-1.28,-1.2881,-1.2888,-1.2935,-1.3017,-1.3166,-1.3112,-1.3166,-1.3295,-1.3329,-1.3322,-1.3329,-1.3329,-1.3336,-1.3383,-1.3397,-1.3397,-1.3397,-1.3397,-1.3397,-1.3397,-1.3397,-1.3397,-1.348,-1.3818,-1.4225,-1.4623,-1.508,-1.5404,-1.5715,-1.5699,-1.5634,-1.5496,-1.5374,-1.5277,-1.5139,-1.5049,-1.5053,-1.5045,-1.5045,-1.5045,-1.5045,-1.5045,-1.5045,-1.5045,-1.5045,-1.5045,-1.5045,-1.5045,-1.5045,-1.5045,-1.5045,-1.5045,-2.4636,-2.4636,-2.4636,-2.4488,-2.4193,-2.397,-2.36,-2.3215,-2.2682,-2.2384,-2.2235,-2.1861,-2.1562,-2.1187,-2.0725,-2.0631,-2.0796,-2.0709,-2.045,-1.9983,-1.9461,-1.943,-1.9637,-1.9552,-1.9067,-1.8309,-1.7474,-1.6712,-1.588,-1.5344,-1.5037,-1.5037,-1.5037,-1.5267,-1.5659,-1.5659,-1.5727,-1.5803,-1.5335,-1.4883,-1.4353,-1.3891,-1.3351,-1.3042,-1.2811,-1.2733,-1.2733,-1.2579,-1.2501,-1.2501,-1.2501,-1.2501,-1.2501,-1.2501,-1.2528,-1.2576,-1.2589,-1.261,-1.2671,-1.2766,-1.282,-1.284,-1.2956,-1.3037,-1.3051,-1.3078,-1.3173,-1.3234,-1.3261,-1.3295,-1.3376,-1.3397,-1.3397,-1.3397,-1.3397,-1.3397,-1.3397,-1.3397,-1.3397,-1.3397,-1.3397,-1.3397,-1.3397,-1.3397,-1.3486,-1.3652,-1.4066,-1.448,-1.4886,-1.5381,-1.5623,-1.582,-1.5804,-1.578,-1.5634,-1.5528,-1.5431,-1.5277,-1.513,-1.5033,-1.5045,-1.5045,-1.5045,-1.5045,-1.5045,-1.5045,-1.5045,-1.5045,-1.5045,-1.5045,-1.5045,-1.5045,-1.5045,-1.5045,-1.5045,-2.4636,-2.4636,-2.4636,-2.4562,-2.4562,-2.4562,-2.4341,-2.4044,-2.3957,-2.3735,-2.3364,-2.3067,-2.2868,-2.2719,-2.2145,-2.2202,-2.2633,-2.2429,-2.2713,-2.2988,-2.2431,-2.1842,-2.1585,-2.1215,-2.0661,-1.9962,-1.9208,-1.8375,-1.7626,-1.694,-1.6415,-1.6483,-1.6483,-1.6568,-1.7026,-1.7035,-1.7178,-1.7331,-1.6721,-1.6186,-1.5735,-1.496,-1.4345,-1.3891,-1.3505,-1.3274,-1.312,-1.2733,-1.2501,-1.2501,-1.2501,-1.2508,-1.2515,-1.2515,-1.2589,-1.2725,-1.2739,-1.2807,-1.2915,-1.2956,-1.2969,-1.2983,-1.3098,-1.3186,-1.32,-1.3281,-1.3349,-1.337,-1.3376,-1.339,-1.3397,-1.3397,-1.3397,-1.3397,-1.3397,-1.3397,-1.3397,-1.3397,-1.3397,-1.3397,-1.3397,-1.3397,-1.3397,-1.3403,-1.3652,-1.3983,-1.439,-1.4886,-1.5216,-1.5546,-1.5883,-1.5942,-1.5909,-1.5934,-1.5788,-1.5675,-1.5585,-1.5488,-1.5317,-1.5171,-1.5025,-1.5,-1.5045,-1.5045,-1.5045,-1.5045,-1.5045,-1.5045,-1.5045,-1.5045,-1.5045,-1.5045,-1.5045,-1.5045,-1.5045,-2.4636,-2.4636,-2.4636,-2.4636,-2.4636,-2.4636,-2.4562,-2.4414,-2.4414,-2.4341,-2.4267,-2.4193,-2.4087,-2.4044,-2.3819,-2.382,-2.3883,-2.4087,-2.4393,-2.4856,-2.4998,-2.4137,-2.3265,-2.2605,-2.2247,-2.1861,-2.1101,-2.0414,-1.9606,-1.8991,-1.8603,-1.8385,-1.8385,-1.8537,-1.8926,-1.8926,-1.886,-1.8699,-1.8243,-1.7635,-1.695,-1.6415,-1.5803,-1.5113,-1.4729,-1.4199,-1.3583,-1.2888,-1.2501,-1.2501,-1.2501,-1.2562,-1.2657,-1.2671,-1.2739,-1.2868,-1.2901,-1.2915,-1.2976,-1.3064,-1.3112,-1.3132,-1.3247,-1.3336,-1.3342,-1.3376,-1.3397,-1.3397,-1.3397,-1.3397,-1.3397,-1.3397,-1.3397,-1.3397,-1.3397,-1.3397,-1.3397,-1.3397,-1.3397,-1.3397,-1.3397,-1.3397,-1.3486,-1.3652,-1.3901,-1.4232,-1.4728,-1.5216,-1.5463,-1.5711,-1.5966,-1.5966,-1.5942,-1.5933,-1.5951,-1.5837,-1.574,-1.5691,-1.5545,-1.5366,-1.5204,-1.5074,-1.5017,-1.5045,-1.5045,-1.5045,-1.5045,-1.5045,-1.5045,-1.5045,-1.5045,-1.5045,-1.5045,-1.5045,-1.5045,-2.4636,-2.4636,-2.4636,-2.4636,-2.4636,-2.4636,-2.4636,-2.4636,-2.4636,-2.4636,-2.4663,-2.477,-2.4767,-2.4776,-2.4819,-2.4953,-2.5048,-2.5229,-2.5555,-2.574,-2.571,-2.5251,-2.4529,-2.3892,-2.3451,-2.3215,-2.2682,-2.1936,-2.1187,-2.0737,-2.036,-2.0059,-1.9984,-2.0145,-2.0296,-2.0296,-2.0232,-1.9919,-1.9542,-1.9002,-1.8471,-1.8016,-1.7407,-1.6712,-1.6186,-1.5497,-1.4361,-1.3726,-1.3219,-1.2752,-1.261,-1.2664,-1.2807,-1.2827,-1.2895,-1.303,-1.3051,-1.3071,-1.3146,-1.3227,-1.3268,-1.3281,-1.3363,-1.339,-1.3397,-1.3397,-1.3397,-1.3397,-1.3397,-1.3397,-1.3397,-1.3397,-1.3397,-1.3397,-1.3397,-1.3397,-1.3397,-1.3397,-1.3397,-1.3397,-1.3397,-1.3397,-1.3397,-1.3818,-1.4149,-1.439,-1.4968,-1.5381,-1.5628,-1.5883,-1.5966,-1.5966,-1.5966,-1.595,-1.595,-1.5934,-1.5894,-1.5837,-1.574,-1.5561,-1.5407,-1.5228,-1.5139,-1.5082,-1.5017,-1.5053,-1.5069,-1.4984,-1.5045,-1.5045,-1.5045,-1.5045,-1.5045,-1.5045,-1.5045,-2.4636,-2.4636,-2.4636,-2.4636,-2.4636,-2.4636,-2.4636,-2.4636,-2.4636,-2.4663,-2.4743,-2.497,-2.5117,-2.5184,-2.5401,-2.5718,-2.5999,-2.5921,-2.6132,-2.6119,-2.5865,-2.5415,-2.5259,-2.4653,-2.4293,-2.397,-2.3661,-2.3067,-2.2471,-2.1948,-2.1585,-2.136,-2.121,-2.1222,-2.121,-2.1222,-2.1222,-2.0985,-2.0673,-2.0296,-1.9844,-1.9455,-1.9002,-1.8319,-1.7616,-1.6708,-1.5598,-1.4921,-1.4405,-1.3174,-1.2917,-1.2906,-1.3036,-1.3063,-1.3057,-1.3166,-1.32,-1.3254,-1.3356,-1.337,-1.339,-1.3383,-1.339,-1.3397,-1.3397,-1.3397,-1.3397,-1.3397,-1.3397,-1.3397,-1.3397,-1.3397,-1.3397,-1.3397,-1.3397,-1.3397,-1.3397,-1.3397,-1.3397,-1.3397,-1.3397,-1.3397,-1.3486,-1.3818,-1.4315,-1.4555,-1.5133,-1.5546,-1.5801,-1.5883,-1.5966,-1.5966,-1.5966,-1.5966,-1.5958,-1.595,-1.5933,-1.5901,-1.5886,-1.5756,-1.5634,-1.548,-1.5342,-1.5252,-1.522,-1.5139,-1.5049,-1.5033,-1.5017,-1.5045,-1.5045,-1.5045,-1.5045,-1.5045,-1.5045,-2.4636,-2.4636,-2.4636,-2.4636,-2.4636,-2.4636,-2.4636,-2.4636,-2.4636,-2.477,-2.4957,-2.5064,-2.5344,-2.5745,-2.5825,-2.6026,-2.6253,-2.6279,-2.6346,-2.6279,-2.5785,-2.5531,-2.5398,-2.493,-2.4589,-2.4414,-2.4414,-2.4031,-2.3587,-2.3067,-2.2843,-2.2483,-2.2109,-2.2035,-2.2035,-2.196,-2.181,-2.1585,-2.1435,-2.121,-2.091,-2.0673,-2.0372,-1.979,-1.8785,-1.7798,-1.6925,-1.652,-1.614,-1.5497,-1.4418,-1.3785,-1.3584,-1.3369,-1.3275,-1.3295,-1.3342,-1.3363,-1.339,-1.3397,-1.3397,-1.3397,-1.3397,-1.3397,-1.3397,-1.3397,-1.3397,-1.3397,-1.3397,-1.3397,-1.3397,-1.3397,-1.3397,-1.3397,-1.3397,-1.3397,-1.3397,-1.3397,-1.3397,-1.3397,-1.3397,-1.3397,-1.3397,-1.4142,-1.4555,-1.4796,-1.5216,-1.5793,-1.5958,-1.5966,-1.5966,-1.5966,-1.5966,-1.5966,-1.5966,-1.5966,-1.5966,-1.5966,-1.5975,-1.5926,-1.5804,-1.5699,-1.5553,-1.548,-1.5447,-1.5333,-1.5195,-1.5171,-1.5179,-1.5082,-1.5077,-1.5041,-1.5074,-1.5033,-1.5041,-2.4636,-2.4636,-2.4636,-2.4636,-2.4636,-2.4636,-2.4636,-2.4663,-2.4796,-2.493,-2.5117,-2.5344,-2.5665,-2.6037,-2.6106,-2.6253,-2.636,-2.64,-2.6386,-2.6293,-2.5919,-2.5651,-2.5438,-2.5077,-2.4796,-2.4663,-2.4562,-2.4341,-2.4031,-2.3735,-2.3451,-2.3154,-2.2781,-2.2558,-2.2558,-2.2408,-2.2184,-2.2035,-2.196,-2.1885,-2.166,-2.166,-2.1517,-2.1057,-2.0134,-1.9229,-1.8885,-1.8612,-1.821,-1.7583,-1.6555,-1.5286,-1.4319,-1.3849,-1.3576,-1.3376,-1.3397,-1.3397,-1.3397,-1.3397,-1.3397,-1.3397,-1.3397,-1.3397,-1.3397,-1.3397,-1.3397,-1.3397,-1.3397,-1.3397,-1.3397,-1.3397,-1.3397,-1.3397,-1.3397,-1.3397,-1.3397,-1.3397,-1.3397,-1.3397,-1.3397,-1.3397,-1.3645,-1.4225,-1.4548,-1.4796,-1.5463,-1.5966,-1.5966,-1.5966,-1.5966,-1.5966,-1.5966,-1.5966,-1.5966,-1.5966,-1.5966,-1.5966,-1.5942,-1.6008,-1.5877,-1.5853,-1.5748,-1.5683,-1.561,-1.5496,-1.5374,-1.5366,-1.535,-1.5317,-1.5268,-1.5236,-1.5228,-1.526,-1.5285,-2.4636,-2.4636,-2.4636,-2.4636,-2.4636,-2.4636,-2.4636,-2.4676,-2.4943,-2.509,-2.5237,-2.5732,-2.5932,-2.6079,-2.6266,-2.6386,-2.64,-2.64,-2.64,-2.6333,-2.6066,-2.5812,-2.5571,-2.5304,-2.4997,-2.473,-2.4649,-2.4414,-2.4193,-2.397,-2.3748,-2.3451,-2.3154,-2.3005,-2.2856,-2.2632,-2.2408,-2.2408,-2.2259,-2.2259,-2.2184,-2.2196,-2.2154,-2.1825,-2.1417,-2.0858,-2.0665,-2.0564,-2.0234,-1.9444,-1.9128,-1.7647,-1.5942,-1.4638,-1.4149,-1.3811,-1.3728,-1.3569,-1.3569,-1.348,-1.3397,-1.3397,-1.3397,-1.3397,-1.3397,-1.3397,-1.3397,-1.3397,-1.3397,-1.3397,-1.3397,-1.3397,-1.3397,-1.3397,-1.3397,-1.3397,-1.3397,-1.3397,-1.3397,-1.3397,-1.3397,-1.3397,-1.3645,-1.4142,-1.4465,-1.4878,-1.5546,-1.5966,-1.5966,-1.5966,-1.5966,-1.5966,-1.5966,-1.5966,-1.5966,-1.5966,-1.5966,-1.5966,-1.5966,-1.5966,-1.5966,-1.5893,-1.5878,-1.5829,-1.574,-1.5642,-1.5577,-1.5553,-1.5545,-1.5545,-1.5488,-1.5398,-1.5423,-1.5504,-1.5496,-2.4636,-2.4636,-2.4636,-2.4636,-2.4636,-2.4636,-2.4636,-2.469,-2.497,-2.5224,-2.5464,-2.5812,-2.6119,-2.6266,-2.6346,-2.64,-2.64,-2.64,-2.64,-2.6346,-2.6119,-2.5919,-2.5798,-2.5571,-2.5277,-2.4997,-2.4823,-2.4629,-2.4414,-2.4179,-2.4031,-2.3809,-2.3513,-2.3364,-2.3228,-2.3005,-2.2781,-2.2707,-2.2558,-2.2408,-2.2408,-2.2382,-2.2353,-2.2224,-2.2105,-2.2015,-2.202,-2.21,-2.2017,-2.1453,-2.0677,-1.9703,-1.84,-1.6763,-1.5785,-1.4968,-1.4473,-1.4149,-1.3983,-1.3652,-1.348,-1.3397,-1.3397,-1.3397,-1.3397,-1.3397,-1.3397,-1.3397,-1.3403,-1.3403,-1.3397,-1.348,-1.3486,-1.3403,-1.348,-1.348,-1.348,-1.348,-1.3562,-1.3562,-1.348,-1.3562,-1.3894,-1.4307,-1.4638,-1.5043,-1.5546,-1.5966,-1.5966,-1.5966,-1.5966,-1.5966,-1.5966,-1.5966,-1.5966,-1.5966,-1.5966,-1.5966,-1.5966,-1.5966,-1.5966,-1.5966,-1.5917,-1.5934,-1.591,-1.5861,-1.5804,-1.5748,-1.5699,-1.5666,-1.5601,-1.5536,-1.5601,-1.5658,-1.561,-2.4636,-2.4636,-2.4636,-2.4636,-2.4636,-2.4636,-2.4636,-2.4703,-2.5104,-2.5384,-2.5611,-2.5972,-2.6253,-2.636,-2.64,-2.64,-2.64,-2.64,-2.64,-2.6346,-2.6239,-2.6079,-2.5985,-2.5798,-2.5571,-2.5344,-2.5144,-2.4903,-2.4589,-2.4414,-2.4293,-2.4193,-2.3883,-2.3735,-2.3587,-2.3377,-2.3228,-2.3079,-2.293,-2.2856,-2.2881,-2.2818,-2.2661,-2.2697,-2.2805,-2.2977,-2.3055,-2.3105,-2.3038,-2.2556,-2.2153,-2.1497,-2.0515,-1.946,-1.791,-1.6443,-1.5463,-1.4803,-1.4473,-1.3983,-1.3735,-1.3397,-1.3397,-1.3397,-1.3397,-1.3397,-1.3397,-1.3486,-1.3652,-1.3735,-1.3818,-1.3894,-1.4059,-1.4059,-1.4059,-1.4059,-1.4059,-1.4059,-1.4059,-1.3976,-1.3976,-1.4059,-1.4225,-1.4638,-1.4968,-1.5298,-1.5628,-1.5875,-1.5966,-1.5966,-1.5966,-1.5966,-1.5966,-1.5966,-1.5966,-1.5966,-1.5966,-1.5966,-1.5966,-1.5966,-1.5966,-1.5966,-1.5966,-1.5933,-1.6008,-1.5991,-1.5983,-1.5902,-1.5845,-1.5804,-1.5796,-1.5796,-1.5804,-1.5796,-1.5748,-2.4636,-2.4636,-2.4636,-2.4636,-2.4636,-2.4636,-2.4636,-2.4756,-2.5251,-2.5504,-2.5598,-2.6092,-2.6373,-2.64,-2.64,-2.64,-2.64,-2.64,-2.64,-2.6386,-2.6373,-2.6239,-2.6106,-2.6012,-2.5892,-2.5638,-2.5571,-2.5331,-2.4983,-2.4815,-2.4836,-2.4727,-2.4464,-2.4289,-2.4253,-2.3915,-2.3702,-2.3589,-2.3464,-2.3377,-2.3416,-2.3367,-2.3414,-2.3402,-2.3568,-2.3787,-2.4019,-2.4068,-2.3932,-2.368,-2.344,-2.3038,-2.2395,-2.1911,-2.0444,-1.8155,-1.6927,-1.5942,-1.5126,-1.4473,-1.3976,-1.3486,-1.3397,-1.3397,-1.3397,-1.3397,-1.3486,-1.3569,-1.3818,-1.4149,-1.4225,-1.4473,-1.4631,-1.4631,-1.4631,-1.4713,-1.4631,-1.4548,-1.4638,-1.4555,-1.448,-1.4473,-1.4638,-1.4886,-1.5216,-1.5381,-1.5711,-1.5883,-1.5966,-1.5966,-1.5966,-1.5966,-1.5966,-1.5966,-1.5966,-1.5966,-1.5966,-1.5966,-1.5966,-1.5966,-1.5966,-1.5966,-1.5966,-1.5966,-1.5958,-1.5942,-1.5958,-1.5966,-1.5893,-1.5869,-1.5933,-1.5933,-1.5951,-1.5943,-1.5845,-2.4636,-2.4636,-2.4636,-2.4636,-2.4636,-2.4636,-2.4636,-2.4716,-2.5251,-2.5504,-2.5545,-2.6106,-2.64,-2.64,-2.64,-2.64,-2.64,-2.64,-2.64,-2.64,-2.6386,-2.6373,-2.6333,-2.6333,-2.6159,-2.5932,-2.5905,-2.5732,-2.5451,-2.5384,-2.5358,-2.5268,-2.5228,-2.5308,-2.5037,-2.4576,-2.4423,-2.4308,-2.3815,-2.3578,-2.3857,-2.3883,-2.4112,-2.4339,-2.4475,-2.4614,-2.4773,-2.4811,-2.4731,-2.4731,-2.448,-2.408,-2.36,-2.3199,-2.2475,-2.0931,-1.9215,-1.7164,-1.6114,-1.5208,-1.4307,-1.3735,-1.3486,-1.3397,-1.3397,-1.348,-1.3652,-1.3983,-1.4149,-1.4315,-1.4555,-1.4713,-1.4713,-1.4796,-1.4878,-1.4878,-1.4796,-1.5043,-1.5133,-1.5216,-1.5133,-1.4886,-1.4878,-1.5133,-1.5381,-1.5546,-1.5719,-1.5883,-1.5966,-1.5966,-1.5966,-1.5966,-1.5966,-1.5966,-1.5966,-1.5966,-1.5966,-1.5966,-1.5966,-1.5966,-1.5966,-1.5966,-1.5966,-1.5966,-1.5966,-1.5966,-1.5966,-1.5966,-1.5966,-1.5966,-1.5966,-1.5966,-1.5958,-1.5966,-1.5966,-2.4636,-2.4636,-2.4636,-2.4636,-2.4636,-2.4636,-2.4636,-2.4756,-2.5251,-2.5518,-2.5625,-2.6132,-2.64,-2.64,-2.64,-2.64,-2.64,-2.64,-2.64,-2.64,-2.64,-2.64,-2.6386,-2.6386,-2.6279,-2.6239,-2.6199,-2.6172,-2.5945,-2.5678,-2.5518,-2.5531,-2.5531,-2.5491,-2.5571,-2.5245,-2.5103,-2.4987,-2.4757,-2.4516,-2.4494,-2.4559,-2.4675,-2.4685,-2.485,-2.499,-2.5092,-2.505,-2.505,-2.505,-2.4878,-2.4886,-2.4758,-2.4659,-2.4292,-2.3891,-2.2393,-2.0118,-1.7618,-1.6451,-1.5224,-1.4149,-1.3818,-1.3735,-1.3569,-1.3652,-1.3818,-1.4066,-1.4563,-1.4886,-1.5133,-1.5298,-1.5381,-1.5381,-1.5298,-1.5298,-1.5381,-1.5463,-1.5546,-1.5711,-1.5711,-1.5463,-1.5298,-1.5463,-1.5711,-1.5711,-1.5801,-1.5883,-1.5966,-1.5966,-1.5966,-1.5966,-1.5966,-1.5966,-1.5966,-1.5966,-1.5966,-1.5966,-1.5966,-1.5966,-1.5966,-1.5966,-1.5966,-1.5966,-1.5966,-1.5966,-1.5966,-1.5966,-1.5966,-1.5966,-1.5966,-1.5966,-1.5966,-1.5966,-1.5966,-2.4636,-2.4636,-2.4636,-2.4636,-2.4636,-2.4636,-2.4636,-2.4629,-2.5264,-2.5518,-2.5678,-2.6106,-2.64,-2.64,-2.64,-2.64,-2.64,-2.64,-2.64,-2.64,-2.64,-2.64,-2.64,-2.6386,-2.6386,-2.64,-2.6346,-2.6333,-2.6226,-2.6012,-2.5798,-2.5732,-2.5825,-2.5785,-2.5732,-2.5665,-2.5521,-2.5388,-2.5388,-2.5275,-2.5254,-2.5347,-2.5322,-2.5322,-2.5306,-2.5448,-2.5461,-2.5551,-2.5564,-2.5577,-2.576,-2.5821,-2.5775,-2.5732,-2.5552,-2.5186,-2.4293,-2.268,-2.0158,-1.8348,-1.6642,-1.536,-1.4405,-1.4307,-1.3894,-1.4059,-1.4397,-1.448,-1.4886,-1.5298,-1.5546,-1.5793,-1.5793,-1.5875,-1.5883,-1.5966,-1.5966,-1.5883,-1.5801,-1.5801,-1.5875,-1.5883,-1.5793,-1.5883,-1.5966,-1.5966,-1.5966,-1.5966,-1.5966,-1.5966,-1.5966,-1.5966,-1.5966,-1.5966,-1.5966,-1.5966,-1.5966,-1.5966,-1.5966,-1.5966,-1.5966,-1.5966,-1.5966,-1.5966,-1.5966,-1.5966,-1.5966,-1.5966,-1.5966,-1.5966,-1.5966,-1.5966,-1.5966,-1.5966,-1.5966,-2.4636,-2.4636,-2.4636,-2.4636,-2.4636,-2.4636,-2.4636,-2.469,-2.5264,-2.5531,-2.5678,-2.6106,-2.64,-2.64,-2.64,-2.64,-2.64,-2.64,-2.64,-2.64,-2.64,-2.64,-2.64,-2.64,-2.64,-2.64,-2.64,-2.64,-2.6386,-2.6306,-2.6253,-2.6319,-2.6172,-2.6266,-2.6199,-2.5999,-2.5825,-2.5692,-2.5651,-2.5745,-2.5788,-2.5921,-2.6027,-2.6162,-2.6228,-2.632,-2.6334,-2.6414,-2.6559,-2.6573,-2.6731,-2.6727,-2.6548,-2.6574,-2.6393,-2.6153,-2.5778,-2.4436,-2.2743,-2.0556,-1.8504,-1.7118,-1.5889,-1.5133,-1.4796,-1.4713,-1.4886,-1.5216,-1.5463,-1.5628,-1.5875,-1.5966,-1.5966,-1.5966,-1.5966,-1.5966,-1.5966,-1.5966,-1.5966,-1.5966,-1.5966,-1.5966,-1.5966,-1.5966,-1.5966,-1.5966,-1.5966,-1.5966,-1.5966,-1.5966,-1.5966,-1.5966,-1.5966,-1.5966,-1.5966,-1.5966,-1.5966,-1.5966,-1.5966,-1.5966,-1.5966,-1.5966,-1.5966,-1.5966,-1.5966,-1.5966,-1.5966,-1.5966,-1.5966,-1.5966,-1.5966,-1.5966,-1.5966,-1.5966,-1.5966,-2.4476,-2.4636,-2.4636,-2.4636,-2.4636,-2.4636,-2.4636,-2.473,-2.5251,-2.5732,-2.6039,-2.6293,-2.64,-2.64,-2.64,-2.64,-2.64,-2.64,-2.64,-2.64,-2.64,-2.64,-2.64,-2.64,-2.64,-2.64,-2.64,-2.64,-2.64,-2.64,-2.64,-2.6386,-2.64,-2.6386,-2.6319,-2.6266,-2.6146,-2.6079,-2.6039,-2.6132,-2.6172,-2.6239,-2.636,-2.6627,-2.6653,-2.676,-2.6921,-2.7028,-2.7081,-2.7134,-2.7228,-2.7293,-2.7261,-2.7274,-2.7271,-2.714,-2.6832,-2.6163,-2.5142,-2.2861,-2.0587,-1.8468,-1.7047,-1.6196,-1.6032,-1.595,-1.5793,-1.5875,-1.5958,-1.6122,-1.5966,-1.5966,-1.5966,-1.5966,-1.5966,-1.5966,-1.5966,-1.5966,-1.5966,-1.5966,-1.5966,-1.5966,-1.5966,-1.5966,-1.5966,-1.5966,-1.5966,-1.5966,-1.5966,-1.5966,-1.5966,-1.5966,-1.5966,-1.5966,-1.5966,-1.5966,-1.5966,-1.5982,-1.599,-1.603,-1.6137,-1.5966,-1.6048,-1.5966,-1.5974,-1.5982,-1.5982,-1.5966,-1.5966,-1.5966,-1.5966,-1.5966,-1.5966,-1.5966,-1.5966,-2.4369,-2.4623,-2.4636,-2.4636,-2.4636,-2.4636,-2.4636,-2.4716,-2.5157,-2.5718,-2.6253,-2.6333,-2.64,-2.64,-2.64,-2.64,-2.64,-2.64,-2.64,-2.64,-2.64,-2.64,-2.64,-2.64,-2.64,-2.64,-2.64,-2.64,-2.64,-2.64,-2.64,-2.64,-2.64,-2.64,-2.64,-2.64,-2.64,-2.64,-2.64,-2.64,-2.6386,-2.6386,-2.652,-2.6747,-2.6787,-2.6934,-2.7148,-2.7308,-2.7388,-2.7428,-2.7522,-2.7642,-2.7749,-2.7856,-2.7949,-2.7985,-2.7897,-2.7474,-2.6474,-2.4592,-2.2222,-2.0392,-1.9024,-1.8192,-1.7673,-1.7419,-1.7182,-1.6698,-1.678,-1.6534,-1.6213,-1.613,-1.6048,-1.5966,-1.5966,-1.5966,-1.5966,-1.5966,-1.5966,-1.5966,-1.5966,-1.5966,-1.5966,-1.5966,-1.5966,-1.5966,-1.5966,-1.5966,-1.5966,-1.5966,-1.5966,-1.5966,-1.5966,-1.5966,-1.5966,-1.603,-1.6186,-1.6211,-1.6227,-1.6267,-1.6267,-1.6186,-1.6137,-1.6162,-1.6154,-1.6105,-1.6081,-1.5982,-1.5974,-1.5966,-1.5966,-1.5966,-1.5966,-1.5966,-1.5966,-2.4356,-2.4623,-2.4636,-2.4636,-2.4636,-2.4636,-2.4636,-2.4676,-2.4983,-2.5451,-2.5999,-2.6239,-2.6373,-2.6386,-2.64,-2.64,-2.64,-2.64,-2.64,-2.64,-2.64,-2.64,-2.64,-2.64,-2.64,-2.64,-2.64,-2.64,-2.64,-2.64,-2.64,-2.64,-2.64,-2.64,-2.64,-2.64,-2.64,-2.64,-2.64,-2.64,-2.64,-2.6426,-2.6627,-2.6827,-2.6961,-2.7134,-2.7415,-2.7602,-2.7682,-2.7709,-2.7883,-2.8073,-2.8127,-2.8154,-2.8181,-2.8136,-2.815,-2.7897,-2.735,-2.5237,-2.3714,-2.2488,-2.1246,-2.0444,-1.9856,-1.9206,-1.8491,-1.8083,-1.751,-1.6936,-1.6616,-1.6287,-1.6122,-1.5966,-1.5966,-1.5966,-1.5966,-1.5966,-1.5966,-1.5966,-1.5966,-1.5966,-1.5966,-1.5966,-1.5966,-1.5966,-1.5966,-1.5966,-1.5966,-1.5974,-1.5974,-1.6121,-1.6129,-1.6178,-1.6211,-1.6259,-1.6316,-1.6349,-1.6373,-1.6405,-1.6446,-1.643,-1.6381,-1.6324,-1.6292,-1.6284,-1.6178,-1.599,-1.6146,-1.6211,-1.599,-1.5966,-1.5966,-1.5966,-1.5966,-2.4435,-2.4647,-2.463,-2.4636,-2.4636,-2.4636,-2.4636,-2.469,-2.497,-2.5411,-2.5956,-2.6079,-2.6226,-2.6333,-2.64,-2.64,-2.64,-2.64,-2.64,-2.64,-2.64,-2.64,-2.64,-2.64,-2.64,-2.64,-2.64,-2.64,-2.64,-2.64,-2.64,-2.64,-2.64,-2.64,-2.64,-2.64,-2.64,-2.64,-2.64,-2.64,-2.6413,-2.6573,-2.68,-2.7081,-2.7255,-2.7482,-2.7832,-2.7909,-2.7949,-2.7949,-2.8207,-2.8221,-2.8234,-2.8234,-2.8234,-2.8234,-2.8234,-2.815,-2.7835,-2.6716,-2.5722,-2.4456,-2.326,-2.2464,-2.2039,-2.1313,-2.0434,-1.9378,-1.8654,-1.7919,-1.6944,-1.6616,-1.6451,-1.6048,-1.5966,-1.5966,-1.5966,-1.5966,-1.5966,-1.5966,-1.5966,-1.5966,-1.5966,-1.5974,-1.5974,-1.5998,-1.6006,-1.5998,-1.599,-1.599,-1.6081,-1.6194,-1.6259,-1.6316,-1.6373,-1.6438,-1.6479,-1.6511,-1.6511,-1.6519,-1.6568,-1.6641,-1.6584,-1.6503,-1.6487,-1.6462,-1.6365,-1.6308,-1.6381,-1.6389,-1.6227,-1.6014,-1.5998,-1.599,-1.5966,-2.5045,-2.5294,-2.5271,-2.5203,-2.5139,-2.4784,-2.4636,-2.469,-2.4957,-2.5317,-2.5625,-2.5838,-2.6039,-2.6226,-2.6346,-2.64,-2.64,-2.64,-2.64,-2.64,-2.64,-2.64,-2.64,-2.64,-2.64,-2.64,-2.64,-2.64,-2.64,-2.64,-2.64,-2.64,-2.64,-2.64,-2.64,-2.64,-2.64,-2.64,-2.64,-2.64,-2.6466,-2.6653,-2.6947,-2.7241,-2.7509,-2.7802,-2.8127,-2.8234,-2.8234,-2.8234,-2.8234,-2.8234,-2.8234,-2.8234,-2.8234,-2.8234,-2.8234,-2.8234,-2.8016,-2.7666,-2.6687,-2.6,-2.4765,-2.4104,-2.3736,-2.2935,-2.1959,-2.1001,-2.012,-1.8981,-1.7837,-1.751,-1.6698,-1.6287,-1.6048,-1.604,-1.5966,-1.5966,-1.5966,-1.5966,-1.5966,-1.5966,-1.5966,-1.5982,-1.599,-1.6022,-1.6137,-1.6137,-1.6137,-1.6154,-1.6194,-1.6324,-1.6405,-1.6454,-1.6535,-1.6617,-1.6649,-1.6674,-1.669,-1.6714,-1.6779,-1.6868,-1.6771,-1.669,-1.6674,-1.6649,-1.6584,-1.656,-1.656,-1.6479,-1.6324,-1.6219,-1.6146,-1.6006,-1.5966,-2.6235,-2.6442,-2.6414,-2.6402,-2.6284,-2.5359,-2.4784,-2.4663,-2.5005,-2.5139,-2.5144,-2.5769,-2.5983,-2.609,-2.6253,-2.636,-2.64,-2.64,-2.64,-2.64,-2.64,-2.64,-2.64,-2.64,-2.64,-2.64,-2.64,-2.64,-2.64,-2.64,-2.64,-2.64,-2.64,-2.64,-2.64,-2.64,-2.64,-2.64,-2.64,-2.64,-2.6453,-2.672,-2.7014,-2.7308,-2.7602,-2.7883,-2.8154,-2.8234,-2.8234,-2.8234,-2.8234,-2.8234,-2.8234,-2.8234,-2.8234,-2.8234,-2.8234,-2.8234,-2.8181,-2.7802,-2.7589,-2.6912,-2.6211,-2.5631,-2.5025,-2.4308,-2.3416,-2.2361,-2.1394,-2.0272,-1.9225,-1.8083,-1.7026,-1.6616,-1.6287,-1.6122,-1.6048,-1.5966,-1.5966,-1.5966,-1.5966,-1.5966,-1.5974,-1.5982,-1.6063,-1.6211,-1.6276,-1.6373,-1.6365,-1.6324,-1.6389,-1.6535,-1.6592,-1.66,-1.6682,-1.6795,-1.6836,-1.6852,-1.6942,-1.6974,-1.7047,-1.7039,-1.695,-1.6877,-1.6782,-1.6828,-1.6787,-1.6722,-1.6665,-1.6568,-1.6487,-1.6316,-1.6243,-1.6022,-1.5966,-2.7192,-2.726,-2.7236,-2.738,-2.7505,-2.6954,-2.5946,-2.4797,-2.4965,-2.5161,-2.509,-2.5553,-2.5954,-2.6037,-2.6052,-2.6278,-2.6319,-2.64,-2.64,-2.6386,-2.6386,-2.6386,-2.64,-2.64,-2.64,-2.64,-2.64,-2.64,-2.64,-2.64,-2.64,-2.64,-2.64,-2.64,-2.64,-2.64,-2.64,-2.64,-2.64,-2.64,-2.6547,-2.6854,-2.7108,-2.7335,-2.7749,-2.8087,-2.8194,-2.8234,-2.8234,-2.8234,-2.8234,-2.8234,-2.8234,-2.8234,-2.8234,-2.8234,-2.8234,-2.8221,-2.8181,-2.7869,-2.7655,-2.7482,-2.6865,-2.6467,-2.599,-2.5448,-2.4731,-2.3736,-2.2682,-2.1647,-2.0272,-1.9053,-1.7837,-1.7018,-1.6616,-1.6287,-1.613,-1.5966,-1.5966,-1.5966,-1.5966,-1.599,-1.6073,-1.6162,-1.6243,-1.6316,-1.6414,-1.6535,-1.6584,-1.6544,-1.6584,-1.6722,-1.6779,-1.6787,-1.6885,-1.6998,-1.7015,-1.7047,-1.7096,-1.7112,-1.7096,-1.708,-1.7071,-1.7047,-1.6998,-1.699,-1.6998,-1.6933,-1.6844,-1.682,-1.6738,-1.6519,-1.6324,-1.617,-1.5974,-2.8488,-2.8506,-2.8585,-2.8735,-2.8701,-2.8186,-2.7172,-2.6093,-2.5946,-2.5926,-2.5857,-2.6234,-2.6321,-2.6412,-2.6598,-2.6754,-2.6734,-2.6727,-2.6702,-2.6623,-2.6544,-2.6386,-2.64,-2.6386,-2.64,-2.64,-2.64,-2.64,-2.64,-2.64,-2.64,-2.64,-2.64,-2.64,-2.64,-2.64,-2.64,-2.64,-2.64,-2.64,-2.6613,-2.6947,-2.7175,-2.7457,-2.7926,-2.8154,-2.8234,-2.8234,-2.8234,-2.8234,-2.8234,-2.8234,-2.8234,-2.8234,-2.8234,-2.8234,-2.8234,-2.8234,-2.8194,-2.8003,-2.7843,-2.7655,-2.7362,-2.7094,-2.6667,-2.6188,-2.5592,-2.4866,-2.3976,-2.3015,-2.1475,-2.0028,-1.8727,-1.7428,-1.6944,-1.6534,-1.6287,-1.6048,-1.5966,-1.5966,-1.5982,-1.6097,-1.6154,-1.6251,-1.6389,-1.6535,-1.6657,-1.6755,-1.6787,-1.6755,-1.6803,-1.6917,-1.695,-1.6974,-1.7071,-1.7112,-1.7096,-1.708,-1.7096,-1.7112,-1.7112,-1.7104,-1.7096,-1.7096,-1.7096,-1.7088,-1.7071,-1.7088,-1.7039,-1.699,-1.6868,-1.6625,-1.6389,-1.6202,-1.6105,-2.99,-2.9898,-3.036,-3.0251,-2.9867,-2.9306,-2.8763,-2.8315,-2.7753,-2.726,-2.7173,-2.7335,-2.726,-2.7193,-2.7463,-2.7535,-2.7488,-2.7373,-2.7278,-2.7097,-2.6939,-2.6781,-2.6544,-2.6465,-2.6465,-2.6465,-2.64,-2.64,-2.64,-2.64,-2.64,-2.64,-2.64,-2.64,-2.64,-2.64,-2.64,-2.64,-2.64,-2.64,-2.6533,-2.6881,-2.7255,-2.7362,-2.7736,-2.8181,-2.8221,-2.8234,-2.8234,-2.8234,-2.8234,-2.8234,-2.8234,-2.8234,-2.8234,-2.8234,-2.8234,-2.8234,-2.8234,-2.8167,-2.7976,-2.7843,-2.7696,-2.7482,-2.7161,-2.6667,-2.6175,-2.5764,-2.4954,-2.392,-2.2522,-2.1233,-1.9937,-1.8482,-1.7592,-1.6944,-1.6451,-1.6205,-1.5966,-1.5966,-1.5974,-1.6097,-1.6235,-1.6332,-1.6503,-1.6722,-1.6877,-1.695,-1.6958,-1.6933,-1.6974,-1.7055,-1.7055,-1.7055,-1.708,-1.7112,-1.7112,-1.7112,-1.7112,-1.7112,-1.7112,-1.7112,-1.7112,-1.7112,-1.7112,-1.7112,-1.7104,-1.7112,-1.7096,-1.7047,-1.6901,-1.6682,-1.647,-1.6267,-1.6137,-3.0639,-3.0716,-3.1401,-3.1461,-3.1148,-3.1211,-3.1047,-3.0764,-3.0551,-2.9465,-2.8202,-2.8221,-2.8301,-2.825,-2.8356,-2.8447,-2.8482,-2.8428,-2.8293,-2.8111,-2.7869,-2.749,-2.7018,-2.7018,-2.6781,-2.6465,-2.64,-2.6465,-2.6465,-2.6465,-2.6386,-2.64,-2.64,-2.64,-2.64,-2.64,-2.64,-2.64,-2.64,-2.64,-2.6466,-2.6707,-2.7014,-2.7268,-2.7725,-2.7949,-2.8043,-2.8234,-2.8234,-2.8234,-2.8234,-2.8234,-2.8234,-2.8234,-2.8234,-2.8234,-2.8234,-2.8234,-2.8234,-2.8234,-2.8154,-2.7976,-2.7856,-2.7709,-2.7428,-2.6987,-2.6627,-2.6334,-2.5762,-2.4781,-2.3656,-2.2441,-2.1152,-1.9622,-1.8174,-1.7437,-1.6616,-1.6287,-1.6048,-1.5966,-1.5966,-1.6154,-1.6292,-1.6446,-1.6625,-1.6795,-1.6974,-1.7063,-1.7063,-1.7047,-1.7031,-1.7088,-1.7096,-1.7096,-1.7112,-1.7112,-1.7112,-1.7112,-1.7112,-1.7112,-1.7112,-1.7112,-1.7112,-1.7112,-1.7112,-1.7112,-1.7112,-1.7112,-1.7096,-1.7063,-1.695,-1.673,-1.6552,-1.6365,-1.6211,-3.1117,-3.1193,-3.1586,-3.1865,-3.1961,-3.2052,-3.2106,-3.2123,-3.207,-3.1418,-3.0195,-3.0069,-2.988,-2.9729,-2.9768,-2.9535,-2.9604,-2.967,-2.9457,-2.9177,-2.889,-2.8573,-2.8182,-2.7805,-2.7569,-2.7254,-2.7018,-2.6939,-2.6781,-2.6623,-2.6623,-2.6465,-2.6465,-2.64,-2.6386,-2.6386,-2.64,-2.64,-2.64,-2.64,-2.6413,-2.6667,-2.6961,-2.7255,-2.7549,-2.7829,-2.803,-2.8234,-2.8234,-2.8234,-2.8234,-2.8234,-2.8234,-2.8234,-2.8234,-2.8234,-2.8234,-2.8234,-2.8234,-2.8234,-2.8234,-2.814,-2.8114,-2.7896,-2.7856,-2.7428,-2.7014,-2.6759,-2.6506,-2.5574,-2.4584,-2.3404,-2.2039,-2.0596,-1.9225,-1.8174,-1.7191,-1.6534,-1.6205,-1.5966,-1.6006,-1.6194,-1.6341,-1.6487,-1.6682,-1.6925,-1.7088,-1.7104,-1.7112,-1.7112,-1.7112,-1.7112,-1.7112,-1.7112,-1.7112,-1.7112,-1.7112,-1.7112,-1.7112,-1.7112,-1.7112,-1.7112,-1.7112,-1.7112,-1.7112,-1.7112,-1.7112,-1.7112,-1.7112,-1.7096,-1.6958,-1.6787,-1.6625,-1.6454,-1.6276,-3.1377,-3.1368,-3.1443,-3.1889,-3.2521,-3.2373,-3.2467,-3.2806,-3.2841,-3.2841,-3.2561,-3.2052,-3.163,-3.1449,-3.1494,-3.1071,-3.0884,-3.0908,-3.0734,-3.0447,-3.013,-2.9853,-2.9479,-2.9042,-2.873,-2.8431,-2.8197,-2.7805,-2.7569,-2.7412,-2.7097,-2.6702,-2.6544,-2.6479,-2.6465,-2.6386,-2.64,-2.64,-2.64,-2.64,-2.6493,-2.664,-2.6921,-2.7215,-2.7509,-2.7802,-2.803,-2.8234,-2.8234,-2.8234,-2.8234,-2.8234,-2.8234,-2.8234,-2.8234,-2.8234,-2.8234,-2.8234,-2.8234,-2.8234,-2.8234,-2.8221,-2.8234,-2.8194,-2.814,-2.7843,-2.7428,-2.7175,-2.6907,-2.6333,-2.5337,-2.4375,-2.3015,-2.1647,-2.0272,-1.8827,-1.7846,-1.6944,-1.6616,-1.6295,-1.6204,-1.6302,-1.6405,-1.6552,-1.6747,-1.6998,-1.7112,-1.7112,-1.7112,-1.7112,-1.7112,-1.7112,-1.7112,-1.7112,-1.7112,-1.7112,-1.7112,-1.7112,-1.7112,-1.7112,-1.7112,-1.7112,-1.7112,-1.7112,-1.7112,-1.7112,-1.7112,-1.7112,-1.7112,-1.7112,-1.7031,-1.6893,-1.6714,-1.6544,-1.6332,-3.1377,-3.1414,-3.1771,-3.2144,-3.2582,-3.2843,-3.3244,-3.3572,-3.3539,-3.3608,-3.3469,-3.34,-3.3033,-3.2333,-3.2404,-3.2208,-3.1984,-3.2091,-3.2204,-3.2068,-3.1582,-3.1245,-3.0945,-3.0546,-3.0114,-2.9804,-2.9493,-2.9105,-2.8793,-2.8353,-2.8054,-2.7883,-2.7097,-2.6939,-2.686,-2.6702,-2.6544,-2.6465,-2.6386,-2.64,-2.64,-2.656,-2.68,-2.7068,-2.7321,-2.7696,-2.806,-2.8207,-2.8234,-2.8234,-2.8234,-2.8234,-2.8234,-2.8234,-2.8234,-2.8234,-2.8234,-2.8234,-2.8234,-2.8234,-2.8234,-2.8234,-2.8234,-2.8221,-2.8194,-2.8181,-2.7749,-2.7509,-2.7186,-2.6665,-2.5866,-2.5248,-2.4056,-2.2614,-2.1243,-1.9632,-1.8409,-1.7837,-1.7437,-1.6944,-1.6559,-1.6585,-1.6588,-1.6718,-1.6747,-1.6958,-1.7104,-1.7112,-1.7112,-1.7112,-1.7112,-1.7112,-1.7112,-1.7112,-1.7112,-1.7112,-1.7112,-1.7112,-1.7112,-1.7112,-1.7112,-1.7112,-1.7112,-1.7112,-1.7112,-1.7112,-1.7112,-1.7112,-1.7112,-1.7112,-1.7104,-1.7015,-1.682,-1.6657,-1.6479]},{"header":{"parameterUnit":"m.s-1","parameterCategory":1,"la1":31.0,"la2":29.5877,"lo1":-88.7671,"lo2":-86.6584,"dy":0.0162,"dx":0.0185,"nx":115,"ny":88,"refTime":"2024-03-16T18:00:00:Z","depth":0,"parameterNumber":3,"parameterNumberName":"V-component_of_WINDS"},"data":[0.0,0.0,0.0,0.0,0.0,0.0,0.0,0.0,0.0,0.0,0.0,0.0,0.0,0.0,0.0,0.0,0.0,0.0,0.0,0.0,0.0,0.0,0.0,0.0,0.0,0.0,0.0,0.0,0.0,0.0,0.0,0.0,0.0,0.0,0.0,0.0,0.0,0.0,0.0,0.0,0.0,0.0,0.0,0.0,0.0,0.0,0.0,0.0,0.0,0.0,0.0,0.0,0.0,0.0,0.0,0.0,0.0,0.0,0.0,0.0,0.0,0.0,0.0,0.0,0.0,0.0,0.0,0.0,0.0,0.0,0.0,0.0,0.0,0.0,0.0,0.0,0.0,0.0,0.0,0.0,0.0,0.0,0.0,0.0,0.0,0.0,0.0,0.0,0.0,0.0,0.0,0.0,0.0,0.0,0.0,0.0,0.0,0.0,0.0,0.0,0.0,0.0,0.0,0.0,0.0,0.0,0.0,0.0,0.0,0.0,0.0,0.0,0.0,0.0,0.0,0.0,0.0,0.0,0.0,0.0,0.0,0.0,0.0,0.0,0.0,0.0,0.0,0.0,0.0,0.0,0.0,0.0,0.0,0.0,0.0,0.0,0.0,0.0,0.0,0.0,0.0,0.0,0.0,0.0,0.0,0.0,0.0,0.0,0.0,0.0,0.0,0.0,0.0,0.0,0.0,0.0,0.0,0.0,0.0,0.0,0.0,0.0,0.0,0.0,0.0,0.0,0.0,0.0,0.0,0.0,0.0,0.0,0.0,0.0,0.0,0.0,0.0,0.0,0.0,0.0,0.0,0.0,0.0,0.0,0.0,0.0,0.0,0.0,0.0,0.0,0.0,0.0,0.0,0.0,0.0,0.0,0.0,0.0,0.0,0.0,0.0,0.0,0.0,0.0,0.0,0.0,0.0,0.0,0.0,0.0,0.0,0.0,0.0,0.0,0.0,0.0,0.0,0.0,0.0,0.0,0.0,0.0,0.0,0.0,0.0,0.0,0.0,0.0,0.0,0.0,0.0,0.0,0.0,0.0,0.0,0.0,0.0,0.0,0.0,0.0,0.0,0.0,0.0,0.0,0.0,0.0,0.0,0.0,0.0,0.0,0.0,0.0,0.0,0.0,0.0,0.0,0.0,0.0,0.0,0.0,0.0,0.0,0.0,0.0,0.0,0.0,0.0,0.0,0.0,0.0,0.0,0.0,0.0,0.0,0.0,0.0,0.0,0.0,0.0,0.0,0.0,0.0,0.0,0.0,0.0,0.0,0.0,0.0,0.0,0.0,0.0,0.0,0.0,0.0,0.0,0.0,0.0,0.0,0.0,0.0,0.0,0.0,0.0,0.0,0.0,0.0,0.0,0.0,0.0,0.0,0.0,0.0,0.0,0.0,0.0,0.0,0.0,0.0,0.0,0.0,0.0,0.0,0.0,0.0,0.0,0.0,0.0,0.0,0.0,0.0,0.0,0.0,0.0,0.0,0.0,0.0,0.0,0.0,0.0,0.0,0.0,0.0,0.0,0.0,0.0,0.0,0.0,0.0,0.0,0.0,0.0,0.0,0.0,0.0,0.0,0.0,0.0,0.0,0.0,0.0,0.0,0.0,0.0,0.0,0.0,0.0,0.0,0.0,0.0,0.0,0.0,0.0,0.0,0.0,0.0,0.0,0.0,0.0,0.0,0.0,0.0,0.0,0.0,0.0,0.0,0.0,0.0,0.0,0.0,0.0,0.0,0.0,0.0,0.0,0.0,0.0,0.0,0.0,0.0,0.0,0.0,0.0,0.0,0.0,0.0,0.0,0.0,0.0,0.0,0.0,0.0,0.0,0.0,0.0,0.0,0.0,0.0,0.0,0.0,0.0,0.0,0.0,0.0,0.0,0.0,0.0,0.0,0.0,0.0,0.0,0.0,0.0,0.0,0.0,0.0,0.0,0.0,0.0,0.0,0.0,0.0,0.0,0.0,0.0,0.0,0.0,0.0,0.0,0.0,0.0,0.0,0.0,0.0,0.0,0.0,0.0,0.0,0.0,0.0,0.0,0.0,0.0,0.0,0.0,0.0,0.0,0.0,0.0,0.0,0.0,0.0,0.0,0.0,0.0,0.0,0.0,0.0,0.0,0.0,0.0,0.0,0.0,0.0,0.0,0.0,0.0,0.0,0.0,0.0,0.0,0.0,0.0,0.0,0.0,0.0,0.0,0.0,0.0,0.0,0.0,0.0,0.0,0.0,0.0,0.0,0.0,0.0,0.0,0.0,0.0,0.0,0.0,0.0,0.0,0.0,0.0,0.0,0.0,0.0,0.0,0.0,0.0,0.0,0.0,0.0,0.0,0.0,0.0,0.0,0.0,0.0,0.0,0.0,0.0,0.0,0.0,0.0,0.0,0.0,0.0,0.0,0.0,0.0,0.0,0.0,0.0,0.0,0.0,0.0,0.0,0.0,0.0,0.0,0.0,0.0,0.0,0.0,0.0,0.0,0.0,0.0,0.0,0.0,0.0,0.0,0.0,0.0,0.0,0.0,0.0,0.0,0.0,0.0,0.0,0.0,0.0,0.0,0.0,0.0,0.0,0.0,0.0,0.0,0.0,0.0,0.0,0.0,0.0,0.0,0.0,0.0,0.0,0.0,0.0,0.0,0.0,0.0,0.0,0.0,0.0,0.0,0.0,0.0,0.0,0.0,0.0,0.0,0.0,0.0,0.0,0.0,0.0,0.0,0.0,0.0,0.0,0.0,0.0,0.0,0.0,0.0,0.0,0.0,0.0,0.0,0.0,0.0,0.0,0.0,0.0,0.0,0.0,0.0,0.0,0.0,0.0,0.0,0.0,0.0,0.0,0.0,0.0,0.0,0.0,0.0,0.0,0.0,0.0,0.0,0.0,0.0,0.0,0.0,0.0,0.0,0.0,0.0,0.0,0.0,0.0,0.0,0.0,0.0,0.0,0.0,0.0,0.0,0.0,0.0,0.0,0.0,0.0,0.0,0.0,0.0,0.0,0.0,0.0,0.0,0.0,0.0,0.0,0.0,0.0,0.0,0.0,0.0,0.0,0.0,0.0,0.0,0.0,0.0,0.0,0.0,0.0,0.0,0.0,0.0,0.0,0.0,0.0,0.0,0.0,0.0,0.0,0.0,0.0,0.0,0.0,0.0,0.0,0.0,0.0,0.0,0.0,0.0,0.0,0.0,0.0,0.0,0.0,0.0,0.0,0.0,0.0,0.0,0.0,0.0,0.0,0.0,0.0,0.0,0.0,0.0,0.0,0.0,0.0,0.0,0.0,0.0,0.0,0.0,0.0,0.0,0.0,0.0,0.0,0.0,0.0,0.0,0.0,0.0,0.0,0.0,0.0,0.0,0.0,0.0,0.0,0.0,0.0,0.0,0.0,0.0,0.0,0.0,0.0,0.0,0.0,0.0,0.0,0.0,0.0,0.0,0.0,0.0,0.0,0.0,0.0,0.0,0.0,0.0,0.0,0.0,0.0,0.0,0.0,0.0,0.0,0.0,0.0,0.0,0.0,0.0,0.0,0.0,0.0,0.0,0.0,0.0,0.0,0.0,0.0,0.0,0.0,0.0,0.0,0.0,0.0,0.0,0.0,0.0,0.0,0.0,0.0,0.0,0.0,0.0,0.0,0.0,0.0,0.0,0.0,0.0,0.0,0.0,0.0,0.0,0.0,0.0,0.0,0.0,0.0,0.0,0.0,0.0,0.0,0.0,0.0,0.0,0.0,0.0,0.0,0.0,0.0,0.0,0.0,0.0,0.0,0.0,0.0,0.0,0.0,0.0,0.0,0.0,0.0,0.0,0.0,0.0,0.0,0.0,0.0,0.0,0.0,0.0,0.0,0.0,0.0,0.0,0.0,0.0,0.0,0.0,0.0,0.0,0.0,0.0,0.0,0.0,0.0,0.0,0.0,0.0,0.0,0.0,0.0,0.0,0.0,0.0,0.0,0.0,0.0,0.0,0.0,0.0,0.0,0.0,0.0,0.0,0.0,0.0,0.0,0.0,0.0,0.0,0.0,0.0,0.0,0.0,0.0,0.0,0.0,0.0,0.0,0.0,0.0,0.0,0.0,0.0,0.0,0.0,0.0,0.0,0.0,0.0,0.0,0.0,0.0,0.0,0.0,0.0,0.0,0.0,0.0,0.0,0.0,0.0,0.0,0.0,0.0,0.0,0.0,0.0,0.0,0.0,0.0,0.0,0.0,0.0,0.0,0.0,0.0,0.0,0.0,0.0,0.0,0.0,0.0,0.0,0.0,0.0,0.0,0.0,0.0,2.058,0.0,0.0,0.0,0.0,0.0,0.0,0.0,0.0,0.0,0.0,0.0,0.0,0.0,0.0,0.0,0.0,0.0,0.0,0.0,0.0,0.0,0.0,0.0,0.0,0.0,0.0,0.0,0.0,0.0,0.0,0.0,0.0,0.0,0.0,0.0,0.0,0.0,0.0,0.0,0.0,0.0,0.0,0.0,0.0,0.0,0.0,0.0,0.0,0.0,0.0,0.0,0.0,0.0,0.0,0.0,0.0,0.0,0.0,0.0,0.0,0.0,0.0,0.0,0.0,0.0,0.0,0.0,0.0,0.0,0.0,0.0,0.0,0.0,0.0,0.0,0.0,0.0,0.0,0.0,0.0,0.0,0.0,0.0,0.0,0.0,0.0,0.0,0.0,0.0,0.0,0.0,0.0,0.0,0.0,0.0,0.0,0.0,0.0,0.0,0.0,0.0,0.0,0.0,0.0,0.0,0.0,0.0,0.0,0.0,0.0,2.1196,2.1203,2.1672,2.191,2.1953,0.0,0.0,0.0,0.0,0.0,0.0,0.0,0.0,0.0,0.0,0.0,0.0,0.0,0.0,0.0,0.0,0.0,0.0,0.0,0.0,0.0,0.0,0.0,0.0,0.0,0.0,0.0,0.0,0.0,0.0,0.0,0.0,0.0,0.0,0.0,0.0,0.0,0.0,0.0,0.0,0.0,0.0,0.0,0.0,0.0,0.0,0.0,0.0,0.0,0.0,0.0,0.0,0.0,0.0,0.0,0.0,0.0,0.0,0.0,0.0,0.0,0.0,0.0,0.0,0.0,0.0,0.0,0.0,0.0,0.0,0.0,0.0,0.0,0.0,0.0,0.0,0.0,0.0,0.0,0.0,0.0,0.0,0.0,0.0,0.0,0.0,0.0,0.0,0.0,0.0,0.0,0.0,0.0,0.0,0.0,0.0,0.0,0.0,0.0,0.0,0.0,0.0,0.0,0.0,0.0,0.0,0.0,0.0,0.0,0.0,0.0,0.0,2.2734,2.3203,2.3395,0.0,0.0,0.0,0.0,0.0,0.0,0.0,0.0,0.0,0.0,0.0,0.0,0.0,0.0,0.0,0.0,0.0,0.0,0.0,0.0,0.0,0.0,0.0,0.0,0.0,0.0,0.0,0.0,0.0,0.0,0.0,0.0,0.0,0.0,0.0,0.0,0.0,0.0,0.0,0.0,0.0,0.0,0.0,0.0,0.0,0.0,0.0,0.0,0.0,0.0,0.0,0.0,0.0,0.0,0.0,0.0,0.0,0.0,0.0,0.0,0.0,0.0,0.0,0.0,0.0,0.0,0.0,0.0,0.0,0.0,0.0,0.0,0.0,0.0,0.0,0.0,0.0,0.0,0.0,0.0,0.0,0.0,0.0,0.0,0.0,0.0,0.0,0.0,0.0,0.0,0.0,0.0,0.0,0.0,0.0,0.0,0.0,0.0,0.0,0.0,0.0,0.0,0.0,0.0,0.0,0.0,0.0,0.0,0.0,0.0,2.2226,2.2969,2.3085,0.0,2.4204,0.0,0.0,0.0,0.0,0.0,0.0,0.0,0.0,0.0,0.0,0.0,0.0,0.0,0.0,0.0,0.0,0.0,0.0,0.0,0.0,0.0,0.0,0.0,0.0,0.0,0.0,0.0,0.0,0.0,0.0,0.0,0.0,0.0,0.0,0.0,0.0,0.0,0.0,0.0,0.0,0.0,0.0,0.0,0.0,0.0,0.0,0.0,0.0,0.0,0.0,0.0,0.0,0.0,0.0,0.0,0.0,0.0,0.0,0.0,0.0,0.0,0.0,0.0,0.0,0.0,0.0,0.0,0.0,0.0,0.0,0.0,0.0,0.0,0.0,0.0,0.0,0.0,0.0,0.0,0.0,0.0,0.0,0.0,0.0,0.0,0.0,0.0,0.0,0.0,0.0,0.0,0.0,0.0,0.0,0.0,0.0,0.0,0.0,0.0,0.0,0.0,0.0,0.0,0.0,0.0,0.0,0.0,0.0,0.0,0.0,2.3006,2.3863,2.4367,2.4829,0.0,0.0,0.0,0.0,0.0,0.0,0.0,0.0,0.0,0.0,0.0,0.0,0.0,0.0,0.0,0.0,0.0,0.0,0.0,0.0,0.0,0.0,0.0,0.0,0.0,0.0,0.0,0.0,0.0,0.0,0.0,0.0,0.0,0.0,0.0,0.0,0.0,0.0,0.0,0.0,0.0,0.0,0.0,0.0,0.0,0.0,0.0,0.0,0.0,0.0,0.0,0.0,0.0,0.0,0.0,0.0,0.0,0.0,0.0,0.0,0.0,0.0,0.0,0.0,0.0,0.0,0.0,0.0,0.0,0.0,0.0,0.0,0.0,0.0,0.0,0.0,0.0,0.0,0.0,0.0,0.0,0.0,0.0,0.0,0.0,0.0,0.0,0.0,0.0,0.0,0.0,0.0,0.0,0.0,0.0,0.0,0.0,0.0,0.0,0.0,0.0,0.0,0.0,0.0,0.0,0.0,0.0,0.0,0.0,0.0,2.2806,2.3624,2.4713,2.537,2.5595,2.5354,0.0,0.0,0.0,0.0,0.0,0.0,0.0,0.0,0.0,0.0,0.0,0.0,0.0,0.0,0.0,0.0,0.0,0.0,0.0,0.0,0.0,0.0,0.0,0.0,0.0,0.0,0.0,0.0,0.0,0.0,0.0,0.0,0.0,0.0,0.0,0.0,0.0,0.0,0.0,0.0,0.0,0.0,0.0,0.0,0.0,0.0,0.0,0.0,0.0,0.0,0.0,0.0,0.0,0.0,0.0,0.0,0.0,0.0,0.0,0.0,0.0,0.0,0.0,0.0,0.0,0.0,0.0,0.0,0.0,0.0,0.0,0.0,0.0,0.0,0.0,0.0,0.0,0.0,0.0,0.0,0.0,0.0,0.0,0.0,0.0,0.0,0.0,0.0,0.0,0.0,0.0,0.0,0.0,0.0,0.0,0.0,0.0,0.0,0.0,0.0,0.0,0.0,0.0,0.0,0.0,0.0,0.0,0.0,2.2948,2.3104,2.3924,2.5563,2.5673,2.5315,0.0,0.0,0.0,0.0,0.0,0.0,0.0,0.0,0.0,0.0,0.0,0.0,0.0,0.0,0.0,0.0,0.0,0.0,0.0,0.0,0.0,0.0,0.0,0.0,0.0,0.0,0.0,0.0,0.0,0.0,0.0,0.0,0.0,0.0,0.0,0.0,0.0,0.0,0.0,0.0,0.0,0.0,0.0,0.0,0.0,0.0,0.0,0.0,0.0,0.0,0.0,0.0,0.0,0.0,0.0,0.0,0.0,0.0,0.0,0.0,0.0,0.0,0.0,0.0,0.0,0.0,0.0,0.0,0.0,0.0,0.0,0.0,0.0,0.0,0.0,0.0,0.0,0.0,0.0,0.0,0.0,0.0,0.0,0.0,0.0,0.0,0.0,0.0,0.0,0.0,0.0,0.0,0.0,0.0,0.0,0.0,0.0,0.0,0.0,0.0,0.0,0.0,0.0,0.0,0.0,0.0,0.0,0.0,0.0,2.3058,2.4191,2.5047,2.5663,2.5155,2.4721,0.0,0.0,0.0,0.0,0.0,0.0,0.0,0.0,0.0,0.0,0.0,0.0,0.0,0.0,0.0,0.0,0.0,0.0,0.0,0.0,0.0,0.0,0.0,0.0,0.0,0.0,0.0,0.0,0.0,0.0,0.0,0.0,0.0,0.0,0.0,0.0,0.0,0.0,0.0,0.0,0.0,0.0,0.0,0.0,0.0,0.0,0.0,0.0,0.0,0.0,0.0,0.0,0.0,0.0,0.0,0.0,0.0,0.0,0.0,0.0,0.0,0.0,0.0,0.0,0.0,0.0,0.0,0.0,0.0,0.0,0.0,0.0,0.0,0.0,0.0,0.0,0.0,0.0,0.0,0.0,0.0,0.0,0.0,0.0,0.0,0.0,0.0,0.0,0.0,0.0,0.0,0.0,0.0,0.0,0.0,0.0,0.0,0.0,0.0,0.0,0.0,0.0,0.0,0.0,0.0,0.0,0.0,0.0,0.0,2.3479,0.0,2.5697,2.5692,2.5143,2.4557,0.0,0.0,0.0,0.0,0.0,0.0,0.0,0.0,0.0,0.0,0.0,0.0,0.0,0.0,0.0,0.0,0.0,0.0,0.0,0.0,0.0,0.0,0.0,0.0,0.0,0.0,0.0,0.0,0.0,0.0,0.0,0.0,0.0,0.0,0.0,0.0,0.0,0.0,0.0,0.0,0.0,0.0,0.0,0.0,0.0,0.0,0.0,0.0,0.0,0.0,0.0,0.0,0.0,0.0,0.0,0.0,0.0,0.0,0.0,0.0,0.0,0.0,0.0,0.0,0.0,0.0,0.0,0.0,0.0,0.0,0.0,0.0,0.0,0.0,0.0,0.0,0.0,0.0,0.0,0.0,0.0,0.0,0.0,0.0,0.0,0.0,0.0,0.0,0.0,0.0,0.0,0.0,0.0,0.0,0.0,0.0,0.0,0.0,0.0,0.0,0.0,0.0,0.0,0.0,0.0,0.0,0.0,0.0,2.2725,2.4367,2.5334,2.5878,2.5769,2.5761,2.49,0.0,0.0,0.0,0.0,0.0,0.0,0.0,0.0,0.0,0.0,0.0,0.0,0.0,0.0,0.0,0.0,0.0,0.0,0.0,0.0,0.0,0.0,0.0,0.0,0.0,0.0,0.0,0.0,0.0,0.0,0.0,0.0,0.0,0.0,0.0,0.0,0.0,0.0,0.0,0.0,0.0,0.0,0.0,0.0,0.0,0.0,0.0,0.0,0.0,0.0,0.0,0.0,0.0,0.0,0.0,0.0,0.0,0.0,0.0,0.0,0.0,0.0,0.0,0.0,0.0,0.0,0.0,0.0,0.0,0.0,0.0,0.0,0.0,0.0,0.0,0.0,0.0,0.0,0.0,0.0,0.0,0.0,0.0,0.0,0.0,0.0,0.0,0.0,0.0,0.0,0.0,0.0,0.0,0.0,0.0,0.0,0.0,0.0,0.0,0.0,0.0,0.0,0.0,0.0,0.0,0.0,0.0,0.0,0.0,2.6151,2.7589,2.8329,2.8292,2.716,2.603,0.0,0.0,0.0,0.0,0.0,0.0,0.0,0.0,0.0,0.0,0.0,0.0,0.0,0.0,0.0,0.0,0.0,0.0,0.0,0.0,0.0,0.0,0.0,0.0,0.0,0.0,0.0,0.0,0.0,0.0,0.0,0.0,0.0,0.0,0.0,0.0,0.0,0.0,0.0,0.0,0.0,0.0,0.0,0.0,0.0,0.0,0.0,0.0,0.0,0.0,0.0,0.0,0.0,0.0,0.0,0.0,0.0,0.0,0.0,0.0,0.0,0.0,0.0,0.0,0.0,0.0,0.0,0.0,0.0,0.0,0.0,0.0,0.0,0.0,0.0,0.0,0.0,0.0,0.0,0.0,0.0,0.0,0.0,0.0,0.0,0.0,0.0,0.0,0.0,0.0,0.0,0.0,0.0,0.0,0.0,0.0,0.0,0.0,0.0,0.0,0.0,0.0,0.0,0.0,0.0,0.0,0.0,0.0,0.0,3.02,3.0394,3.0472,3.0472,2.9106,2.7665,2.6184,0.0,0.0,0.0,0.0,0.0,0.0,0.0,0.0,0.0,0.0,0.0,0.0,0.0,0.0,0.0,0.0,0.0,0.0,0.0,0.0,0.0,0.0,0.0,0.0,0.0,0.0,0.0,0.0,0.0,0.0,0.0,0.0,0.0,0.0,0.0,0.0,0.0,0.0,0.0,0.0,0.0,0.0,0.0,0.0,0.0,0.0,0.0,0.0,0.0,0.0,0.0,0.0,0.0,0.0,0.0,0.0,0.0,0.0,0.0,0.0,0.0,0.0,0.0,0.0,0.0,0.0,0.0,0.0,0.0,0.0,0.0,0.0,0.0,0.0,0.0,0.0,0.0,0.0,0.0,0.0,0.0,0.0,0.0,0.0,0.0,0.0,0.0,0.0,0.0,0.0,0.0,0.0,0.0,0.0,0.0,0.0,0.0,0.0,0.0,0.0,0.0,0.0,0.0,0.0,0.0,0.0,0.0,0.0,3.5967,3.3902,3.2696,3.2501,3.1598,2.9883,0.0,0.0,0.0,0.0,0.0,0.0,0.0,0.0,0.0,0.0,0.0,0.0,0.0,0.0,0.0,0.0,0.0,0.0,0.0,0.0,0.0,0.0,0.0,0.0,0.0,0.0,0.0,0.0,0.0,0.0,0.0,0.0,0.0,0.0,0.0,0.0,0.0,0.0,0.0,0.0,0.0,0.0,0.0,0.0,0.0,0.0,0.0,0.0,0.0,0.0,0.0,0.0,0.0,0.0,0.0,0.0,0.0,0.0,0.0,0.0,0.0,0.0,0.0,0.0,0.0,0.0,0.0,0.0,0.0,0.0,0.0,0.0,0.0,0.0,0.0,0.0,0.0,0.0,0.0,0.0,0.0,0.0,0.0,0.0,0.0,0.0,0.0,0.0,0.0,0.0,0.0,0.0,0.0,0.0,0.0,0.0,0.0,0.0,0.0,0.0,0.0,0.0,0.0,0.0,0.0,0.0,0.0,0.0,0.0,3.7738,3.9607,3.9374,3.6923,3.535,3.3355,0.0,0.0,0.0,0.0,0.0,0.0,0.0,0.0,0.0,0.0,0.0,0.0,0.0,0.0,0.0,0.0,0.0,0.0,0.0,0.0,0.0,0.0,0.0,0.0,0.0,0.0,0.0,0.0,0.0,0.0,0.0,0.0,0.0,0.0,0.0,0.0,0.0,0.0,0.0,0.0,0.0,0.0,0.0,0.0,0.0,0.0,0.0,0.0,0.0,0.0,0.0,0.0,0.0,0.0,0.0,0.0,0.0,0.0,0.0,0.0,0.0,0.0,0.0,0.0,0.0,0.0,0.0,0.0,0.0,0.0,0.0,0.0,0.0,0.0,0.0,0.0,0.0,0.0,0.0,0.0,0.0,0.0,0.0,0.0,0.0,0.0,0.0,0.0,0.0,0.0,0.0,0.0,0.0,0.0,0.0,0.0,0.0,0.0,0.0,0.0,0.0,0.0,0.0,0.0,0.0,0.0,0.0,0.0,3.6932,4.057,4.3288,4.3712,4.1758,3.9338,3.6494,0.0,0.0,0.0,0.0,0.0,0.0,0.0,0.0,0.0,0.0,0.0,0.0,0.0,0.0,0.0,0.0,0.0,0.0,0.0,0.0,0.0,0.0,0.0,0.0,0.0,0.0,0.0,0.0,0.0,0.0,0.0,0.0,0.0,0.0,0.0,0.0,0.0,0.0,0.0,0.0,0.0,0.0,0.0,0.0,0.0,0.0,0.0,0.0,0.0,0.0,0.0,0.0,0.0,0.0,0.0,0.0,0.0,0.0,0.0,0.0,0.0,0.0,0.0,0.0,0.0,0.0,0.0,0.0,0.0,0.0,0.0,0.0,0.0,0.0,0.0,0.0,0.0,0.0,0.0,0.0,0.0,0.0,0.0,0.0,0.0,0.0,0.0,0.0,0.0,0.0,0.0,0.0,0.0,0.0,0.0,0.0,0.0,0.0,0.0,0.0,0.0,0.0,0.0,0.0,0.0,0.0,0.0,0.0,3.8799,4.3607,4.5538,4.6449,4.6275,4.3056,3.9249,0.0,0.0,0.0,0.0,0.0,0.0,0.0,0.0,0.0,0.0,0.0,0.0,0.0,0.0,0.0,0.0,0.0,0.0,0.0,0.0,0.0,0.0,0.0,0.0,0.0,0.0,0.0,0.0,0.0,0.0,0.0,0.0,0.0,0.0,0.0,0.0,0.0,0.0,0.0,0.0,0.0,0.0,0.0,0.0,0.0,0.0,0.0,0.0,0.0,0.0,0.0,0.0,0.0,0.0,0.0,0.0,0.0,0.0,0.0,0.0,0.0,0.0,0.0,0.0,0.0,0.0,0.0,0.0,0.0,0.0,0.0,0.0,0.0,0.0,0.0,0.0,0.0,0.0,0.0,0.0,0.0,0.0,0.0,0.0,0.0,0.0,0.0,0.0,0.0,0.0,0.0,0.0,0.0,0.0,0.0,0.0,0.0,0.0,0.0,0.0,0.0,0.0,0.0,0.0,0.0,0.0,0.0,0.0,4.1441,4.4517,4.7575,4.8807,4.8059,4.4773,4.0956,0.0,0.0,0.0,0.0,0.0,0.0,0.0,0.0,0.0,0.0,0.0,0.0,0.0,0.0,0.0,0.0,0.0,0.0,0.0,0.0,0.0,0.0,0.0,0.0,0.0,0.0,0.0,0.0,0.0,0.0,0.0,0.0,0.0,0.0,0.0,0.0,0.0,0.0,0.0,0.0,0.0,0.0,0.0,0.0,0.0,0.0,0.0,0.0,2.8268,0.0,0.0,0.0,0.0,0.0,0.0,0.0,0.0,0.0,0.0,0.0,0.0,0.0,0.0,0.0,0.0,0.0,0.0,0.0,0.0,0.0,0.0,0.0,0.0,0.0,0.0,0.0,0.0,0.0,0.0,0.0,0.0,0.0,0.0,0.0,0.0,0.0,0.0,0.0,0.0,0.0,0.0,0.0,0.0,0.0,0.0,0.0,0.0,0.0,0.0,0.0,0.0,0.0,0.0,0.0,0.0,0.0,0.0,0.0,4.3077,4.5953,4.8626,4.9746,4.9148,4.6698,4.3311,0.0,0.0,0.0,0.0,0.0,0.0,0.0,0.0,0.0,0.0,0.0,0.0,0.0,0.0,0.0,0.0,0.0,0.0,0.0,0.0,0.0,0.0,0.0,0.0,0.0,0.0,0.0,0.0,0.0,0.0,0.0,0.0,0.0,0.0,0.0,0.0,0.0,0.0,0.0,0.0,0.0,0.0,0.0,0.0,0.0,0.0,0.0,0.0,0.0,0.0,0.0,0.0,0.0,0.0,0.0,0.0,0.0,0.0,0.0,0.0,0.0,0.0,0.0,0.0,0.0,0.0,0.0,0.0,0.0,0.0,0.0,0.0,0.0,0.0,0.0,0.0,0.0,0.0,0.0,0.0,0.0,0.0,0.0,0.0,0.0,0.0,0.0,0.0,0.0,0.0,0.0,0.0,0.0,0.0,0.0,0.0,0.0,0.0,0.0,0.0,0.0,0.0,0.0,0.0,0.0,0.0,0.0,4.0718,4.4557,4.7868,4.9686,5.0494,5.0291,4.8564,4.5689,4.1505,0.0,0.0,0.0,0.0,0.0,0.0,0.0,0.0,0.0,0.0,0.0,0.0,0.0,0.0,0.0,0.0,0.0,0.0,0.0,0.0,0.0,0.0,0.0,0.0,0.0,0.0,0.0,0.0,0.0,0.0,0.0,0.0,0.0,0.0,0.0,0.0,0.0,0.0,2.6975,3.0032,0.0,0.0,0.0,0.0,0.0,0.0,0.0,0.0,3.4197,0.0,0.0,0.0,0.0,0.0,0.0,0.0,0.0,0.0,0.0,0.0,0.0,0.0,0.0,0.0,0.0,0.0,0.0,0.0,0.0,0.0,0.0,0.0,0.0,0.0,0.0,0.0,0.0,0.0,0.0,0.0,0.0,0.0,0.0,0.0,0.0,0.0,0.0,0.0,0.0,0.0,0.0,0.0,0.0,0.0,0.0,0.0,0.0,0.0,0.0,0.0,0.0,0.0,0.0,0.0,0.0,3.9123,4.3371,4.7217,5.0581,5.2356,5.2901,5.2134,4.9819,4.6859,4.3222,0.0,0.0,0.0,0.0,0.0,0.0,0.0,0.0,0.0,0.0,0.0,0.0,0.0,0.0,0.0,0.0,0.0,0.0,0.0,0.0,0.0,0.0,0.0,0.0,0.0,0.0,0.0,0.0,0.0,0.0,0.0,0.0,0.0,0.0,0.0,0.0,0.0,0.0,0.0,3.3349,3.4808,0.0,0.0,0.0,0.0,0.0,0.0,0.0,0.0,3.6986,0.0,0.0,0.0,0.0,0.0,0.0,0.0,0.0,0.0,0.0,0.0,0.0,0.0,0.0,0.0,0.0,0.0,0.0,0.0,0.0,0.0,0.0,0.0,0.0,0.0,0.0,0.0,0.0,0.0,0.0,0.0,0.0,0.0,0.0,0.0,0.0,0.0,0.0,0.0,0.0,0.0,0.0,0.0,0.0,0.0,0.0,0.0,0.0,0.0,0.0,0.0,0.0,0.0,0.0,0.0,4.0448,4.5163,4.8779,5.1252,5.3022,5.349,5.2576,5.0143,4.6952,0.0,0.0,0.0,0.0,0.0,0.0,0.0,0.0,0.0,0.0,0.0,0.0,0.0,0.0,0.0,0.0,0.0,0.0,0.0,0.0,0.0,0.0,0.0,0.0,0.0,0.0,0.0,0.0,0.0,0.0,0.0,0.0,0.0,0.0,0.0,0.0,0.0,0.0,0.0,0.0,3.6214,3.8009,3.8391,0.0,0.0,0.0,0.0,0.0,0.0,4.031,3.9431,0.0,0.0,0.0,0.0,0.0,0.0,0.0,0.0,0.0,0.0,0.0,0.0,0.0,0.0,0.0,0.0,0.0,0.0,0.0,0.0,0.0,0.0,0.0,0.0,0.0,0.0,0.0,0.0,0.0,0.0,0.0,0.0,0.0,0.0,0.0,0.0,0.0,0.0,0.0,0.0,0.0,0.0,0.0,0.0,0.0,0.0,0.0,0.0,0.0,0.0,0.0,0.0,0.0,0.0,0.0,4.1575,4.6683,5.0221,5.204,5.3611,5.3922,5.2853,5.0221,4.6761,0.0,0.0,0.0,0.0,0.0,0.0,0.0,0.0,0.0,0.0,0.0,0.0,0.0,0.0,0.0,0.0,0.0,0.0,0.0,0.0,0.0,0.0,0.0,0.0,0.0,0.0,0.0,0.0,0.0,0.0,0.0,0.0,0.0,0.0,0.0,0.0,0.0,0.0,0.0,0.0,0.0,4.0721,4.1256,4.1294,0.0,0.0,0.0,0.0,4.3558,4.2947,0.0,0.0,0.0,0.0,0.0,0.0,0.0,0.0,0.0,0.0,0.0,0.0,0.0,0.0,0.0,0.0,0.0,0.0,0.0,0.0,0.0,0.0,0.0,0.0,0.0,0.0,0.0,0.0,0.0,0.0,0.0,0.0,0.0,0.0,0.0,0.0,0.0,0.0,0.0,0.0,0.0,0.0,0.0,0.0,0.0,0.0,0.0,0.0,0.0,0.0,0.0,0.0,0.0,0.0,0.0,0.0,4.3289,4.8397,5.2212,5.4628,5.5684,5.5411,5.3771,5.0541,4.6761,0.0,0.0,0.0,0.0,0.0,0.0,0.0,0.0,0.0,0.0,0.0,0.0,0.0,0.0,0.0,0.0,0.0,0.0,0.0,0.0,0.0,0.0,0.0,0.0,0.0,0.0,0.0,0.0,0.0,0.0,0.0,0.0,0.0,0.0,0.0,0.0,0.0,0.0,0.0,0.0,0.0,4.2183,4.4409,4.4704,4.4704,0.0,0.0,4.5316,4.6948,4.5889,0.0,0.0,0.0,0.0,0.0,0.0,0.0,0.0,0.0,0.0,0.0,0.0,0.0,0.0,0.0,0.0,0.0,0.0,0.0,0.0,0.0,0.0,0.0,0.0,0.0,0.0,0.0,0.0,0.0,0.0,0.0,0.0,0.0,0.0,0.0,0.0,0.0,0.0,0.0,0.0,0.0,0.0,0.0,0.0,0.0,0.0,0.0,0.0,0.0,0.0,0.0,0.0,0.0,0.0,0.0,3.9435,4.5007,4.9683,5.3073,5.5134,5.6074,5.5883,5.4671,5.1281,4.7462,0.0,0.0,0.0,0.0,0.0,0.0,0.0,0.0,0.0,0.0,0.0,0.0,0.0,0.0,0.0,0.0,0.0,0.0,0.0,0.0,0.0,0.0,0.0,0.0,0.0,0.0,0.0,0.0,0.0,0.0,0.0,0.0,0.0,0.0,0.0,0.0,0.0,0.0,0.0,0.0,0.0,0.0,4.6347,4.7532,0.0,0.0,0.0,4.8716,5.0397,0.0,0.0,0.0,0.0,0.0,0.0,0.0,0.0,0.0,0.0,0.0,0.0,0.0,0.0,0.0,0.0,0.0,0.0,0.0,0.0,0.0,0.0,0.0,0.0,0.0,0.0,0.0,0.0,0.0,0.0,0.0,0.0,0.0,0.0,0.0,0.0,0.0,0.0,0.0,0.0,0.0,0.0,0.0,0.0,0.0,0.0,0.0,0.0,0.0,0.0,0.0,0.0,0.0,0.0,0.0,0.0,0.0,4.6764,5.1086,5.4199,5.6074,5.6814,5.6697,5.5801,5.2489,0.0,0.0,0.0,0.0,0.0,0.0,0.0,0.0,0.0,0.0,0.0,0.0,0.0,0.0,0.0,0.0,0.0,0.0,0.0,0.0,0.0,0.0,0.0,0.0,0.0,0.0,0.0,2.0794,0.0,0.0,0.0,0.0,0.0,0.0,0.0,0.0,0.0,0.0,0.0,0.0,0.0,0.0,4.5382,4.8361,4.9977,5.1009,0.0,0.0,5.1429,5.2881,5.1009,4.8907,0.0,0.0,0.0,0.0,0.0,0.0,0.0,0.0,0.0,0.0,0.0,0.0,0.0,0.0,0.0,0.0,0.0,0.0,0.0,0.0,0.0,0.0,0.0,0.0,0.0,0.0,0.0,0.0,0.0,0.0,0.0,0.0,0.0,0.0,0.0,0.0,0.0,0.0,0.0,0.0,0.0,0.0,0.0,0.0,0.0,0.0,0.0,0.0,0.0,0.0,0.0,0.0,0.0,0.0,4.1773,4.8475,5.284,5.6191,5.8646,5.8802,5.8412,5.7516,5.4203,5.0431,0.0,0.0,0.0,0.0,0.0,0.0,0.0,0.0,0.0,0.0,0.0,0.0,0.0,0.0,0.0,0.0,0.0,0.0,0.0,0.0,0.0,0.0,0.0,0.0,0.0,0.0,0.0,0.0,0.0,0.0,0.0,0.0,0.0,0.0,0.0,0.0,0.0,0.0,0.0,0.0,0.0,4.6691,5.0779,5.2079,5.2919,0.0,0.0,5.2957,5.3874,5.1888,4.9939,4.906,0.0,0.0,0.0,0.0,0.0,0.0,0.0,0.0,0.0,0.0,0.0,0.0,0.0,0.0,0.0,0.0,0.0,0.0,0.0,0.0,0.0,0.0,0.0,0.0,0.0,0.0,0.0,0.0,0.0,0.0,0.0,0.0,0.0,0.0,0.0,0.0,0.0,0.0,0.0,0.0,0.0,0.0,0.0,0.0,0.0,0.0,0.0,0.0,0.0,0.0,0.0,0.0,0.0,4.2145,4.951,5.326,5.6418,5.8862,5.8979,5.8858,5.8533,5.5697,5.2668,0.0,0.0,0.0,0.0,0.0,0.0,0.0,0.0,0.0,0.0,0.0,0.0,0.0,0.0,0.0,0.0,0.0,0.0,0.0,0.0,0.0,0.0,0.0,0.0,0.0,0.0,0.0,0.0,3.4565,3.588,3.5584,0.0,0.0,0.0,0.0,0.0,0.0,0.0,0.0,0.0,0.0,4.8181,5.1811,5.3492,0.0,0.0,5.46,5.4677,5.5517,5.3492,5.1544,5.0779,4.6615,0.0,0.0,0.0,0.0,0.0,0.0,0.0,0.0,0.0,0.0,0.0,0.0,0.0,0.0,0.0,0.0,0.0,0.0,0.0,0.0,0.0,0.0,0.0,0.0,0.0,0.0,0.0,0.0,0.0,0.0,0.0,0.0,0.0,0.0,0.0,0.0,0.0,0.0,0.0,0.0,0.0,0.0,0.0,0.0,0.0,0.0,0.0,0.0,0.0,0.0,0.0,0.0,4.2966,5.0378,5.4092,5.7216,5.9705,5.9783,5.9775,5.972,5.7549,5.5142,0.0,0.0,0.0,0.0,0.0,0.0,0.0,0.0,0.0,0.0,0.0,0.0,0.0,0.0,0.0,0.0,0.0,0.0,0.0,0.0,0.0,0.0,0.0,0.0,0.0,0.0,0.0,0.0,3.6637,3.6676,3.4967,0.0,0.0,0.0,0.0,0.0,0.0,0.0,0.0,0.0,0.0,4.9786,5.311,5.4639,5.5479,5.5708,5.5556,5.5517,5.5785,5.4142,5.2461,5.1391,0.0,0.0,0.0,0.0,0.0,0.0,0.0,0.0,0.0,0.0,0.0,0.0,0.0,0.0,0.0,0.0,0.0,0.0,0.0,0.0,0.0,0.0,0.0,0.0,0.0,0.0,0.0,0.0,0.0,0.0,2.43,0.0,0.0,0.0,0.0,0.0,0.0,0.0,0.0,0.0,0.0,0.0,0.0,0.0,0.0,0.0,0.0,0.0,0.0,0.0,0.0,0.0,0.0,4.4345,5.1193,5.5486,5.8925,6.14,6.1517,6.1478,6.1439,5.9879,5.7779,5.5059,0.0,0.0,0.0,0.0,0.0,0.0,0.0,0.0,0.0,0.0,0.0,0.0,0.0,0.0,0.0,0.0,0.0,0.0,0.0,0.0,0.0,0.0,0.0,0.0,0.0,0.0,3.7882,3.8152,3.6808,0.0,0.0,0.0,0.0,0.0,0.0,0.0,0.0,0.0,0.0,4.8143,5.1467,5.483,5.5365,5.567,5.6396,5.5899,5.5135,5.4371,5.3416,5.2231,0.0,0.0,0.0,0.0,0.0,0.0,0.0,0.0,0.0,0.0,0.0,0.0,0.0,0.0,0.0,0.0,0.0,0.0,0.0,0.0,0.0,0.0,0.0,0.0,0.0,0.0,0.0,3.2255,3.1153,0.0,0.0,0.0,0.0,0.0,0.0,0.0,0.0,0.0,0.0,0.0,4.4072,4.4066,0.0,0.0,0.0,0.0,0.0,0.0,0.0,0.0,0.0,0.0,0.0,0.0,4.4678,5.1962,5.5829,5.8995,6.1495,6.1573,6.1569,6.1595,6.0477,5.7882,5.3654,0.0,0.0,0.0,0.0,0.0,0.0,0.0,0.0,0.0,0.0,0.0,0.0,0.0,0.0,0.0,0.0,0.0,0.0,0.0,0.0,0.0,0.0,0.0,0.0,0.0,3.7489,0.0,0.0,0.0,0.0,0.0,0.0,0.0,0.0,0.0,0.0,0.0,4.3962,4.8133,5.0585,5.2805,5.5097,5.539,5.5517,0.0,0.0,0.0,0.0,0.0,0.0,0.0,0.0,0.0,0.0,0.0,0.0,0.0,0.0,4.4694,4.16,4.1294,4.1409,4.1103,0.0,0.0,0.0,0.0,0.0,0.0,0.0,0.0,0.0,0.0,0.0,0.0,0.0,0.0,3.8179,0.0,3.5973,0.0,0.0,0.0,0.0,0.0,0.0,0.0,0.0,4.5936,4.8028,4.9611,4.965,4.9379,0.0,4.7673,4.4846,0.0,0.0,0.0,0.0,0.0,0.0,0.0,0.0,4.5948,5.2381,5.6212,5.9221,6.1408,6.1525,6.152,6.1505,6.0706,5.8554,5.5003,5.2074,4.79,0.0,0.0,0.0,0.0,0.0,0.0,0.0,0.0,0.0,0.0,0.0,0.0,0.0,0.0,0.0,0.0,0.0,0.0,0.0,0.0,0.0,0.0,0.0,3.9676,0.0,0.0,0.0,0.0,0.0,0.0,0.0,0.0,0.0,4.0863,4.379,4.7197,5.0806,5.2432,5.376,5.5212,0.0,0.0,0.0,0.0,0.0,0.0,0.0,5.4753,5.418,5.3874,5.3339,5.227,5.1162,5.0627,5.12,0.0,0.0,4.7379,4.6871,4.7073,4.7062,4.7073,4.7073,4.7073,4.7494,4.8067,0.0,0.0,0.0,0.0,0.0,0.0,0.0,0.0,4.4712,4.4573,0.0,4.2772,0.0,0.0,0.0,0.0,0.0,4.1422,0.0,0.0,5.1094,5.3137,5.4641,5.468,5.4718,5.4641,5.2983,5.2135,5.1634,4.3928,0.0,0.0,0.0,0.0,0.0,0.0,4.8177,5.2525,5.6691,5.9658,6.1316,6.1394,6.14,6.14,6.0645,5.9825,5.8936,5.5723,5.2376,4.9019,4.3224,0.0,0.0,0.0,0.0,0.0,0.0,0.0,0.0,0.0,0.0,0.0,0.0,0.0,0.0,0.0,0.0,0.0,0.0,0.0,0.0,4.2309,0.0,0.0,0.0,0.0,0.0,0.0,0.0,0.0,0.0,0.0,4.4632,4.7287,5.0156,5.2721,0.0,0.0,0.0,0.0,5.6625,5.6639,5.7351,5.7313,5.5747,5.6129,5.6091,5.4524,0.0,0.0,5.5517,5.5479,5.5403,5.5479,5.6052,5.567,5.2499,5.2384,5.2805,5.2855,5.2805,5.2931,5.2919,5.2728,5.2843,4.8837,0.0,0.0,0.0,0.0,4.6007,4.7667,4.8988,5.044,5.0552,4.9639,4.8114,0.0,0.0,0.0,0.0,0.0,0.0,5.0105,5.3579,5.5619,5.7082,5.8094,5.8083,5.8083,5.8055,5.7005,5.6169,5.5476,5.2521,4.8235,4.2857,0.0,0.0,0.0,0.0,5.0673,5.4861,5.801,6.0127,6.1252,6.1252,6.1252,6.1252,6.1094,6.0585,5.9736,5.8186,5.5797,5.2485,4.8306,0.0,0.0,0.0,0.0,0.0,0.0,0.0,0.0,0.0,0.0,0.0,0.0,0.0,0.0,0.0,0.0,0.0,0.0,0.0,4.5547,4.5907,4.4465,0.0,0.0,0.0,0.0,0.0,0.0,0.0,0.0,0.0,5.1134,5.1764,5.285,0.0,0.0,5.6269,5.7059,5.739,5.7504,5.7504,5.7734,0.0,5.7275,5.739,5.7351,5.6893,5.7008,5.7351,5.7949,5.7581,5.7351,5.7925,5.823,5.823,5.7963,5.7046,5.6473,5.6434,5.6434,5.6434,5.6434,5.6434,5.6434,5.4589,5.0787,4.9477,4.9149,4.9627,5.1443,5.2746,5.3599,5.4963,5.5039,5.4138,5.3069,5.1606,4.9958,4.8604,0.0,0.0,0.0,5.4147,5.678,5.8127,5.9242,5.9973,6.0012,6.0012,5.9973,5.9511,5.9011,5.8484,5.7627,5.4993,5.0692,0.0,0.0,4.7331,4.9809,5.267,5.5909,5.8508,6.0267,6.1107,6.1107,6.1116,6.1104,6.1169,6.0932,6.0445,5.9638,5.8108,5.5793,5.24,4.8122,0.0,0.0,0.0,0.0,0.0,0.0,0.0,0.0,0.0,0.0,0.0,2.6173,3.0215,0.0,0.0,0.0,4.174,4.5877,4.8902,4.8412,0.0,0.0,0.0,0.0,0.0,0.0,0.0,4.7326,4.9663,5.2202,5.5088,5.5286,5.5692,5.7134,5.7264,5.7392,5.7823,0.0,5.8383,5.8383,5.8651,5.8765,5.8421,5.8651,5.888,5.8918,5.888,5.9033,5.9491,5.9185,5.9071,5.9491,5.9606,5.9797,6.0307,5.9568,5.888,5.888,5.888,5.888,5.888,5.888,5.888,5.8585,5.8315,5.5257,5.4375,5.504,5.5938,5.672,5.7562,5.8336,5.824,5.7497,5.7371,5.6377,5.4863,5.4053,0.0,5.4934,5.5665,5.6896,5.8511,5.9242,6.0012,6.0781,6.0781,6.0781,6.0781,6.0781,6.0781,6.0704,5.9973,5.9204,5.828,5.3741,5.0924,5.0153,5.2387,5.4419,5.6078,5.8469,6.0128,6.0976,6.0976,6.0969,6.0982,6.0915,6.0925,6.0932,6.0121,5.9318,5.8435,5.5405,5.1794,4.7656,0.0,0.0,0.0,0.0,0.0,0.0,0.0,0.0,0.0,0.0,0.0,0.0,0.0,0.0,0.0,4.7527,0.0,5.102,5.024,0.0,0.0,0.0,4.4624,4.397,4.7394,5.0164,5.1097,0.0,0.0,5.7176,5.8011,5.8504,5.85,5.8349,5.8208,5.8205,5.8956,5.9401,5.9515,6.0102,6.0293,5.972,6.0141,6.0613,6.0599,6.0613,6.0613,6.0637,6.0637,6.0613,6.0637,6.0613,6.0637,6.0599,6.0637,6.0599,6.0599,6.0446,6.0346,6.0269,6.0269,6.0231,6.0211,6.0173,5.9375,5.8477,5.7622,5.8442,5.8914,5.9114,5.9952,6.019,5.9876,5.921,5.8391,5.7429,5.7187,5.7561,5.8319,5.8511,5.9165,6.0204,6.0396,6.0589,6.0781,6.0781,6.0781,6.0781,6.0781,6.0781,6.0781,6.0589,6.005,5.9204,5.8011,5.6368,5.4339,5.5493,5.6659,5.7736,5.893,5.998,6.0827,6.0866,6.0839,6.085,6.0239,5.9924,5.9945,5.9176,5.8365,5.7532,5.6141,5.3713,5.0186,4.5561,0.0,0.0,0.0,0.0,0.0,0.0,0.0,0.0,0.0,3.3423,3.7855,0.0,4.3535,0.0,5.0298,5.2856,5.351,5.2818,0.0,0.0,5.0077,5.0279,5.0779,5.2279,5.3857,5.5329,5.6214,5.7511,5.9638,6.0089,6.0642,6.1748,6.0828,6.0188,6.072,6.1468,6.1998,6.1936,6.2089,6.2242,6.196,6.2166,6.228,6.2319,6.228,6.2319,6.2319,6.2319,6.2319,6.2319,6.2319,6.2319,6.2242,6.2319,6.228,6.2204,6.1287,6.0384,6.0384,6.0422,6.0422,6.0781,6.0781,6.0781,6.0288,5.9485,5.9997,6.0168,6.0173,6.0635,6.0816,6.0742,6.0281,5.9819,5.9435,5.9435,5.9665,6.0089,6.0089,6.0319,6.0781,6.0781,6.0781,6.0781,6.0781,6.0781,6.0781,6.0781,6.0781,6.0781,6.0781,6.055,6.0089,6.0089,5.9165,5.7473,5.7511,5.7819,5.8319,5.9473,6.0319,6.0781,6.0781,6.0627,6.0204,5.9469,5.8825,5.8451,5.7636,5.6973,5.6541,5.575,5.411,5.1503,4.8105,4.3851,0.0,0.0,0.0,0.0,0.0,0.0,0.0,0.0,0.0,0.0,0.0,4.7486,5.0741,5.302,5.4664,5.5511,5.5164,5.4549,5.3703,5.3933,5.4357,5.4857,5.6319,5.7665,5.8599,5.9319,6.0319,6.1704,6.1935,6.2231,6.3155,6.2708,6.2336,6.2333,6.2686,6.2949,6.2935,6.2906,6.2892,6.2892,6.2892,6.2892,6.2892,6.2892,6.2892,6.2892,6.2892,6.2892,6.2892,6.2892,6.2892,6.2892,6.2892,6.2892,6.2777,6.2204,6.1593,6.1516,6.1516,6.1516,6.0781,6.0781,6.0781,6.0781,6.0781,6.0781,6.0781,6.0781,6.0781,6.0781,6.0781,6.0781,6.0781,6.0781,6.0781,6.0781,6.0781,6.0781,6.0781,6.0781,6.0781,6.0781,6.0781,6.0781,6.0781,6.0781,6.0781,6.0781,6.0781,6.0781,6.0781,6.0781,6.0781,6.0358,5.9511,5.8781,5.8473,5.8473,6.0012,6.0781,6.0781,6.0781,6.0358,5.955,5.8742,5.7857,5.6868,5.6022,5.5549,5.5521,5.487,5.3812,5.2377,5.0064,4.6929,0.0,4.0383,0.0,0.0,0.0,0.0,0.0,0.0,0.0,0.0,4.8141,5.0904,5.4664,5.5626,5.6319,5.7088,5.7176,5.6945,5.6434,5.7022,5.7561,5.7868,5.9781,6.1127,6.1127,6.2397,6.332,6.3385,6.3474,6.3474,6.3769,6.436,6.45,6.3794,6.3521,6.3413,6.3298,6.3241,6.3427,6.3388,6.3312,6.3312,6.3274,6.335,6.3236,6.3312,6.3312,6.3274,6.3274,6.335,6.3312,6.3236,6.3274,6.3274,6.335,6.3274,6.3121,6.2853,6.2739,6.2892,6.0781,6.0781,6.0781,6.0781,6.0781,6.0734,6.0734,6.0781,6.0781,6.0781,6.0781,6.0781,6.0781,6.0781,6.0781,6.0781,6.0781,6.0781,6.0781,6.0781,6.0781,6.0781,6.0781,6.0781,6.0781,6.0781,6.0781,6.0781,6.0781,6.0781,6.0781,6.0781,6.0781,6.0358,5.955,0.0,0.0,0.0,6.0281,6.0781,6.0781,6.0781,6.0396,5.955,5.8742,0.0,5.6011,5.5164,5.4741,5.4703,5.4598,0.0,0.0,0.0,0.0,0.0,0.0,0.0,0.0,0.0,0.0,0.0,4.9827,5.0173,4.9875,5.3184,5.5945,5.7434,5.7742,5.7896,5.805,5.805,5.855,5.9665,5.9973,6.0589,6.1935,6.2551,6.282,6.2858,6.3115,6.3589,6.4282,6.4359,6.4666,6.5346,6.6064,6.6433,6.6266,6.5503,6.5058,6.4962,6.4932,6.4917,6.4917,6.4917,6.484,6.4917,6.4917,6.4879,6.484,6.484,6.4879,6.4879,6.4917,6.4879,6.4879,6.4917,6.4802,6.4917,6.4879,6.4496,6.3197,6.293,6.2892,6.0781,0.0,6.0757,6.0746,0.0,6.1095,6.1275,6.1261,6.0877,6.0685,6.0685,6.0724,6.0685,6.0724,6.0685,6.0966,6.1387,6.1387,6.1603,6.2012,6.205,6.205,6.205,6.2012,6.205,6.205,6.205,6.205,6.205,6.2012,6.205,6.2012,6.205,6.182,6.1396,6.1396,6.0781,5.9511,6.0358,6.0781,6.0781,6.0781,6.0396,5.9511,5.8704,0.0,0.0,0.0,0.0,0.0,0.0,0.0,0.0,5.4241,0.0,5.1356,5.0471,5.0173,5.0587,5.0971,5.2318,5.4857,5.6626,5.6511,5.4021,5.6165,5.7973,5.8819,5.9281,5.9704,6.0127,6.0512,6.1089,6.1897,6.2012,6.2397,6.3154,6.3705,6.3935,6.4051,6.4666,6.5359,6.5782,6.6244,6.6615,6.6999,6.7382,6.7596,6.7487,6.7069,6.6727,6.6652,6.6636,6.6636,6.6598,6.6254,6.6025,6.6025,6.5681,6.5452,6.5413,6.5413,6.5413,6.5413,6.5413,6.5413,6.5413,6.5413,6.5413,6.5413,6.5413,6.5184,6.4267,6.4153,6.4114,6.1207,6.1207,6.1158,6.1134,6.1172,6.1748,6.2015,6.1964,0.0,0.0,0.0,6.1045,6.1045,6.1045,6.1045,6.1467,6.2221,6.2221,6.2605,6.3269,6.3308,6.3308,6.3308,6.3308,6.3308,6.3308,6.3308,6.3308,6.3308,6.3308,6.3308,6.3308,6.3308,6.3308,6.3308,6.3308,6.2281,6.0319,6.0896,6.1243,6.1243,6.1243,6.0858,5.9973,5.9319,5.8511,5.7473,5.6637,5.6165,5.6126,5.6011,5.6049,5.6357,5.6357,5.6126,5.5665,5.5588,5.5972,5.678,5.6819,5.778,6.0012,6.1473,6.1062,5.8099,5.8704,5.9473,6.0127,6.0819,6.155,6.2243,6.2897,6.3346,6.3512,6.3551,6.3615,6.3974,6.4589,6.5128,6.5359,6.6474,6.7321,6.7321,6.7859,6.8371,6.8304,6.8353,6.8513,6.8418,6.8105,6.7768,6.776,6.7668,6.7821,6.7782,6.7362,6.6904,6.6636,6.6063,6.5605,6.5452,6.5413,6.5413,6.5413,6.5413,6.5413,6.5413,6.5413,6.5413,6.5413,6.5413,6.5413,6.5413,6.5375,6.5337,6.2758,6.2758,6.2745,6.2745,6.277,6.2818,6.2787,6.2744,6.2755,6.277,6.2757,6.277,6.277,6.277,6.2732,6.2848,6.3028,6.3028,6.3143,6.3308,6.3308,6.3308,6.3308,6.3308,6.3308,6.3308,6.3308,6.3308,6.3308,6.332,6.3308,6.3308,6.3308,6.3308,6.3308,6.3308,6.3115,6.2769,6.2897,6.2923,6.2962,6.2974,6.2551,6.1781,6.1601,6.0781,5.9204,5.8396,5.7934,5.7934,5.7203,5.7445,5.8858,5.8973,5.9242,5.9858,5.9935,6.0281,6.1139,6.1177,6.1666,6.2627,6.2974,6.2627,6.1524,6.2127,6.2654,6.2781,6.282,6.2974,6.3115,6.332,6.3743,6.432,6.4436,6.4974,6.6282,6.659,6.6936,6.759,6.8052,6.8205,6.8244,6.8398,6.8525,6.8444,6.8911,6.9398,6.9604,6.883,6.8027,6.7913,6.7897,6.7897,6.805,6.7859,6.7515,6.6789,6.6636,6.6292,6.5719,6.5605,6.5605,6.5452,6.5566,6.5528,6.549,6.5413,6.5452,6.5452,6.5413,6.5413,6.5413,6.5413,6.5413,6.3115,6.3102,6.3075,6.3061,6.3086,6.3475,6.3876,6.4267,6.4341,6.3834,6.303,6.2992,6.2992,6.2992,6.2992,6.3302,6.3792,6.3833,6.4129,6.4642,6.468,6.4705,6.4705,6.4705,6.4705,6.4705,6.4705,6.4705,6.4705,6.4705,6.4705,6.4705,6.4705,6.4705,6.4705,6.4705,6.4705,6.4705,6.3782,6.3308,6.3308,6.3308,6.3128,6.2743,6.2743,6.2397,6.1589,6.1204,6.1012,6.1012,6.0627,6.0781,6.1512,6.155,6.1743,6.2127,6.2166,6.2551,6.3397,6.3897,6.432,6.4705,6.4705,6.4589,6.4205,6.3628,6.3308,6.3308,6.3705,6.4012,6.4051,6.482,6.5551,6.5897,6.6359,6.6974,6.7628,6.7782,6.7975,6.8346,6.8821,6.909,6.909,6.9475,6.9717,6.9711,6.9917,7.0164,7.0359,6.9807,6.9234,6.9234,6.9273,6.9273,6.9196,6.8852,6.847,6.8088,6.763,6.7247,6.6789,6.6751,6.6713,6.6751,6.6751,6.656,6.6216,6.6101,6.591,6.5452,6.5413,6.5413,6.5413,6.5413,6.5413,6.3598,6.3636,6.358,6.3552,6.359,6.422,6.484,6.5413,6.5566,6.4955,6.3847,6.3579,6.3465,6.3465,6.3465,6.3853,6.4537,6.4824,6.5353,6.5997,6.6281,6.632,6.6141,6.6141,6.6077,6.5897,6.5897,6.5897,6.5897,6.5897,6.5897,6.5897,6.5897,6.5897,6.5897,6.5897,6.5897,6.582,6.4551,6.3897,6.3897,6.3897,6.3897,6.3897,6.3897,6.3897,6.3858,6.3705,6.3589,6.3577,6.3435,6.3397,6.3589,6.3577,6.3705,6.3858,6.3897,6.4166,6.4859,6.5513,6.5974,6.6167,6.6167,6.6244,6.632,6.5243,6.4359,6.4282,6.4859,6.5282,6.559,6.6551,6.7398,6.7436,6.7975,6.8398,6.8629,6.8706,6.8783,6.8975,6.9552,6.9975,7.009,7.0514,7.0755,7.0671,7.0693,7.0554,7.0451,7.0435,7.0402,7.0402,7.0402,7.0326,7.0381,6.9884,6.9425,6.9273,6.8623,6.8126,6.7897,6.7821,6.7859,6.7782,6.7821,6.7553,6.7095,6.698,6.6713,6.6254,6.6139,6.6063,6.6101,6.6101,6.591,6.5161,6.5199,6.5161,6.5199,6.5199,6.5261,6.5375,6.5566,6.6216,6.6522,6.6216,6.5528,6.5184,6.5184,6.5146,6.5267,6.5494,6.6236,6.6663,6.6873,6.7616,6.7606,6.6946,6.6907,6.6563,6.6051,6.5974,6.6051,6.6051,6.5936,6.5897,6.5897,6.5897,6.5897,6.5897,6.5897,6.5897,6.5897,6.5743,6.5667,6.5667,6.5667,6.5667,6.5667,6.5628,6.5667,6.5513,6.4897,6.4474,6.4436,6.3743,6.3705,6.4359,6.4474,6.482,6.5551,6.5628,6.5705,6.5782,6.5859,6.6244,6.691,6.6974,6.7282,6.8013,6.7936,6.7552,6.6936,6.6782,6.709,6.7936,6.8205,6.8282,6.8282,6.8436,6.8706,6.9436,6.959,6.986,7.0629,7.0667,7.0783,7.0821,7.1014,7.0986,7.107,7.0899,7.0754,7.0668,7.0506,7.0419,7.0419,7.0402,7.0402,7.0381,7.0364,6.996,6.9387,6.9158,6.8814,6.8432,6.8126,6.7935,6.8394,6.8126,6.805,6.7897,6.7782,6.7744,6.74,6.7362,6.7553,6.763,6.7515,6.7247,6.5563,6.5982,6.5982,6.6287,6.6668,6.6793,6.6825,6.6863,6.7254,6.74,6.7362,6.7018,6.6865,6.6865,6.6865,6.6896,6.6965,6.734,6.7523,6.7567,6.8033,6.8038,6.7745,6.7763,6.7574,6.7332,6.7372,6.7398,6.7282,6.6859,6.659,6.6551,6.6128,6.5897,6.5897,6.5897,6.5897,6.5897,6.5897,6.5897,6.5897,6.5897,6.5897,6.5897,6.5897,6.5897,6.5859,6.5551,6.5359,6.5359,6.5013,6.5013,6.5359,6.5359,6.5513,6.5897,6.632,6.659,6.6628,6.709,6.7513,6.7859,6.7859,6.8052,6.8359,6.8398,6.8436,6.859,6.8167,6.8052,6.8423,6.8859,6.9167,6.9244,6.959,7.0014,7.036,7.0437,7.0552,7.0898,7.136,7.1668,7.1745,7.2129,7.2356,7.2222,7.188,7.1475,7.129,7.086,7.0506,7.0419,7.0402,7.0402,7.0402,7.0402,7.0228,7.0037,6.9922,6.9693,6.9464,6.9387,6.9387,6.9349,6.9273,6.9043,6.8738,6.8623,6.8585,6.8279,6.7935,6.7897,6.7897,6.7897,6.7859,6.6035,6.6511,6.6567,6.6926,6.7476,6.7635,6.7724,6.7779,6.8046,6.8209,6.8247,6.847,6.8585,6.8547,6.8126,6.7897,6.7951,6.8189,6.8319,6.8357,6.8648,6.8693,6.8531,6.8537,6.8478,6.8328,6.8293,6.8371,6.8308,6.7821,6.7436,6.7359,6.6859,6.659,6.659,6.659,6.659,6.659,6.659,6.659,6.6628,6.659,6.6359,6.5974,6.5897,6.5897,6.5897,6.5897,6.5897,6.5897,6.609,6.6205,6.6244,6.6436,6.659,6.6628,6.7128,6.7475,6.7475,6.8052,6.8513,6.8744,6.8744,6.8859,6.9052,6.909,6.936,6.986,6.9475,6.9129,6.9167,6.9667,7.009,7.036,7.0937,7.1321,7.1591,7.1629,7.1668,7.1668,7.2245,7.2552,7.2629,7.3053,7.3332,7.3173,7.276,7.237,7.2103,7.152,7.0936,7.0779,7.061,7.0402,7.0402,7.0402,7.0402,7.0402,7.0326,7.0326,7.0402,7.0419,7.0381,6.9922,7.0288,7.025,6.9693,6.9464,6.9387,6.8852,6.8585,6.8585,6.8814,6.8623,6.8852,6.6973,6.6973,6.7032,6.7184,6.7165,6.7464,6.7554,6.7762,6.8524,6.8951,6.9082,6.9835,7.025,7.0059,6.8683,6.7935,6.805,6.8792,6.9174,6.9212,6.9862,6.9894,6.9284,6.9261,6.8953,6.8569,6.8559,6.8523,6.85,6.8398,6.8359,6.8308,6.8205,6.8205,6.8167,6.8129,6.8244,6.809,6.809,6.8205,6.8205,6.8244,6.7436,6.6205,6.5936,6.6013,6.5974,6.5936,6.5936,6.5936,6.6667,6.7051,6.709,6.7821,6.8167,6.8205,6.8269,6.8359,6.8359,6.8475,6.8859,6.9475,6.9629,6.9937,7.0475,7.0552,7.0629,7.0821,7.0744,7.0706,7.0783,7.0821,7.1206,7.1898,7.2091,7.2476,7.3206,7.3091,7.336,7.3283,7.3322,7.3514,7.3476,7.3476,7.3692,7.364,7.3404,7.3215,7.3008,7.2355,7.1794,7.1445,7.0992,7.0402,7.0402,7.0402,7.0402,7.0402,7.0402,7.0402,7.0402,7.0402,7.0402,7.0402,7.0402,7.0402,7.0381,7.0304,7.0228,6.9999,6.9922,6.9922,6.9655,7.0097,7.0173,6.6861,6.7385,6.7937,6.8227,6.8349,6.8555,6.8695,6.883,6.9395,6.9655,6.9711,7.0085,7.0289,7.0251,6.9692,6.9453,6.954,6.9846,6.996,6.9999,7.0266,7.0282,7.0047,7.0094,7.0026,6.9834,6.9846,6.9945,6.9923,6.9513,6.9244,6.9129,6.8654,6.8398,6.8398,6.8398,6.8398,6.8398,6.8398,6.8398,6.8423,6.8398,6.809,6.759,6.7513,6.7513,6.7513,6.7513,6.7513,6.7513,6.7782,6.7936,6.7975,6.8205,6.8398,6.8436,6.8936,6.9244,6.9283,6.9744,7.009,7.0398,7.0475,7.0591,7.0821,7.0898,7.1091,7.1552,7.1745,7.1937,7.2322,7.2091,7.2091,7.2822,7.3053,7.3168,7.3385,7.35,7.35,7.3591,7.3937,7.4476,7.4899,7.5091,7.5091,7.5053,7.4601,7.4181,7.3921,7.3284,7.2493,7.1882,7.145,7.103,7.0402,7.0402,7.0402,7.0402,7.0402,7.0402,7.0402,7.0402,7.0402,7.0402,7.0402,7.0402,7.0364,7.0364,7.0402,7.0402,7.0402,7.0402,7.0402,7.0402,7.0402,6.7212,6.7756,6.8362,6.8693,6.8786,6.8975,6.915,6.9277,6.9564,6.9739,6.9797,6.9948,7.0041,7.0077,7.0147,7.0199,7.0213,7.0281,7.0353,7.0336,7.0336,7.0319,7.0336,7.0424,7.0512,7.0522,7.0708,7.0787,7.0819,7.0346,7.009,7.0052,6.9475,6.9192,6.9179,6.9165,6.9152,6.9138,6.9152,6.9204,6.9165,6.9192,6.9206,6.9206,6.9206,6.8936,6.8436,6.8398,6.8398,6.8436,6.8667,6.8936,6.9167,6.9206,6.9206,6.9283,6.9744,7.009,7.0129,7.0591,7.0898,7.0937,7.1168,7.1321,7.1321,7.1552,7.2052,7.2476,7.2629,7.2976,7.3553,7.336,7.3245,7.3783,7.3899,7.4014,7.4284,7.4322,7.4361,7.4476,7.4822,7.5399,7.5861,7.5938,7.5938,7.5976,7.5462,7.5065,7.4804,7.4127,7.339,7.263,7.2291,7.1756,7.1221,7.0992,7.0648,7.0572,7.0402,7.0402,7.0402,7.0402,7.0402,7.0402,7.0402,7.0402,7.0402,7.0402,7.0402,7.0402,7.0402,7.0402,7.0402,7.0402,7.0402,6.8058,6.8084,6.8222,6.8297,6.8346,6.8552,6.8656,6.8817,6.9003,6.9214,6.9319,6.9562,6.9679,6.97,6.9873,6.9891,6.9872,7.0055,7.0164,7.0167,7.0167,7.0167,7.0167,7.0167,7.022,7.0286,7.0547,7.0699,7.0772,7.0752,7.0742,7.0808,7.0703,7.0508,7.071,7.0489,7.059,7.0507,7.0474,7.0594,7.0801,7.0665,7.0667,7.0706,7.0706,7.0052,6.859,6.8552,6.8629,6.8667,6.9283,7.0052,7.0591,7.0706,7.0783,7.0667,7.0821,7.086,7.086,7.0937,7.1052,7.1168,7.1706,7.2206,7.2283,7.2822,7.3322,7.3476,7.3514,7.386,7.4514,7.463,7.463,7.4707,7.4707,7.5014,7.5592,7.5899,7.5938,7.5822,7.5822,7.5938,7.5976,7.5976,7.5976,7.5962,7.584,7.5687,7.5478,7.4861,7.4396,7.3968,7.3399,7.2673,7.2138,7.1658,7.1145,7.0724,7.0533,7.0402,7.0402,7.0402,7.0402,7.0402,7.0402,7.0402,7.0402,7.0402,7.0402,7.0402,7.0402,7.0402,7.0402,7.0402,7.0402,6.782,6.7847,6.7873,6.7915,6.8018,6.8197,6.8346,6.8456,6.8656,6.8794,6.884,6.8997,6.9144,6.923,6.934,6.9382,6.9399,6.9463,6.9584,6.9853,6.9872,6.9796,6.9758,6.9738,6.9797,6.9965,7.0179,7.0364,7.0531,7.0586,7.0616,7.0616,7.0616,7.057,7.0547,7.0531,7.0515,7.0515,7.054,7.0639,7.0714,7.0787,7.0843,7.0885,7.0898,7.0629,7.0167,7.0129,7.0129,7.009,7.036,7.0629,7.086,7.0898,7.0898,7.0898,7.0898,7.0898,7.0975,7.1475,7.1783,7.1937,7.2591,7.3053,7.3091,7.336,7.3822,7.4192,7.4361,7.4668,7.5399,7.5592,7.5553,7.5592,7.5592,7.563,7.5899,7.5976,7.5976,7.5976,7.5976,7.5976,7.5976,7.5976,7.5976,7.5962,7.594,7.5826,7.567,7.5381,7.4877,7.4333,7.3858,7.3552,7.2902,7.2329,7.1871,7.1221,7.0801,7.0441,7.0402,7.0402,7.0402,7.0402,7.0402,7.0402,7.0402,7.0402,7.0402,7.0402,7.0402,7.0402,7.0402,7.0402,7.0402,6.7687,6.7687,6.7687,6.7741,6.7847,6.7926,6.8055,6.8146,6.8284,6.8383,6.8431,6.8552,6.8646,6.8763,6.8863,6.9095,6.9372,6.9357,6.9597,6.9976,6.988,6.9767,6.9627,6.9327,6.934,6.9544,6.9759,6.9945,7.0179,7.0298,7.0364,7.0364,7.0364,7.0315,7.0268,7.0268,7.0213,7.0196,7.026,7.0397,7.0547,7.0639,7.0743,7.0801,7.0843,7.0857,7.0857,7.0885,7.0898,7.0898,7.0898,7.0898,7.0898,7.0898,7.1052,7.1321,7.1398,7.1514,7.186,7.2399,7.2706,7.2822,7.3476,7.3937,7.4014,7.4168,7.4707,7.5053,7.5207,7.5399,7.5861,7.5976,7.5976,7.5976,7.5976,7.5976,7.5976,7.5976,7.5976,7.5976,7.5976,7.5976,7.5976,7.5976,7.6,7.597,7.5895,7.5817,7.5699,7.5599,7.5111,7.483,7.4754,7.424,7.3552,7.3055,7.2597,7.1871,7.1183,7.0724,7.0402,7.0402,7.0402,7.0402,7.0402,7.0402,7.0402,7.0402,7.0402,7.0402,7.0402,7.0402,7.0402,7.0402,7.0402,6.7687,6.7687,6.7687,6.7714,6.7714,6.7714,6.7794,6.7899,6.7889,6.7967,6.8095,6.8197,6.8346,6.8396,6.8666,6.9099,6.9657,6.9805,7.0165,7.0487,7.0338,7.0073,6.9785,6.9122,6.8923,6.9047,6.9261,6.9486,6.972,6.989,7.0055,6.9999,6.9999,7.0019,6.991,6.9948,6.9872,6.9835,6.9983,7.0109,7.0251,7.0381,7.0508,7.0639,7.0714,7.0758,7.0787,7.0857,7.0898,7.0898,7.0898,7.0937,7.0975,7.0975,7.1398,7.2168,7.2245,7.2629,7.3245,7.3476,7.3553,7.363,7.4284,7.4784,7.4861,7.5322,7.5707,7.5822,7.5861,7.5938,7.5976,7.5976,7.5976,7.5976,7.5976,7.5976,7.5976,7.5976,7.5976,7.5976,7.5976,7.5976,7.5976,7.6015,7.597,7.591,7.5794,7.5699,7.5633,7.5566,7.5535,7.5403,7.5251,7.4966,7.4278,7.3743,7.3323,7.2864,7.2062,7.1374,7.0686,7.0572,7.0402,7.0402,7.0402,7.0402,7.0402,7.0402,7.0402,7.0402,7.0402,7.0402,7.0402,7.0402,7.0402,6.7687,6.7687,6.7687,6.7687,6.7687,6.7687,6.7714,6.7767,6.7767,6.7794,6.782,6.7847,6.8257,6.8852,6.893,6.9425,7.0106,7.0201,7.0592,7.1175,7.1084,7.0349,6.9531,6.8804,6.8468,6.8552,6.8749,6.8915,6.923,6.9361,6.9426,6.9524,6.9524,6.9484,6.9419,6.9419,6.9478,6.9481,6.9602,6.9758,6.9928,7.0055,7.0196,7.0348,7.0429,7.0578,7.0699,7.0829,7.0898,7.0898,7.0898,7.1245,7.1783,7.186,7.2245,7.2976,7.3168,7.3245,7.3591,7.4091,7.4361,7.4476,7.513,7.563,7.5668,7.5861,7.5976,7.5976,7.5976,7.5976,7.5976,7.5976,7.5976,7.5976,7.5976,7.5976,7.5976,7.5976,7.5976,7.5976,7.5976,7.5976,7.6,7.597,7.5925,7.5864,7.5769,7.5633,7.5583,7.5532,7.5518,7.5518,7.5403,7.5365,7.5042,7.4507,7.4049,7.3819,7.3132,7.2291,7.1527,7.0916,7.0648,7.0402,7.0402,7.0402,7.0402,7.0402,7.0402,7.0402,7.0402,7.0402,7.0402,7.0402,7.0402,6.7687,6.7687,6.7687,6.7687,6.7687,6.7687,6.7687,6.7687,6.7687,6.7687,6.776,6.8054,6.8512,6.9007,6.9365,6.9981,7.0735,7.0754,7.1176,7.1691,7.112,7.0331,6.951,6.8657,6.8107,6.8146,6.8284,6.8528,6.8763,6.89,6.9012,6.91,6.9122,6.9116,6.9072,6.9072,6.9131,6.9181,6.9289,6.9399,6.9542,6.9661,6.9816,6.9945,7.0109,7.0264,7.0585,7.1029,7.1324,7.1409,7.1514,7.1822,7.2629,7.2745,7.3129,7.3899,7.4014,7.413,7.4553,7.5014,7.5245,7.5322,7.5784,7.5938,7.5976,7.5976,7.5976,7.5976,7.5976,7.5976,7.5976,7.5976,7.5976,7.5976,7.5976,7.5976,7.5976,7.5976,7.5976,7.5976,7.5976,7.5976,7.5976,7.594,7.5879,7.5794,7.5682,7.5599,7.5549,7.5535,7.5518,7.5518,7.5518,7.5442,7.5442,7.4966,7.4775,7.4507,7.4049,7.3208,7.2482,7.1642,7.1221,7.0954,7.0648,7.0441,7.0517,7.0495,7.0402,7.0402,7.0402,7.0402,7.0402,7.0402,7.0402,6.7687,6.7687,6.7687,6.7687,6.7687,6.7687,6.7687,6.7687,6.7687,6.776,6.7981,6.8605,6.9009,6.9192,7.0027,7.066,7.1431,7.1459,7.1798,7.1762,7.1064,7.0064,6.9871,6.8429,6.7894,6.7926,6.7993,6.8197,6.8395,6.8565,6.8721,6.8791,6.8838,6.8875,6.8838,6.8875,6.8875,6.8907,6.896,6.9072,6.9203,6.9273,6.9399,6.9582,7.0005,7.0267,7.0722,7.1347,7.2011,7.2405,7.2332,7.2731,7.3462,7.3615,7.4053,7.4668,7.4861,7.5168,7.5745,7.5822,7.5938,7.5899,7.5938,7.5976,7.5976,7.5976,7.5976,7.5976,7.5976,7.5976,7.5976,7.5976,7.5976,7.5976,7.5976,7.5976,7.5976,7.5976,7.5976,7.5976,7.5976,7.5976,7.6,7.594,7.5848,7.5763,7.5649,7.5566,7.5553,7.5535,7.5518,7.5518,7.5518,7.5518,7.548,7.5442,7.5365,7.5212,7.4736,7.4125,7.3552,7.2826,7.2176,7.1756,7.1603,7.1221,7.0801,7.0724,7.0648,7.0402,7.0402,7.0402,7.0402,7.0402,7.0402,6.7687,6.7687,6.7687,6.7687,6.7687,6.7687,6.7687,6.7687,6.7687,6.8054,6.8568,6.8862,6.9633,7.0734,7.0954,7.1505,7.2129,7.2202,7.2386,7.2202,7.0844,7.0146,6.9779,6.8495,6.7787,6.7767,6.7767,6.7863,6.8018,6.8197,6.8272,6.8432,6.8554,6.8578,6.8578,6.8602,6.865,6.8721,6.8768,6.8838,6.8929,6.896,6.905,6.93,7.0105,7.0725,7.1179,7.1916,7.2803,7.3301,7.3322,7.3484,7.4196,7.4394,7.4808,7.5399,7.5668,7.5784,7.5938,7.5976,7.5976,7.5976,7.5976,7.5976,7.5976,7.5976,7.5976,7.5976,7.5976,7.5976,7.5976,7.5976,7.5976,7.5976,7.5976,7.5976,7.5976,7.5976,7.5976,7.5976,7.5976,7.5976,7.5976,7.5841,7.5763,7.5676,7.5633,7.5514,7.548,7.5518,7.5518,7.5518,7.5518,7.5518,7.5518,7.5518,7.5518,7.5518,7.5157,7.4927,7.4354,7.3858,7.317,7.2826,7.2673,7.2138,7.1489,7.1374,7.1412,7.0954,7.0555,7.0763,7.0916,7.0724,7.0763,6.7687,6.7687,6.7687,6.7687,6.7687,6.7687,6.7687,6.776,6.8128,6.8495,6.9009,6.9633,7.0513,7.1293,7.1725,7.2129,7.2422,7.2532,7.2496,7.2239,7.1211,7.0477,6.9889,6.8898,6.8128,6.776,6.7714,6.7794,6.7863,6.7967,6.8107,6.8208,6.8334,6.8408,6.8408,6.8457,6.853,6.8578,6.8602,6.8626,6.8697,6.8697,6.9029,6.9415,7.0217,7.0835,7.1412,7.2291,7.3037,7.3593,7.3911,7.4303,7.4973,7.518,7.5547,7.5861,7.5976,7.5976,7.5976,7.5976,7.5976,7.5976,7.5976,7.5976,7.5976,7.5976,7.5976,7.5976,7.5976,7.5976,7.5976,7.5976,7.5976,7.5976,7.5976,7.5976,7.5976,7.5976,7.5976,7.5976,7.5976,7.5976,7.5932,7.5826,7.5724,7.5676,7.5583,7.5518,7.5518,7.5518,7.5518,7.5518,7.5518,7.5518,7.5518,7.5518,7.5518,7.5518,7.5403,7.531,7.5098,7.4584,7.4087,7.3781,7.3437,7.2902,7.2329,7.2291,7.2215,7.2062,7.1833,7.168,7.1642,7.1794,7.1909,6.7687,6.7687,6.7687,6.7687,6.7687,6.7687,6.7687,6.7797,6.8531,6.8935,6.9339,7.0697,7.1248,7.1651,7.2165,7.2496,7.2532,7.2532,7.2532,7.2349,7.1615,7.0917,7.0257,6.9522,6.8678,6.7944,6.7724,6.7767,6.7847,6.7926,6.8004,6.8107,6.8208,6.8259,6.8309,6.8383,6.8457,6.8457,6.8506,6.8506,6.853,6.8567,6.895,6.9751,7.0327,7.0983,7.1772,7.2613,7.3273,7.3527,7.4296,7.4942,7.5403,7.5747,7.5879,7.5902,7.5917,7.5985,7.5985,7.5962,7.5976,7.5976,7.5976,7.5976,7.5976,7.5976,7.5976,7.5976,7.5976,7.5976,7.5976,7.5976,7.5976,7.5976,7.5976,7.5976,7.5976,7.5976,7.5976,7.5976,7.5976,7.5976,7.5932,7.5841,7.574,7.566,7.5566,7.5518,7.5518,7.5518,7.5518,7.5518,7.5518,7.5518,7.5518,7.5518,7.5518,7.5518,7.5518,7.5518,7.5518,7.5174,7.4698,7.4469,7.4049,7.359,7.3284,7.317,7.3132,7.3132,7.2864,7.2444,7.2559,7.2941,7.2902,6.7687,6.7687,6.7687,6.7687,6.7687,6.7687,6.7687,6.7834,6.8605,6.9302,6.9963,7.0917,7.1762,7.2165,7.2386,7.2532,7.2532,7.2532,7.2532,7.2386,7.1762,7.1211,7.0881,7.0257,6.9449,6.8678,6.8201,6.7898,6.7767,6.781,6.7863,6.7941,6.8044,6.8095,6.8183,6.8259,6.8334,6.8358,6.8408,6.8457,6.8457,6.863,6.905,6.9953,7.0646,7.1451,7.2307,7.314,7.3736,7.3902,7.4245,7.4509,7.4841,7.5225,7.5476,7.5682,7.5779,7.5879,7.591,7.597,7.5962,7.5976,7.5976,7.5976,7.5976,7.5976,7.5976,7.5976,7.6015,7.6015,7.5976,7.5962,7.6,7.6015,7.5962,7.5962,7.5962,7.5962,7.5947,7.5947,7.5962,7.5947,7.5887,7.581,7.5747,7.5628,7.5566,7.5518,7.5518,7.5518,7.5518,7.5518,7.5518,7.5518,7.5518,7.5518,7.5518,7.5518,7.5518,7.5518,7.5518,7.5518,7.5289,7.4966,7.4851,7.4622,7.4354,7.4087,7.3858,7.3705,7.3399,7.3093,7.3399,7.3667,7.3437,6.7687,6.7687,6.7687,6.7687,6.7687,6.7687,6.7687,6.7871,6.8972,6.9743,7.0367,7.1358,7.2129,7.2422,7.2532,7.2532,7.2532,7.2532,7.2532,7.2386,7.2092,7.1651,7.1394,7.0881,7.0257,6.9633,6.9082,6.8421,6.7787,6.7767,6.7894,6.7847,6.7915,6.7967,6.8018,6.8132,6.8183,6.8234,6.8284,6.8309,6.8383,6.8692,6.9484,7.0376,7.1244,7.205,7.2845,7.328,7.3628,7.3777,7.3899,7.4052,7.429,7.4573,7.496,7.5336,7.5583,7.5715,7.5779,7.591,7.5955,7.5976,7.5976,7.5976,7.5976,7.5976,7.5976,7.6,7.597,7.5955,7.594,7.5887,7.5856,7.5856,7.5856,7.5856,7.5856,7.5856,7.5856,7.5872,7.5872,7.5856,7.5826,7.5747,7.5682,7.5616,7.5549,7.5497,7.5518,7.5518,7.5518,7.5518,7.5518,7.5518,7.5518,7.5518,7.5518,7.5518,7.5518,7.5518,7.5518,7.5518,7.5518,7.5365,7.531,7.5233,7.5195,7.4813,7.4545,7.4354,7.4316,7.4316,7.4354,7.4316,7.4087,6.7687,6.7687,6.7687,6.7687,6.7687,6.7687,6.7687,6.8017,6.9376,7.0073,7.033,7.1688,7.2459,7.2532,7.2532,7.2532,7.2532,7.2532,7.2532,7.2496,7.2459,7.2092,7.1725,7.1468,7.1138,7.044,7.0257,6.9596,6.8641,6.8412,6.8238,6.8402,6.8372,6.8352,6.8489,6.8483,6.8351,6.8266,6.8144,6.8132,6.849,6.9085,6.9976,7.0968,7.1735,7.2403,7.3108,7.3257,7.3383,7.3424,7.3501,7.3628,7.3826,7.3971,7.435,7.4901,7.5188,7.5403,7.5611,7.5779,7.5872,7.6,7.5976,7.5976,7.5976,7.5976,7.6,7.5985,7.594,7.5879,7.5826,7.5779,7.5708,7.5708,7.5708,7.5692,7.5708,7.5724,7.5747,7.5763,7.5817,7.5779,7.5747,7.5699,7.5633,7.5599,7.5532,7.5535,7.5518,7.5518,7.5518,7.5518,7.5518,7.5518,7.5518,7.5518,7.5518,7.5518,7.5518,7.5518,7.5518,7.5518,7.5518,7.5518,7.548,7.5403,7.548,7.5518,7.5174,7.5059,7.5365,7.5365,7.5042,7.5004,7.4945,6.7687,6.7687,6.7687,6.7687,6.7687,6.7687,6.7687,6.7907,6.9376,7.0073,7.0183,7.1725,7.2532,7.2532,7.2532,7.2532,7.2532,7.2532,7.2532,7.2532,7.2496,7.2459,7.2349,7.2349,7.1872,7.1248,7.1174,7.0697,6.9926,6.9743,6.9669,6.966,6.955,6.977,6.9495,6.9161,6.8967,6.8883,6.8435,6.8476,6.9041,6.9362,7.0275,7.1189,7.1844,7.225,7.298,7.3091,7.3118,7.3118,7.3162,7.3294,7.345,7.3578,7.3802,7.4214,7.4636,7.5094,7.5407,7.5595,7.581,7.5955,7.6,7.5976,7.5976,7.5962,7.597,7.591,7.5879,7.5848,7.5763,7.5692,7.5692,7.5676,7.566,7.566,7.5676,7.5628,7.5649,7.5633,7.5649,7.5699,7.566,7.5649,7.5599,7.5566,7.557,7.5535,7.5518,7.5518,7.5518,7.5518,7.5518,7.5518,7.5518,7.5518,7.5518,7.5518,7.5518,7.5518,7.5518,7.5518,7.5518,7.5518,7.5518,7.5518,7.5518,7.5518,7.5518,7.5518,7.5518,7.5518,7.548,7.5518,7.5518,6.7687,6.7687,6.7687,6.7687,6.7687,6.7687,6.7687,6.8017,6.9376,7.011,7.0403,7.1798,7.2532,7.2532,7.2532,7.2532,7.2532,7.2532,7.2532,7.2532,7.2532,7.2532,7.2496,7.2496,7.2202,7.2092,7.1982,7.1908,7.1284,7.055,7.011,7.0146,7.0146,7.0036,7.0257,6.9835,6.9678,6.9595,6.9429,6.9473,6.9895,7.0327,7.0907,7.1689,7.2169,7.2576,7.2871,7.3009,7.3009,7.3009,7.3027,7.3313,7.3727,7.3966,7.4211,7.4915,7.5295,7.5409,7.519,7.5374,7.5671,7.5879,7.594,7.5955,7.5985,7.597,7.594,7.5895,7.5801,7.5699,7.5649,7.5616,7.5599,7.5599,7.5616,7.5616,7.5599,7.5583,7.5566,7.5532,7.5532,7.5583,7.5616,7.5583,7.5532,7.5532,7.5553,7.5535,7.5518,7.5518,7.5518,7.5518,7.5518,7.5518,7.5518,7.5518,7.5518,7.5518,7.5518,7.5518,7.5518,7.5518,7.5518,7.5518,7.5518,7.5518,7.5518,7.5518,7.5518,7.5518,7.5518,7.5518,7.5518,7.5518,7.5518,6.7687,6.7687,6.7687,6.7687,6.7687,6.7687,6.7687,6.7898,6.9412,7.011,7.055,7.1725,7.2532,7.2532,7.2532,7.2532,7.2532,7.2532,7.2532,7.2532,7.2532,7.2532,7.2532,7.2496,7.2496,7.2532,7.2386,7.2349,7.2055,7.1468,7.0881,7.0697,7.0954,7.0844,7.0697,7.0513,7.0358,6.9991,6.9991,7.0156,7.0579,7.1085,7.1508,7.2005,7.2466,7.2872,7.2909,7.3167,7.3204,7.324,7.3507,7.3941,7.4329,7.4468,7.4737,7.5273,7.5607,7.5658,7.556,7.5698,7.5852,7.5923,7.5871,7.581,7.5887,7.5856,7.5833,7.5817,7.5699,7.5616,7.5566,7.5514,7.5514,7.5497,7.5535,7.5518,7.5518,7.5535,7.5553,7.5553,7.5497,7.5535,7.5514,7.5535,7.5518,7.5518,7.5518,7.5518,7.5518,7.5518,7.5518,7.5518,7.5518,7.5518,7.5518,7.5518,7.5518,7.5518,7.5518,7.5518,7.5518,7.5518,7.5518,7.5518,7.5518,7.5518,7.5518,7.5518,7.5518,7.5518,7.5518,7.5518,7.5518,7.5518,7.5518,6.7687,6.7687,6.7687,6.7687,6.7687,6.7687,6.7687,6.7834,6.9412,7.0146,7.055,7.1725,7.2532,7.2532,7.2532,7.2532,7.2532,7.2532,7.2532,7.2532,7.2532,7.2532,7.2532,7.2532,7.2532,7.2532,7.2532,7.2532,7.2496,7.2275,7.2129,7.2312,7.1908,7.2165,7.1982,7.1431,7.0954,7.0587,7.0477,7.0734,7.1092,7.1459,7.1753,7.2369,7.2553,7.2561,7.2598,7.3317,7.3721,7.3758,7.4199,7.4698,7.4969,7.5043,7.5314,7.5687,7.5939,7.6053,7.6169,7.6384,7.6706,7.6426,7.5973,7.5649,7.5676,7.5692,7.5699,7.5633,7.5583,7.5549,7.5497,7.5518,7.5518,7.5518,7.5518,7.5518,7.5518,7.5518,7.5518,7.5518,7.5518,7.5518,7.5518,7.5518,7.5518,7.5518,7.5518,7.5518,7.5518,7.5518,7.5518,7.5518,7.5518,7.5518,7.5518,7.5518,7.5518,7.5518,7.5518,7.5518,7.5518,7.5518,7.5518,7.5518,7.5518,7.5518,7.5518,7.5518,7.5518,7.5518,7.5518,7.5518,7.5518,7.5518,7.5518,6.7247,6.7687,6.7687,6.7687,6.7687,6.7687,6.7687,6.7944,6.9376,7.0697,7.1541,7.2239,7.2532,7.2532,7.2532,7.2532,7.2532,7.2532,7.2532,7.2532,7.2532,7.2532,7.2532,7.2532,7.2532,7.2532,7.2532,7.2532,7.2532,7.2532,7.2532,7.2496,7.2532,7.2496,7.2312,7.2165,7.1835,7.1651,7.1541,7.1798,7.1908,7.2092,7.2422,7.3156,7.323,7.3523,7.3964,7.4258,7.4404,7.4551,7.4808,7.5242,7.5669,7.5705,7.5956,7.6376,7.6567,7.6798,7.681,7.6868,7.6497,7.6192,7.5722,7.5389,7.5424,7.5442,7.5514,7.5497,7.548,7.5445,7.5518,7.5518,7.5518,7.5518,7.5518,7.5518,7.5518,7.5518,7.5518,7.5518,7.5518,7.5518,7.5518,7.5518,7.5518,7.5518,7.5518,7.5518,7.5518,7.5518,7.5518,7.5518,7.5518,7.5518,7.5518,7.5518,7.5518,7.5594,7.5633,7.5824,7.5921,7.5518,7.5501,7.5518,7.5556,7.5594,7.5594,7.5518,7.5518,7.5518,7.5518,7.5518,7.5518,7.5518,7.5518,6.6953,6.765,6.7687,6.7687,6.7687,6.7687,6.7687,6.7907,6.9119,7.066,7.2129,7.2349,7.2532,7.2532,7.2532,7.2532,7.2532,7.2532,7.2532,7.2532,7.2532,7.2532,7.2532,7.2532,7.2532,7.2532,7.2532,7.2532,7.2532,7.2532,7.2532,7.2532,7.2532,7.2532,7.2532,7.2532,7.2532,7.2532,7.2532,7.2532,7.2496,7.2496,7.2863,7.3487,7.3597,7.4001,7.4588,7.5028,7.5249,7.5359,7.5616,7.5946,7.624,7.6533,7.679,7.7151,7.7433,7.7584,7.7435,7.6824,7.6241,7.6104,7.525,7.5053,7.5056,7.5076,7.5171,7.532,7.5301,7.5356,7.5465,7.5483,7.5501,7.5518,7.5518,7.5518,7.5518,7.5518,7.5518,7.5518,7.5518,7.5518,7.5518,7.5518,7.5518,7.5518,7.5518,7.5518,7.5518,7.5518,7.5518,7.5518,7.5518,7.5518,7.5518,7.5824,7.615,7.6265,7.6341,7.6532,7.6532,7.615,7.5921,7.6036,7.5997,7.5768,7.5653,7.5594,7.5556,7.5518,7.5518,7.5518,7.5518,7.5518,7.5518,6.6916,6.765,6.7687,6.7687,6.7687,6.7687,6.7687,6.7797,6.8641,6.9926,7.1431,7.2092,7.2459,7.2496,7.2532,7.2532,7.2532,7.2532,7.2532,7.2532,7.2532,7.2532,7.2532,7.2532,7.2532,7.2532,7.2532,7.2532,7.2532,7.2532,7.2532,7.2532,7.2532,7.2532,7.2532,7.2532,7.2532,7.2532,7.2532,7.2532,7.2532,7.2606,7.3156,7.3707,7.4074,7.4551,7.5322,7.5836,7.6056,7.613,7.6607,7.687,7.7017,7.709,7.7163,7.7304,7.7341,7.7433,7.7503,7.6532,7.6077,7.5919,7.5018,7.435,7.4428,7.4598,7.4859,7.4959,7.5095,7.5226,7.5338,7.5409,7.5445,7.5518,7.5518,7.5518,7.5518,7.5518,7.5518,7.5518,7.5518,7.5518,7.5518,7.5518,7.5518,7.5518,7.5518,7.5518,7.5518,7.5556,7.5556,7.5844,7.5883,7.6112,7.6265,7.6494,7.6761,7.6914,7.7029,7.7182,7.7373,7.7296,7.7067,7.68,7.6647,7.6609,7.6112,7.5633,7.5959,7.6265,7.5633,7.5518,7.5518,7.5518,7.5518,6.6013,6.6809,6.744,6.7687,6.7687,6.7687,6.7687,6.7834,6.8605,6.9816,7.1073,7.1651,7.2055,7.2349,7.2532,7.2532,7.2532,7.2532,7.2532,7.2532,7.2532,7.2532,7.2532,7.2532,7.2532,7.2532,7.2532,7.2532,7.2532,7.2532,7.2532,7.2532,7.2532,7.2532,7.2532,7.2532,7.2532,7.2532,7.2532,7.2532,7.2569,7.301,7.3634,7.4404,7.4882,7.5506,7.6209,7.668,7.679,7.679,7.7237,7.7273,7.731,7.731,7.731,7.731,7.731,7.7341,7.6998,7.6235,7.5504,7.5267,7.4623,7.3764,7.3811,7.4024,7.4312,7.4594,7.4819,7.4998,7.5264,7.5338,7.5374,7.5501,7.5518,7.5518,7.5518,7.5518,7.5518,7.5518,7.5518,7.5518,7.5518,7.5556,7.5556,7.5671,7.5709,7.5671,7.5633,7.5633,7.5653,7.6188,7.6494,7.6761,7.7029,7.7335,7.7526,7.7678,7.7678,7.7717,7.7946,7.829,7.8022,7.764,7.7564,7.7449,7.6991,7.6723,7.7067,7.7105,7.6341,7.5747,7.5671,7.5633,7.5518,6.5031,6.6107,6.6701,6.7186,6.746,6.7633,6.7687,6.7834,6.8568,6.9559,7.0403,7.0991,7.1541,7.2055,7.2386,7.2532,7.2532,7.2532,7.2532,7.2532,7.2532,7.2532,7.2532,7.2532,7.2532,7.2532,7.2532,7.2532,7.2532,7.2532,7.2532,7.2532,7.2532,7.2532,7.2532,7.2532,7.2532,7.2532,7.2532,7.2532,7.2716,7.323,7.4037,7.4845,7.5579,7.6387,7.7017,7.731,7.731,7.731,7.731,7.731,7.731,7.731,7.731,7.731,7.731,7.731,7.6974,7.627,7.5624,7.5244,7.4014,7.3368,7.3324,7.3579,7.3835,7.4154,7.4438,7.4737,7.5018,7.5095,7.532,7.5409,7.5501,7.5462,7.5518,7.5518,7.5518,7.5518,7.5518,7.5518,7.5518,7.5594,7.5633,7.5786,7.5921,7.5921,7.5921,7.5997,7.6188,7.68,7.7182,7.7411,7.7793,7.8175,7.8328,7.8443,7.8519,7.8634,7.8939,7.936,7.8901,7.8519,7.8443,7.8328,7.8022,7.7908,7.7908,7.7526,7.68,7.6303,7.5959,7.5709,7.5518,6.3928,6.5446,6.5583,6.6178,6.6939,6.7378,6.7633,6.776,6.8467,6.8834,6.9082,7.0559,7.1146,7.1439,7.2129,7.2422,7.2532,7.2532,7.2532,7.2532,7.2532,7.2532,7.2532,7.2532,7.2532,7.2532,7.2532,7.2532,7.2532,7.2532,7.2532,7.2532,7.2532,7.2532,7.2532,7.2532,7.2532,7.2532,7.2532,7.2532,7.2679,7.3413,7.4221,7.5028,7.5836,7.6607,7.709,7.731,7.731,7.731,7.731,7.731,7.731,7.731,7.731,7.731,7.731,7.731,7.7163,7.6387,7.5799,7.5213,7.3762,7.3139,7.2936,7.3178,7.3427,7.3714,7.4001,7.4356,7.4674,7.4959,7.5246,7.5338,7.5409,7.5445,7.5501,7.5518,7.5518,7.5518,7.5518,7.5518,7.5556,7.5594,7.5977,7.6265,7.657,7.7029,7.6991,7.68,7.7105,7.7793,7.8061,7.8099,7.8481,7.9016,7.9207,7.9283,7.9704,7.9856,8.02,8.0162,7.9742,7.9398,7.9378,7.9169,7.8978,7.8672,7.8404,7.7946,7.7564,7.6761,7.6418,7.5786,7.5518,6.3101,6.4219,6.495,6.5695,6.6404,6.6714,6.7154,6.767,6.7899,6.8202,6.8935,6.9265,7.0116,7.1293,7.1578,7.1953,7.2312,7.2532,7.2532,7.2496,7.2496,7.2496,7.2532,7.2532,7.2532,7.2532,7.2532,7.2532,7.2532,7.2532,7.2532,7.2532,7.2532,7.2532,7.2532,7.2532,7.2532,7.2532,7.2532,7.2532,7.2936,7.378,7.4478,7.5102,7.624,7.6907,7.72,7.731,7.731,7.731,7.731,7.731,7.731,7.731,7.731,7.731,7.731,7.7273,7.7163,7.657,7.5983,7.5506,7.4316,7.3214,7.2888,7.2872,7.3118,7.3324,7.3616,7.3968,7.4356,7.4678,7.5018,7.5208,7.5338,7.5409,7.5483,7.5518,7.5518,7.5518,7.5518,7.5633,7.5615,7.6036,7.6418,7.6761,7.722,7.7793,7.8022,7.7831,7.8022,7.8672,7.8939,7.8978,7.9436,7.9971,8.0047,8.02,8.043,8.0506,8.043,8.0353,8.0315,8.02,7.9971,7.9933,7.9971,7.9665,7.9245,7.913,7.8748,7.7717,7.68,7.6074,7.5556,6.1796,6.2733,6.3641,6.4729,6.5811,6.6202,6.6625,6.7097,6.7154,6.7539,6.8025,6.8341,6.9018,6.9945,7.0668,7.1319,7.1743,7.2204,7.238,7.2409,7.2438,7.2496,7.2532,7.2496,7.2532,7.2532,7.2532,7.2532,7.2532,7.2532,7.2532,7.2532,7.2532,7.2532,7.2532,7.2532,7.2532,7.2532,7.2532,7.2532,7.312,7.4037,7.4661,7.5182,7.6466,7.709,7.731,7.731,7.731,7.731,7.731,7.731,7.731,7.731,7.731,7.731,7.731,7.731,7.72,7.6937,7.6497,7.5983,7.5175,7.4441,7.3516,7.319,7.3028,7.299,7.3246,7.3553,7.3977,7.4422,7.476,7.5114,7.5264,7.5356,7.5409,7.5501,7.5518,7.5518,7.5594,7.573,7.5997,7.6456,7.7105,7.7793,7.8366,7.8825,7.8978,7.8825,7.9054,7.9589,7.9742,7.9856,8.0315,8.0506,8.043,8.0353,8.043,8.0506,8.0506,8.0468,8.043,8.043,8.043,8.0391,8.0315,8.0391,8.0162,7.9933,7.936,7.8213,7.7105,7.6227,7.5768,6.0299,6.13,6.2075,6.3602,6.5161,6.5629,6.5954,6.6105,6.6385,6.6632,6.6836,6.7444,6.7896,6.8595,6.9497,7.035,7.0913,7.1543,7.1998,7.2233,7.2292,7.2351,7.2438,7.2467,7.2467,7.2467,7.2532,7.2532,7.2532,7.2532,7.2532,7.2532,7.2532,7.2532,7.2532,7.2532,7.2532,7.2532,7.2532,7.2532,7.2899,7.3854,7.4882,7.5175,7.6203,7.7163,7.7273,7.731,7.731,7.731,7.731,7.731,7.731,7.731,7.731,7.731,7.731,7.731,7.731,7.7127,7.6864,7.6497,7.6093,7.5506,7.4625,7.3516,7.3153,7.3009,7.3249,7.3346,7.3665,7.4047,7.4406,7.4821,7.5076,7.5264,7.5374,7.5427,7.5518,7.5518,7.5556,7.573,7.6379,7.6838,7.764,7.8672,7.9398,7.9742,7.978,7.9665,7.9856,8.0238,8.0238,8.0238,8.0353,8.0506,8.0506,8.0506,8.0506,8.0506,8.0506,8.0506,8.0506,8.0506,8.0506,8.0506,8.0468,8.0506,8.043,8.02,7.9513,7.8481,7.7487,7.6532,7.5921,5.997,6.0939,6.2299,6.3274,6.3863,6.4528,6.491,6.5045,6.5145,6.5601,6.6238,6.6485,6.6875,6.7575,6.8038,6.8889,7.0056,7.0584,7.1143,7.1593,7.1897,7.2084,7.2263,7.2263,7.2351,7.2467,7.2532,7.2467,7.2467,7.2467,7.2496,7.2532,7.2532,7.2532,7.2532,7.2532,7.2532,7.2532,7.2532,7.2532,7.2716,7.3377,7.4221,7.4918,7.5916,7.679,7.7047,7.731,7.731,7.731,7.731,7.731,7.731,7.731,7.731,7.731,7.731,7.731,7.731,7.731,7.709,7.6864,7.6533,7.613,7.5359,7.4147,7.3406,7.3345,7.3258,7.3266,7.335,7.369,7.407,7.453,7.4977,7.5152,7.5338,7.5409,7.5501,7.5518,7.5518,7.5997,7.6647,7.7373,7.8213,7.9016,7.9856,8.0277,8.0277,8.02,8.0124,8.0391,8.043,8.043,8.0506,8.0506,8.0506,8.0506,8.0506,8.0506,8.0506,8.0506,8.0506,8.0506,8.0506,8.0506,8.0506,8.0506,8.043,8.0277,7.9742,7.871,7.787,7.6991,7.6265,5.9459,6.008,6.1328,6.237,6.3067,6.359,6.4044,6.4428,6.4498,6.4775,6.5311,6.5412,6.5756,6.6381,6.6663,6.7322,6.8697,6.9477,7.0033,7.0658,7.1282,7.162,7.1775,7.1964,7.2054,7.2174,7.2263,7.2292,7.2351,7.2409,7.2409,7.2467,7.2467,7.2532,7.2496,7.2496,7.2532,7.2532,7.2532,7.2532,7.2569,7.3266,7.4074,7.4882,7.5689,7.646,7.7011,7.731,7.731,7.731,7.731,7.731,7.731,7.731,7.731,7.731,7.731,7.731,7.731,7.731,7.731,7.7053,7.698,7.6644,7.6533,7.5359,7.4221,7.4022,7.3574,7.349,7.3209,7.339,7.3811,7.4267,7.4674,7.4977,7.5209,7.5356,7.5427,7.5518,7.5709,7.6188,7.6876,7.7564,7.8481,7.9627,8.0391,8.0468,8.0506,8.0506,8.0506,8.0506,8.0506,8.0506,8.0506,8.0506,8.0506,8.0506,8.0506,8.0506,8.0506,8.0506,8.0506,8.0506,8.0506,8.0506,8.0506,8.0506,8.0506,8.043,7.978,7.8978,7.8213,7.7411,7.657,5.9012,5.915,6.0082,6.1259,6.2472,6.2856,6.3379,6.4039,6.4109,6.4109,6.4251,6.4463,6.4672,6.502,6.5476,6.6066,6.68,6.782,6.8627,6.9609,7.0342,7.0757,7.1167,7.1431,7.1557,7.1718,7.1811,7.1964,7.2054,7.2114,7.2233,7.238,7.2438,7.2504,7.2467,7.2496,7.2532,7.2532,7.2532,7.2532,7.2789,7.3193,7.3964,7.4771,7.5579,7.6387,7.7011,7.731,7.731,7.731,7.731,7.731,7.731,7.731,7.731,7.731,7.731,7.731,7.731,7.731,7.731,7.7273,7.731,7.72,7.7053,7.6497,7.5359,7.4661,7.4177,7.3595,7.3324,7.3114,7.3553,7.3968,7.4356,7.4816,7.5056,7.5264,7.5338,7.5448,7.5827,7.6285,7.7182,7.787,7.8787,7.9971,8.0506,8.0506,8.0506,8.0506,8.0506,8.0506,8.0506,8.0506,8.0506,8.0506,8.0506,8.0506,8.0506,8.0506,8.0506,8.0506,8.0506,8.0506,8.0506,8.0506,8.0506,8.0506,8.0506,8.0506,8.0124,7.9474,7.8634,7.7831,7.6838,5.9012,5.9081,5.9909,6.0773,6.1601,6.2259,6.3019,6.3641,6.3747,6.371,6.3783,6.382,6.3966,6.4323,6.4462,6.4953,6.5759,6.6532,6.7517,6.8575,6.9101,6.9768,7.0329,7.0673,7.0943,7.1074,7.1204,7.1363,7.149,7.1749,7.1909,7.1933,7.2233,7.2292,7.2321,7.238,7.2438,7.2467,7.2496,7.2532,7.2532,7.2973,7.3634,7.4368,7.5065,7.6093,7.6833,7.7237,7.731,7.731,7.731,7.731,7.731,7.731,7.731,7.731,7.731,7.731,7.731,7.731,7.731,7.731,7.731,7.7273,7.72,7.7163,7.624,7.5579,7.4948,7.4015,7.3553,7.3065,7.322,7.3678,7.4085,7.4568,7.4879,7.5018,7.5152,7.5264,7.547,7.6384,7.7622,7.8233,7.8787,7.978,8.0468,8.0506,8.0506,8.0506,8.0506,8.0506,8.0506,8.0506,8.0506,8.0506,8.0506,8.0506,8.0506,8.0506,8.0506,8.0506,8.0506,8.0506,8.0506,8.0506,8.0506,8.0506,8.0506,8.0506,8.0468,8.0047,7.913,7.8366,7.7526]}]]